     2              OBSERVATION DATA    GPS                 RINEX VERSION / TYPE
teqc 2000Feb29 Duncan Agnew 20030429 22:29:06UTC            PGM / RUN BY / DATE
                                                            COMMENT
L2: 1 -> 1; 150 -> 5; 250 -> 9                              COMMENT
L2: 1 -> 1; 150 -> 5; 250 -> 9                              COMMENT
L2: 1 -> 1; 150 -> 5; 250 -> 9                              COMMENT
L2: 1 -> 1; 150 -> 5; 250 -> 9                              COMMENT
L2: 1 -> 1; 150 -> 5; 250 -> 9                              COMMENT
Original Marker Name: E122                                  COMMENT
Campaign Name: Imperial Valley 2003                         COMMENT
4-Character Station Name: E122                              COMMENT
6-Character Antenna Code: DMRCHT                            COMMENT
Vertical Measurement Point: BCR                             COMMENT
Vertical Offset to Rinex Ref. Point: 0.0348                 COMMENT
Radial Measurement Point: ECF                               COMMENT
Radial Offset to Rinex Ref. Point: 0.1897                   COMMENT
Antenna Height from Field Measurement: 0.8820 m             COMMENT
Additional Antenna Identification Info.:                    COMMENT
Turborogue and Ashtech Choke Ring                           COMMENT
Original XYZ: -2329993.6685 -4835035.2044 3434287.3824      COMMENT
New XYZ position is based on association with SCEC monument COMMENT
E1C8W0P8+0011. Position of that monument is believed to be  COMMENT
valid to within 1 m horizontally; vertical accuracy         COMMENT
should be no worse than 3-times this value.                 COMMENT
                                                            COMMENT
Revised Rinex header created by UCSD GPS archive for        COMMENT
GSAC on 11-Jul-2003 (2003:192) 15:59:55 GMT                 COMMENT
For assistance contact dagnew@ucsd.edu                      COMMENT
or anderson@python.ucsd.edu                                 COMMENT
                                                            COMMENT
E1223 1971                                                  MARKER NAME
SJB SCRIPPS INSTITUTION OF OCEANOGRAPHY                     OBSERVER / AGENCY
378 ASHTECH Z-XII3 CC00                                     REC # / TYPE / VERS
653 DORNE-MARGOL. TYPE T                                    ANT # / TYPE
 -2318324.9856 -4839899.1208  3435294.5662                  APPROX POSITION XYZ
        0.8266        0.0000        0.0000                  ANTENNA: DELTA H/E/N
     1     1     0                                          WAVELENGTH FACT L1/2
     7    C1    L1    L2    P1    P2    S1    S2            # / TYPES OF OBSERV
     0                                                      INTERVAL
  2003     4    28    17    13   30.000000                  TIME OF FIRST OBS
  2003     4    28    22    43    0.000000                  TIME OF LAST OBS
                                                            END OF HEADER
 03  4 28 17 13 30.0000000  0  6G24G21G 5G30G10G 6
  22915481.519       39378.45559     28200.76646  22915481.103    22915487.724
       234.000         179.000
  24970362.748     -344048.13759   -239771.30845  24970362.128    24970368.409
       211.000         132.000
                    -58874.82819    710574.527 1
       242.000
  20852291.494     -264830.08359   -191673.20548  20852291.629    20852297.393
       242.000         213.000
  21168183.552     -250658.63159   -183212.75947  21168182.582    21168188.978
       242.000         207.000
  22932541.408     -369813.14159   -270814.91046  22932541.062    22932548.431
       215.000         173.000
 03  4 28 17 14  0.0000000  0  6G24G21G 5G30G10G 6
  22553584.150     -286981.43949   -226105.66246  22553584.089    22553592.057
       229.000         180.000
  24577717.795     -831988.28949   -619984.31445  24577717.890    24577726.379
       210.000         138.000
  20694943.742     -415627.66749   -277900.20547  20694943.129    20694949.779
       245.000         206.000
  20471735.770     -689243.71349   -522385.15048  20471736.462    20471742.029
       247.000         214.000
  20787184.666     -677399.76949   -515738.31047  20787183.422    20787190.482
       241.000         206.000
  22543348.435     -839620.79549   -636898.79046  22543347.405    22543354.043
       228.000         176.000
 03  4 28 17 14 30.0000000  0  6G24G21G 5G30G10G 6
  22568200.782     -210172.06449   -166254.26346  22568200.710    22568208.037
       230.000         180.000
  24561603.323     -916673.79049   -685972.92645  24561602.486    24561611.428
       204.000         140.000
  20703858.544     -368780.47849   -241395.96747  20703857.638    20703863.824
       244.000         211.000
  20467788.240     -709990.72149   -538551.67048  20467788.915    20467793.815
       246.000         215.000
  20782802.977     -700425.34149   -533680.32547  20782802.105    20782809.155
       242.000         207.000
  22530662.232     -906285.01149   -688844.92446  22530661.568    22530668.197
       226.000         177.000
 03  4 28 17 15  0.0000000  0  6G24G21G 5G30G10G 6
  22582835.018     -133268.98849   -106329.85946  22582834.569    22582841.841
       230.000         179.000
  24545521.135    -1001184.27759   -751825.14745  24545521.079    24545529.326
       207.000         140.000
  20712872.738     -321409.63449   -204483.67347  20712871.557    20712878.792
       243.000         211.000
  20463952.616     -730148.02349   -554258.67448  20463952.740    20463958.241
       245.000         215.000
  20778542.946     -722812.38249   -551124.78947  20778541.995    20778549.238
       243.000         208.000
  22517988.585     -972884.87049   -740740.88646  22517987.901    22517994.927
       227.000         177.000
 03  4 28 17 15 30.0000000  0  6G24G21G 5G30G10G 6
  22597484.256      -56287.33749    -46344.20746  22597484.977    22597492.504
       232.000         180.000
  24529469.950    -1085532.86849   -817551.16245  24529468.812    24529476.664
       196.000         139.000
  20721983.847     -273530.07549   -167174.97747  20721983.359    20721990.182
       245.000         212.000
  20460226.606     -749727.80849   -569515.66348  20460226.530    20460232.526
       245.000         214.000
  20774401.970     -744573.35749   -568081.40547  20774401.051    20774408.162
       242.000         208.000
  22505324.857    -1039433.09549   -792596.64046  22505324.818    22505330.780
       226.000         176.000
 03  4 28 17 16  0.0000000  0  6G24G21G 5G30G10G 6
  22612148.048       20770.45249     13700.77546  22612148.066    22612155.628
       230.000         180.000
  24513449.532    -1169720.14349   -883151.53545  24513450.152    24513459.536
       203.000         135.000
  20731191.420     -225144.41549   -129471.93147  20731190.975    20731197.598
       244.000         212.000
  20456610.534     -768730.55949   -584323.02648  20456610.913    20456616.316
       246.000         214.000
  20770380.049     -765708.40149   -584550.27647  20770379.156    20770386.057
       241.000         207.000
  22492670.902    -1105930.13149   -844412.49346  22492670.488    22492677.860
       228.000         177.000
 03  4 28 17 16 30.0000000  0  6G24G21G 5G30G10G 6
  22626825.238       97899.62749     73801.36346  22626825.515    22626833.148
       231.000         179.000
  24497460.026    -1253747.88849   -948627.62545  24497459.821    24497468.437
       211.000         142.000
  20740494.481     -176256.56249    -91377.56047  20740493.685    20740500.804
       243.000         211.000
  20453103.961     -787157.93649   -598682.04948  20453104.331    20453109.630
       246.000         214.000
  20766476.884     -786219.46449   -600532.92947  20766476.098    20766483.089
       242.000         207.000
  22480026.376    -1172377.77649   -896189.86246  22480026.172    22480032.405
       227.000         178.000
 03  4 28 17 17  0.0000000  0  6G24G21G 5G30G10G 6
  22641514.607      175092.08549    133951.26746  22641514.805    22641521.797
       231.000         177.000
  24481499.469    -1337622.18449  -1013984.15845  24481499.561    24481507.248
       214.000         143.000
  20749891.522     -126874.65949    -52898.21147  20749891.279    20749898.454
       244.000         211.000
  20449705.799     -805015.44749   -612597.02348  20449706.033    20449711.761
       246.000         214.000
  20762691.495     -806112.36749   -616033.91547  20762691.338    20762697.793
       243.000         208.000
  22467390.153    -1238781.79149   -947933.23846  22467389.650    22467396.631
       226.000         179.000
 03  4 28 17 17 30.0000000  0  6G24G21G 5G30G10G 6
  22656218.049      252358.65549    194158.93346  22656218.037    22656225.720
       229.000         178.000
  24465570.643    -1421330.18949  -1079211.14845  24465571.377    24465579.364
       215.000         146.000
  20759384.868      -76987.85149    -14025.43847  20759384.747    20759391.118
       244.000         212.000
  20446418.653     -822289.79049   -626057.57548  20446419.049    20446424.639
       246.000         214.000
  20759026.431     -825373.53049   -631042.61847  20759025.656    20759032.782
       244.000         209.000
  22454764.609    -1305128.92049   -999632.27446  22454764.310    22454770.956
       226.000         180.000
 03  4 28 17 18  0.0000000  0  6G24G21G 5G30G10G 6
  22670934.171      329692.19249    254418.76146  22670933.439    22670942.008
       230.000         179.000
  24449672.281    -1504877.21049  -1144312.71945  24449670.655    24449678.629
       212.000         144.000
  20768972.888      -26603.26249     25235.21547  20768972.739    20768979.218
       244.000         211.000
  20443241.566     -838985.85049   -639067.51748  20443242.238    20443247.713
       247.000         215.000
  20755480.414     -844008.03049   -645563.02047  20755479.680    20755486.656
       243.000         209.000
  22442149.041    -1371424.04649  -1051290.81146  22442148.864    22442155.883
       228.000         181.000
 03  4 28 17 18 30.0000000  0  6G24G21G 5G30G10G 6
  22685662.728      407090.61049    314729.15246  22685662.752    22685670.595
       231.000         180.000
  24433804.404    -1588262.72049  -1209288.35245  24433805.848    24433812.081
       209.000         140.000
  20778655.217       24277.37649     64882.42447  20778654.567    20778661.780
       243.000         211.000
  20440174.716     -855102.94649   -651626.31648  20440175.301    20440180.587
       246.000         215.000
  20752053.643     -862015.45249   -659594.78547  20752052.873    20752059.815
       242.000         208.000
  22429543.562    -1437666.57649  -1102908.35146  22429543.580    22429550.059
       227.000         181.000
 03  4 28 17 19  0.0000000  0  6G24G21G 5G30G10G 6
  22700402.908      484550.37449    375087.32946  22700402.798    22700410.307
       229.000         179.000
  24417967.228    -1671488.04749  -1274139.18645  24417967.213    24417976.400
       207.000         141.000
  20788431.287       75650.74149    104913.56847  20788430.799    20788437.763
       244.000         211.000
  20437217.784     -870642.26649   -663734.89748  20437217.848    20437223.574
       245.000         214.000
  20748746.143     -879396.96949   -673138.82747  20748745.382    20748752.571
       244.000         209.000
  22416947.912    -1503857.50949  -1154485.68546  22416947.500    22416954.077
       228.000         180.000
 03  4 28 17 19 30.0000000  0  6G24G21G 5G30G10G 6
  22715154.667      562071.09749    435493.03946  22715155.135    22715162.584
       230.000         178.000
  24402160.646    -1754551.32449  -1338863.78145  24402160.206    24402168.960
       207.000         142.000
  20798301.054      127516.55549    145328.42747  20798300.296    20798306.940
       243.000         210.000
  20434371.082     -885601.62849   -675391.56648  20434371.229    20434376.928
       246.000         214.000
  20745558.078     -896150.78849   -686193.74547  20745557.180    20745564.216
       243.000         209.000
  22404362.463    -1569994.77549  -1206021.20946  22404362.303    22404369.154
       228.000         182.000
 03  4 28 17 20  0.0000000  0  6G24G21G 5G30G10G 6
  22729917.769      639651.35749    495945.14646  22729917.216    22729925.057
       228.000         178.000
  24386385.241    -1837452.25649  -1403461.82745  24386384.707    24386391.787
       212.000         145.000
  20808264.127      179873.26649    186125.80247  20808263.569    20808270.383
       243.000         209.000
  20431634.957     -899980.30949   -686595.76548  20431635.653    20431640.963
       247.000         215.000
  20742489.568     -912275.86649   -698758.74847  20742488.564    20742495.612
       241.000         208.000
  22391787.383    -1636077.47349  -1257514.20546  22391786.789    22391793.564
       228.000         181.000
 03  4 28 17 20 30.0000000  0  6G24G21G 5G30G10G 6
  22744692.414      717292.38349    556444.59246  22744692.577    22744700.073
       229.000         178.000
  24370641.170    -1920187.34949  -1467930.66845  24370639.847    24370649.148
       215.000         148.000
  20818320.961      232722.13649    227306.68647  20818320.706    20818327.622
       244.000         211.000
  20429010.122     -913774.65249   -697344.63848  20429010.640    20429016.006
       247.000         215.000
  20739541.239     -927768.92049   -710831.25847  20739540.255    20739547.453
       242.000         208.000
  22379223.281    -1702102.03149  -1308961.90446  22379222.876    22379229.580
       227.000         180.000
 03  4 28 17 21  0.0000000  0  6G24G21G 5G30G10G 6
  22759478.226      794992.19049    616989.83346  22759478.041    22759486.423
       228.000         177.000
  24354928.896    -2002756.68949  -1532270.36945  24354928.534    24354936.057
       215.000         151.000
  20828471.176      286061.15649    268869.49647  20828470.900    20828477.700
       244.000         211.000
  20426496.388     -926984.34849   -707637.93448  20426496.581    20426502.132
       246.000         215.000
  20736713.229     -942630.05449   -722411.35247  20736712.583    20736719.590
       243.000         209.000
  22366670.418    -1768067.99449  -1360363.94246  22366669.637    22366677.043
       227.000         180.000
 03  4 28 17 21 30.0000000  0  6G24G21G 5G30G10G 6
  22774275.376      872751.66349    677581.56946  22774275.767    22774282.525
       229.000         177.000
  24339248.636    -2085157.25449  -1596478.54745  24339247.020    24339255.292
       212.000         147.000
  20838714.752      339891.02749    310814.79747  20838714.298    20838720.897
       243.000         210.000
  20424094.459     -939606.35649   -717473.29148  20424094.853    20424100.500
       245.000         214.000
  20734006.151     -956856.09649   -733496.58447  20734005.397    20734012.591
       243.000         209.000
  22354129.231    -1833972.09849  -1411717.77846  22354129.228    22354135.677
       229.000         181.000
 03  4 28 17 22  0.0000000  0  6G24G21G 5G30G10G 6
  22789083.057      950565.90049    738215.98046  22789082.606    22789090.842
       228.000         177.000
  24323599.904    -2167391.60449  -1660557.22845  24323599.562    24323605.421
       212.000         143.000
  20849050.753      394206.75349    353138.68347  20849050.633    20849057.411
       245.000         210.000
  20421803.988     -951643.32549   -726852.77548  20421804.409    20421809.901
       247.000         214.000
  20731419.412     -970449.68949   -744088.99447  20731418.757    20731425.717
       243.000         209.000
  22341599.394    -1899816.71349  -1463025.26546  22341599.163    22341605.672
       228.000         182.000
 03  4 28 17 22 30.0000000  0  6G24G21G 5G30G10G 6
  22803900.402     1028431.77449    798890.63446  22803899.819    22803908.775
       228.000         177.000
  24307982.607    -2249461.17649  -1724507.45845  24307980.255    24307988.576
       206.000         140.000
  20859478.657      449005.27049    395838.77047  20859478.164    20859485.420
       243.000         210.000
  20419624.620     -963096.12449   -735777.07248  20419624.858    20419630.471
       246.000         214.000
  20728952.811     -983412.00449   -754189.50447  20728952.005    20728959.189
       243.000         209.000
  22329080.732    -1965602.68949  -1514287.05946  22329080.699    22329086.951
       227.000         181.000
 03  4 28 17 23  0.0000000  0  7G24G21G 5G17G30G10G 6
  22818727.433     1106346.88349    859603.65246  22818727.674    22818735.611
       227.000         176.000
  24292396.095    -2331366.01749  -1788329.39845  24292395.964    24292404.725
       207.000         139.000
  20869997.851      504284.09849    438913.12547  20869997.521    20870004.113
       243.000         209.000
  23618203.241    -1109176.72459   -844397.29545  23618202.838    23618211.477
       217.000         160.000
  20417556.411     -973964.75249   -744246.16448  20417557.069    20417562.155
       247.000         215.000
  20726606.233     -995743.47649   -763798.44447  20726605.560    20726612.530
       243.000         209.000
  22316573.274    -2031329.68149  -1565502.88846  22316573.747    22316580.141
       230.000         180.000
 03  4 28 17 23 30.0000000  0  7G24G21G 5G17G30G10G 6
  22833563.416     1184310.61649    920354.55646  22833562.634    22833571.490
       226.000         175.000
  24276841.490    -2413105.33849  -1852022.31045  24276841.592    24276849.010
       212.000         143.000
  20880608.302      560042.01349    482360.78447  20880608.196    20880615.325
       243.000         209.000
  23604343.436    -1182011.84649   -901151.89746  23604342.594    23604351.184
       219.000         165.000
  20415599.626     -984248.17049   -752259.24448  20415600.024    20415605.716
       246.000         215.000
  20724379.965    -1007442.92849   -772914.89647  20724379.151    20724386.147
       243.000         209.000
  22304077.573    -2096996.11749  -1616671.53846  22304077.738    22304083.732
       229.000         182.000
 03  4 28 17 24  0.0000000  0  7G24G21G 5G17G30G10G 6
  22848407.952     1262318.90249    981140.17146  22848408.356    22848416.253
       226.000         176.000
  24261318.319    -2494680.89149  -1915587.62145  24261318.279    24261325.993
       214.000         146.000
  20891309.191      616274.86549    526178.53447  20891308.598    20891316.023
       242.000         209.000
  23590520.944    -1254648.97049   -957752.19346  23590518.684    23590528.259
       216.000         163.000
  20413753.878     -993948.06949   -759817.62648  20413754.022    20413759.725
       245.000         215.000
  20722273.598    -1018512.24049   -781540.32547  20722272.599    20722279.788
       242.000         209.000
  22291592.899    -2162603.62949  -1667794.25946  22291592.642    22291598.981
       228.000         181.000
 03  4 28 17 24 30.0000000  0  7G24G21G 5G17G30G10G 6
  22863260.772     1340369.85749   1041959.04246  22863260.584    22863268.269
       227.000         176.000
  24245826.457    -2576092.05549  -1979024.84345  24245825.664    24245834.191
       214.000         149.000
  20902100.008      672981.02449    570365.10347  20902099.747    20902106.614
       243.000         208.000
  23576735.775    -1327087.78949  -1014197.96946  23576735.875    23576743.804
       219.000         163.000
  20412019.107    -1003064.03449   -766920.99648  20412019.393    20412025.180
       246.000         214.000
  20720287.127    -1028951.17149   -789674.56047  20720286.474    20720293.428
       242.000         208.000
  22279119.572    -2228151.30449  -1718870.36146  22279119.477    22279126.358
       229.000         182.000
 03  4 28 17 25  0.0000000  0  7G24G21G 5G17G30G10G 6
  22878122.098     1418466.18749   1102813.27346  22878121.896    22878129.357
       226.000         175.000
  24230366.597    -2657334.68549  -2042330.77345  24230366.926    24230374.924
       213.000         151.000
  20912981.526      730162.88649    614922.31047  20912981.284    20912987.749
       243.000         208.000
  23562989.997    -1399323.85149  -1070485.75346  23562989.762    23562998.993
       220.000         167.000
  20410396.478    -1011591.45049   -773565.77848  20410397.156    20410402.464
       247.000         215.000
  20718421.502    -1038755.17649   -797314.03447  20718420.866    20718427.878
       243.000         209.000
  22266658.594    -2293634.12349  -1769895.91846  22266657.704    22266665.268
       228.000         182.000
 03  4 28 17 25 30.0000000  0  7G24G21G 5G17G30G10G 6
  22892991.575     1496606.01949   1163701.40846  22892990.762    22892999.307
       222.000         173.000
  24214938.712    -2738408.71949  -2105505.27645  24214937.568    24214945.842
       211.000         148.000
  20923952.965      787818.18549    659848.47247  20923952.309    20923960.061
       242.000         208.000
  23549282.487    -1471357.80649  -1126616.09346  23549282.051    23549290.519
       217.000         166.000
  20408885.900    -1019530.17849   -779751.83348  20408886.202    20408891.761
       246.000         215.000
  20716676.676    -1047924.72849   -804459.12347  20716675.924    20716682.725
       244.000         209.000
  22254210.027    -2359051.66249  -1820870.61546  22254209.541    22254216.632
       229.000         182.000
 03  4 28 17 26  0.0000000  0  7G24G21G 5G17G30G10G 6
  22907869.042     1574788.74649   1224622.93146  22907869.432    22907877.444
       224.000         173.000
  24199543.041    -2819312.52049  -2168547.14245  24199542.715    24199549.341
       209.000         144.000
  20935014.324      845946.10249    705142.89247  20935014.081    20935021.115
       243.000         208.000
  23535613.568    -1543188.10449  -1182587.70646  23535613.434    23535620.957
       219.000         164.000
  20407487.443    -1026879.06749   -785478.26048  20407487.820    20407493.461
       246.000         214.000
  20715052.859    -1056458.52849   -811108.82447  20715052.068    20715058.822
       243.000         210.000
  22241774.291    -2424401.98749  -1871792.94946  22241774.000    22241780.054
       230.000         182.000
 03  4 28 17 26 30.0000000  0  7G24G21G 5G17G30G10G 6
  22922754.647     1653012.52649   1285576.48846  22922754.997    22922762.059
       225.000         174.000
  24184179.848    -2900046.53249  -2231456.74045  24184179.491    24184187.301
       212.000         145.000
  20946165.274      904544.19349    750803.66047  20946164.772    20946171.429
       242.000         208.000
  23521983.478    -1614815.22949  -1238400.96946  23521983.220    23521990.974
       218.000         164.000
  20406201.305    -1033637.84949   -790744.87648  20406201.740    20406207.207
       247.000         215.000
  20713549.856    -1064356.65449   -817263.20647  20713548.819    20713555.956
       242.000         209.000
  22229351.417    -2489684.88749  -1922662.73046  22229350.571    22229358.204
       228.000         182.000
 03  4 28 17 27  0.0000000  0  7G24G21G 5G17G30G10G 6
  22937647.812     1731276.14349   1346561.07046  22937647.787    22937656.246
       225.000         173.000
  24168849.306    -2980610.08549  -2294233.51445  24168849.604    24168855.817
       215.000         146.000
  20957405.293      963610.93549    796829.62447  20957404.831    20957412.301
       241.000         207.000
  23508391.878    -1686238.62749  -1294055.55146  23508391.259    23508400.284
       218.000         165.000
  20405027.568    -1039806.12649   -795551.36448  20405028.113    20405033.555
       247.000         215.000
  20712167.824    -1071618.88049   -822922.08347  20712167.135    20712174.010
       243.000         209.000
  22216941.492    -2554899.21749  -1973479.08146  22216941.172    22216948.368
       229.000         183.000
 03  4 28 17 27 30.0000000  0  7G24G21G 5G17G30G10G 6
  22952547.984     1809576.37849   1407574.16446  22952548.461    22952556.052
       224.000         173.000
  24153550.930    -3061004.30849  -2356878.33745  24153551.404    24153555.986
       214.000         147.000
  20968733.959     1023142.84549    843218.06447  20968734.167    20968741.178
       243.000         208.000
  23494838.923    -1757459.52449  -1349552.30746  23494838.452    23494846.716
       220.000         166.000
  20403965.998    -1045384.99649   -799898.56548  20403966.218    20403972.084
       245.000         215.000
  20710906.748    -1078246.38949   -828086.35147  20710905.998    20710913.064
       244.000         210.000
  22204544.659    -2620045.34949  -2024242.28646  22204544.394    22204551.362
       229.000         183.000
 03  4 28 17 28  0.0000000  0  7G24G21G 5G17G30G10G 6
  22967455.321     1887914.55549   1468616.81446  22967454.922    22967463.512
       223.000         171.000
  24138285.055    -3141226.20149  -2419388.86945  24138284.473    24138292.369
       215.000         148.000
  20980151.359     1083140.50549    889969.41847  20980151.164    20980157.571
       243.000         208.000
  23481325.192    -1828475.22249  -1404889.15546  23481324.018    23481333.376
       219.000         165.000
  20403017.145    -1050371.61749   -803784.27448  20403017.375    20403023.213
       245.000         214.000
  20709766.826    -1084236.79349   -832754.18647  20709766.067    20709772.877
       243.000         210.000
  22192161.385    -2685119.89049  -2074949.72646  22192161.646    22192167.925
       231.000         183.000
 03  4 28 17 28 30.0000000  0  7G24G21G 5G17G30G10G 6
  22982368.970     1966286.43649   1529685.75246  22982368.847    22982376.991
       224.000         171.000
  24123051.719    -3221278.19449  -2481767.00445  24123051.869    24123058.663
       213.000         150.000
  20991656.385     1143599.51049    937080.24947  20991656.179    20991662.930
       243.000         207.000
  23467849.850    -1899288.42449  -1460068.23046  23467848.497    23467858.088
       217.000         165.000
  20402180.471    -1054768.17849   -807210.19048  20402181.104    20402186.333
       247.000         214.000
  20708747.701    -1089592.15249   -836927.19147  20708746.713    20708753.729
       242.000         209.000
  22179791.523    -2750124.42249  -2125602.60646  22179791.370    22179797.388
       228.000         184.000
 03  4 28 17 29  0.0000000  0  7G24G21G 5G17G30G10G 6
  22997289.478     2044693.88249   1590782.43446  22997290.477    22997296.664
       227.000         172.000
  24107851.294    -3301156.36749  -2544009.69545  24107849.243    24107856.804
       210.000         147.000
  21003249.428     1204521.09249    984551.54247  21003249.003    21003256.286
       242.000         207.000
  23454413.687    -1969895.30249  -1515086.53546  23454412.968    23454421.116
       219.000         166.000
  20401456.889    -1058571.16649   -810173.60048  20401457.495    20401462.687
       247.000         215.000
  20707850.014    -1094309.34249   -840602.91947  20707849.194    20707855.998
       243.000         209.000
  22167435.600    -2815054.80249  -2176197.70846  22167435.604    22167442.243
       229.000         184.000
 03  4 28 17 29 30.0000000  0  7G24G21G 5G17G30G10G 6
  23012216.191     2123132.80549   1651903.62846  23012216.304    23012224.821
       224.000         172.000
  24092683.347    -3380863.06749  -2606118.75845  24092683.672    24092689.215
       213.000         147.000
  21014929.660     1265901.01849   1032379.97447  21014929.427    21014936.462
       242.000         207.000
  23441016.618    -2040297.89549  -1569945.65146  23441016.172    23441025.336
       221.000         166.000
  20400845.839    -1061782.75549   -812676.17948  20400846.278    20400851.856
       246.000         215.000
  20707073.348    -1098390.86049   -843783.31247  20707072.372    20707079.530
       242.000         209.000
  22155093.604    -2879912.62049  -2226736.25446  22155093.868    22155100.402
       230.000         185.000
 03  4 28 17 30  0.0000000  0  7G24G21G 5G17G30G10G 6
  23027148.136     2201601.32249   1713047.84146  23027147.408    23027156.165
       224.000         171.000
  24077548.255    -3460398.27849  -2668094.18745  24077547.181    24077554.494
       214.000         148.000
  21026696.808     1327736.84449   1080563.65647  21026696.431    21026703.535
       243.000         207.000
  23427658.214    -2110496.75949  -1624646.02846  23427656.941    23427666.205
       220.000         166.000
  20400347.202    -1064403.02849   -814717.97448  20400347.273    20400353.309
       245.000         214.000
  20706417.549    -1101837.05849   -846468.65847  20706416.816    20706423.755
       244.000         210.000
  22142765.559    -2944697.09949  -2277217.66446  22142765.173    22142772.009
       230.000         185.000
 03  4 28 17 30 30.0000000  0  7G24G21G 5G17G30G10G 6
  23042086.266     2280101.44749   1774216.70046  23042086.066    23042094.305
       225.000         172.000
  24062446.418    -3539758.32749  -2729933.14345  24062444.746    24062453.630
       213.000         147.000
  21038550.894     1390030.20649   1129103.86747  21038550.644    21038557.613
       242.000         207.000
  23414339.072    -2180488.46549  -1679184.99346  23414338.181    23414347.129
       219.000         166.000
  20399961.726    -1066428.41949   -816296.22748  20399962.310    20399968.032
       246.000         215.000
  20705883.251    -1104644.55549   -848656.31647  20705882.856    20705889.775
       243.000         211.000
  22130452.231    -3009403.80849  -2327638.48746  22130451.737    22130458.617
       230.000         185.000
 03  4 28 17 31  0.0000000  0  7G24G21G 5G17G30G10G 6
  23057029.873     2358629.95949   1835407.67146  23057029.730    23057037.648
       226.000         172.000
  24047377.574    -3618944.81449  -2791636.88745  24047376.158    24047383.313
       211.000         146.000
  21050491.315     1452776.91649   1177997.33047  21050490.808    21050497.591
       243.000         207.000
  23401059.204    -2250274.85249  -1733563.94946  23401058.215    23401066.887
       220.000         166.000
  20399689.201    -1067860.90349   -817412.48248  20399689.709    20399695.087
       247.000         215.000
  20705470.253    -1106815.30749   -850347.80347  20705469.562    20705476.558
       243.000         210.000
  22118153.531    -3074033.86849  -2377999.56546  22118153.201    22118160.224
       230.000         186.000
 03  4 28 17 31 30.0000000  0  7G24G21G 5G17G30G10G 6
  23071979.192     2437188.63849   1896622.17546  23071979.031    23071985.670
       226.000         171.000
  24032342.599    -3697954.00149  -2853202.44845  24032341.356    24032349.066
       212.000         147.000
  21062518.182     1515978.35149   1227245.12147  21062517.642    21062524.512
       241.000         206.000
  23387818.904    -2319852.28349  -1787780.08046  23387817.851    23387827.441
       219.000         166.000
  20399530.260    -1068696.84349   -818063.91348  20399530.759    20399536.050
       247.000         215.000
  20705178.923    -1108346.20449   -851540.71347  20705177.924    20705185.030
       242.000         209.000
  22105870.308    -3138583.01349  -2428297.59846  22105869.715    22105876.912
       230.000         187.000
 03  4 28 17 32  0.0000000  0  7G24G21G 5G17G30G10G 6
  23086933.466     2515773.05349   1957856.72746  23086932.529    23086940.763
       224.000         171.000
  24017340.892    -3776788.90749  -2914632.18745  24017341.211    24017347.151
       211.000         146.000
  21074630.566     1579629.50649   1276843.36447  21074630.247    21074637.558
       242.000         206.000
  23374617.914    -2389223.64849  -1841835.67146  23374617.569    23374625.713
       219.000         165.000
  20399484.173    -1068939.08549   -818252.71248  20399484.501    20399490.224
       245.000         214.000
  20705008.705    -1109240.24449   -852237.36947  20705007.701    20705015.027
       242.000         209.000
  22093602.061    -3203053.24149  -2478534.14246  22093601.878    22093608.090
       230.000         186.000
 03  4 28 17 32 30.0000000  0  7G24G21G 5G17G30G10G 6
  23101892.370     2594382.93149   2019111.08246  23101892.113    23101901.133
       223.000         170.000
  24002372.681    -3855447.95649  -2975924.90345  24002372.004    24002379.227
       212.000         147.000
  21086828.454     1643729.46149   1326791.30747  21086828.233    21086835.324
       241.000         206.000
  23361456.355    -2458387.97049  -1895729.91446  23361456.260    23361465.156
       221.000         165.000
  20399551.189    -1068586.70249   -817978.17048  20399551.804    20399557.732
       246.000         214.000
  20704959.912    -1109496.56749   -852437.10047  20704959.465    20704966.202
       243.000         210.000
  22081349.184    -3267442.66249  -2528707.72146  22081348.910    22081355.908
       231.000         187.000
 03  4 28 17 33  0.0000000  0  7G24G21G 5G17G30G10G 6
  23116855.856     2673016.38349   2080383.82446  23116855.984    23116864.054
       225.000         171.000
  23987437.933    -3933931.07349  -3037080.52745  23987437.573    23987444.551
       216.000         150.000
  21099111.189     1708275.72949   1377087.02847  21099110.850    21099118.019
       241.000         205.000
  23348334.268    -2527345.59349  -1949463.09246  23348333.865    23348342.200
       220.000         166.000
  20399731.525    -1067639.56249   -817240.17348  20399732.219    20399737.614
       246.000         215.000
  20705032.517    -1109115.61549   -852140.25347  20705031.805    20705039.019
       243.000         211.000
  22069111.893    -3331750.33149  -2578817.58746  22069111.742    22069118.149
       230.000         187.000
 03  4 28 17 33 30.0000000  0  7G24G21G 5G17G30G10G 6
  23131823.567     2751671.15449   2141673.18946  23131823.452    23131831.425
       225.000         173.000
  23972536.447    -4012239.29049  -3098099.86845  23972534.710    23972543.084
       214.000         152.000
  21111478.289     1773265.04849   1427727.97747  21111478.038    21111485.345
       242.000         205.000
  23335251.261    -2596097.19249  -2003035.74746  23335250.772    23335259.657
       219.000         166.000
  20400024.748    -1066099.02549   -816039.79348  20400024.997    20400030.910
       245.000         215.000
  20705226.081    -1108098.64149   -851347.81347  20705224.991    20705232.441
       242.000         210.000
  22056890.061    -3395976.54949  -2628863.98447  22056889.263    22056897.041
       230.000         188.000
 03  4 28 17 34  0.0000000  0  7G24G21G 5G17G30G10G 6
  23146795.009     2830346.52849   2202978.59646  23146795.507    23146803.743
       225.000         172.000
  23957668.354    -4090371.47349  -3158982.06745  23957668.062    23957675.754
       217.000         153.000
  21123929.515     1838696.21149   1478713.22647  21123929.198    21123936.506
       240.000         205.000
  23322207.511    -2664641.67549  -2056446.98446  23322205.873    23322215.611
       220.000         166.000
  20400431.012    -1063963.97349   -814376.15748  20400431.455    20400436.975
       246.000         215.000
  20705540.674    -1106444.90549   -850059.20947  20705540.043    20705547.152
       242.000         209.000
  22044684.059    -3460119.27149  -2678845.32747  22044683.813    22044690.230
       231.000         189.000
 03  4 28 17 34 30.0000000  0  7G24G21G 5G17G30G10G 6
  23161770.067     2909040.87949   2264298.81346  23161769.391    23161777.988
       224.000         170.000
  23942834.054    -4168327.29749  -3219726.80645  23942833.251    23942839.682
       215.000         151.000
  21136464.327     1904567.06049   1530041.09647  21136463.701    21136471.223
       240.000         204.000
  23309203.339    -2732979.27049  -2109697.01346  23309203.094    23309211.636
       220.000         167.000
  20400950.477    -1061234.51049   -812249.34348  20400950.996    20400956.593
       247.000         215.000
  20705976.477    -1104154.86249   -848274.76147  20705975.911    20705982.878
       243.000         210.000
  22032494.334    -3524177.53349  -2728760.85847  22032493.832    22032499.558
       231.000         188.000
 03  4 28 17 35  0.0000000  0  7G24G21G 5G17G30G10G 6
  23176748.573     2987753.57349   2325633.30546  23176748.701    23176757.018
       223.000         167.000
  23928033.089    -4246106.24249  -3280333.73445  23928031.808    23928040.749
       213.000         149.000
  21149082.634     1970875.87749   1581710.21647  21149082.835    21149089.555
       242.000         204.000
  23296238.490    -2801109.94249  -2162785.83746  23296238.090    23296247.172
       221.000         168.000
  20401583.165    -1057910.52849   -809659.27648  20401583.558    20401589.417
       245.000         214.000
  20706533.364    -1101228.81349   -845994.72747  20706532.806    20706539.525
       244.000         211.000
  22020320.736    -3588149.90449  -2778609.44947  22020320.190    22020327.354
       231.000         189.000
 03  4 28 17 35 30.0000000  0  7G24G21G 5G17G30G10G 6
  23191730.374     3066482.92249   2386980.77846  23191730.769    23191738.561
       226.000         170.000
  23913265.837    -4323708.26349  -3340802.79345  23913266.220    23913273.497
       216.000         152.000
  21161783.902     2037620.43949   1633718.89647  21161783.302    21161791.073
       239.000         204.000
  23283313.203    -2869033.08049  -2215712.92146  23283312.688    23283321.185
       220.000         169.000
  20402328.872    -1053992.06549   -806605.96648  20402329.111    20402334.784
       245.000         214.000
  20707211.228    -1097667.06849   -843219.35447  20707210.486    20707217.576
       242.000         210.000
  22008163.738    -3652035.58049  -2828390.49047  22008163.545    22008170.710
       232.000         190.000
 03  4 28 17 36  0.0000000  0  7G24G21G 5G17G30G10G 6
  23206714.886     3145225.92649   2448338.88746  23206715.385    23206723.864
       226.000         172.000
  23898532.181    -4401134.68149  -3401135.02245  23898532.200    23898538.378
       218.000         154.000
  21174567.123     2104796.93549   1686064.14847  21174566.603    21174574.226
       241.000         204.000
  23270426.907    -2936750.52549  -2268479.72846  23270425.929    23270435.271
       220.000         168.000
  20403187.300    -1049480.86249   -803090.78148  20403187.657    20403193.525
       246.000         215.000
  20708009.601    -1093471.45949   -839950.07047  20708008.624    20708015.908
       241.000         210.000
  21996023.171    -3715835.04849  -2878104.36547  21996022.520    21996029.591
       232.000         190.000
 03  4 28 17 36 30.0000000  0  7G24G21G 5G17G30G10G 6
  23221701.803     3223982.58849   2509707.63246  23221701.680    23221709.542
       225.000         173.000
  23883832.187    -4478383.93849  -3461329.17845  23883831.488    23883839.341
       218.000         156.000
  21187432.493     2172404.27249   1738745.10447  21187432.406    21187439.330
       241.000         204.000
  23257580.132    -3004260.81149  -2321085.11046  23257580.032    23257589.040
       222.000         168.000
  20404158.798    -1044375.76149   -799112.83048  20404159.284    20404164.885
       247.000         215.000
  20708928.775    -1088641.09049   -836186.16247  20708928.237    20708935.093
       243.000         210.000
  21983899.364    -3779545.83449  -2927749.13047  21983899.093    21983905.315
       233.000         190.000
 03  4 28 17 37  0.0000000  0  7G24G21G 5G17G30G10G 6
  23236691.164     3302751.96849   2571086.30346  23236690.434    23236699.671
       223.000         170.000
  23869166.004    -4555455.15649  -3521384.65345  23869165.311    23869173.200
       218.000         157.000
  21200379.535     2240440.88649   1791760.56047  21200379.303    21200386.468
       241.000         204.000
  23244773.080    -3071563.20049  -2373528.50346  23244772.959    23244781.641
       223.000         171.000
  20405243.512    -1038676.51249   -794671.90048  20405244.024    20405249.448
       246.000         215.000
  20709968.751    -1083175.99349   -831927.65847  20709968.217    20709975.109
       243.000         211.000
  21971792.796    -3843166.46949  -2977323.64347  21971792.545    21971799.237
       233.000         191.000
 03  4 28 17 37 30.0000000  0  7G24G21G 5G17G30G10G 6
  23251682.755     3381533.24349   2632474.21746  23251682.515    23251690.867
       222.000         168.000
  23854533.785    -4632348.14749  -3581301.21945  23854532.950    23854540.418
       218.000         157.000
  21213407.833     2308904.88549   1845109.05647  21213407.504    21213414.892
       240.000         203.000
  23232005.388    -3138657.87749  -2425810.04846  23232004.498    23232013.588
       222.000         171.000
  20406441.290    -1032382.76549   -789767.71948  20406441.634    20406447.258
       245.000         214.000
  20711129.611    -1077076.03949   -827174.45747  20711128.954    20711135.920
       242.000         210.000
  21959703.673    -3906695.57749  -3026826.84347  21959703.144    21959709.968
       233.000         191.000
 03  4 28 17 38  0.0000000  0  7G24G21G 5G17G30G10G 6
  23266676.310     3460324.46049   2693869.92046  23266676.725    23266684.836
       226.000         168.000
  23839935.270    -4709063.16649  -3641079.09345  23839933.957    23839942.123
       214.000         155.000
  21226516.984     2377793.38949   1898788.33447  21226516.948    21226524.116
       241.000         204.000
  23219277.103    -3205545.36249  -2477930.13246  23219277.019    23219285.381
       223.000         170.000
  20407751.867    -1025495.30849   -784400.91448  20407752.387    20407757.909
       246.000         214.000
  20712410.899    -1070342.89049   -821927.87347  20712410.237    20712417.269
       242.000         210.000
  21947631.914    -3970132.78049  -3076258.43447  21947631.461    21947638.448
       233.000         191.000
 03  4 28 17 38 30.0000000  0  7G24G21G 5G17G30G10G 6
  23281671.928     3539125.66649   2755273.39046  23281671.564    23281680.523
       224.000         170.000
  23825370.782    -4785598.77649  -3700717.19645  23825370.339    23825377.284
       217.000         153.000
  21239706.827     2447105.53749   1952797.70847  21239706.407    21239713.110
       241.000         203.000
  23206588.630    -3272223.92549  -2529887.41946  23206587.943    23206596.893
       224.000         170.000
  20409175.694    -1018013.20949   -778570.75548  20409175.892    20409181.794
       246.000         215.000
  20713812.931    -1062975.58149   -816187.11947  20713812.246    20713819.192
       243.000         210.000
  21935578.032    -4033475.77049  -3125616.60547  21935577.706    21935584.746
       233.000         191.000
 03  4 28 17 39  0.0000000  0  7G24G21G 5G17G30G10G 6
  23296668.697     3617934.12749   2816682.49046  23296669.371    23296677.677
       225.000         172.000
  23810840.694    -4861956.14849  -3760216.41545  23810840.598    23810847.029
       222.000         157.000
  21252976.430     2516837.95449   2007134.56547  21252975.611    21252983.239
       239.000         202.000
  23193939.652    -3338694.76249  -2581682.84946  23193938.201    23193947.644
       223.000         171.000
  20410712.444    -1009937.92449   -772278.37248  20410712.688    20410718.480
       246.000         215.000
  20715335.315    -1054975.55949   -809953.35347  20715334.652    20715341.677
       244.000         211.000
  21923542.290    -4096724.44749  -3174901.27947  21923542.058    21923548.514
       234.000         192.000
 03  4 28 17 39 30.0000000  0  7G24G21G 5G17G30G10G 6
  23311666.896     3696749.30549   2878096.82246  23311666.489    23311675.981
       221.000         171.000
  23796344.721    -4938134.06549  -3819575.78745  23796344.164    23796350.285
       220.000         157.000
  21266325.771     2586989.05849   2061797.68947  21266325.579    21266333.179
       240.000         202.000
  23181330.169    -3404957.49749  -2633316.12946  23181329.500    23181338.172
       224.000         171.000
  20412362.169    -1001268.97749   -765523.39248  20412362.446    20412368.188
       246.000         214.000
  20716978.123    -1046342.88749   -803226.61447  20716977.155    20716984.309
       242.000         211.000
  21911524.792    -4159877.18649  -3224111.21347  21911524.517    21911531.140
       234.000         192.000
 03  4 28 17 40  0.0000000  0  7G24G21G 5G17G30G10G 6
  23326666.064     3775571.37149   2939516.51746  23326666.275    23326674.222
       220.000         168.000
  23781882.870    -5014131.44249  -3878794.49945  23781881.786    23781889.226
       218.000         157.000
  21279754.671     2657557.58949   2116786.07047  21279754.542    21279761.672
       240.000         203.000
  23168760.724    -3471010.85149  -2684786.24246  23168759.981    23168767.876
       224.000         170.000
  20414124.958     -992005.54749   -758305.17248  20414125.495    20414130.810
       246.000         215.000
  20718741.332    -1037076.96549   -796006.44547  20718740.325    20718747.529
       243.000         210.000
  21899525.839    -4222931.74049  -3273244.63147  21899525.444    21899532.028
       234.000         192.000
 03  4 28 17 40 30.0000000  0  7G24G21G 5G17G30G10G 6
  23341666.200     3854397.53149   3000939.42846  23341666.331    23341674.603
       224.000         168.000
  23767455.355    -5089949.21149  -3937873.23745  23767455.713    23767462.573
       219.000         158.000
  21293262.232     2728539.95249   2172096.90647  21293261.632    21293269.008
       239.000         201.000
  23156230.692    -3536856.50049  -2736094.52046  23156230.245    23156238.843
       223.000         171.000
  20416000.534     -982149.30049   -750625.02848  20416000.877    20416006.574
       246.000         214.000
  20720624.752    -1027179.55149   -788294.18347  20720624.130    20720631.123
       243.000         210.000
  21887545.672    -4285888.28149  -3322301.68047  21887545.558    21887552.110
       234.000         192.000
 03  4 28 17 41  0.0000000  0  7G24G21G 5G17G30G10G 6
  23356667.204     3933226.96049   3062364.89646  23356667.915    23356674.385
       223.000         167.000
  23753062.110    -5165586.71649  -3996811.50245  23753060.189    23753068.153
       215.000         156.000
  21306848.147     2799934.57249   2227728.99647  21306848.016    21306855.716
       240.000         201.000
  23143740.323    -3602494.02349  -2787240.62246  23143739.572    23143747.845
       224.000         172.000
  20417989.005     -971699.99149   -742482.76348  20417989.430    20417995.299
       247.000         214.000
  20722628.341    -1016651.11349   -780090.21647  20722627.793    20722634.596
       244.000         211.000
  21875584.404    -4348745.06249  -3371280.98847  21875584.228    21875590.857
       235.000         192.000
 03  4 28 17 41 30.0000000  0  7G24G21G 5G17G30G10G 6
  23371668.640     4012059.18349   3123792.54446  23371668.511    23371677.464
       221.000         167.000
  23738703.049    -5241043.12149  -4055608.64745  23738702.198    23738707.885
       219.000         156.000
  21320512.397     2871739.69749   2283680.94247  21320512.496    21320519.742
       239.000         202.000
  23131289.805    -3667922.21349  -2838223.61846  23131289.671    23131297.136
       224.000         172.000
  20420090.474     -960657.24949   -733878.07548  20420090.855    20420096.835
       246.000         215.000
  20724752.054    -1005491.36149   -771394.30947  20724751.163    20724758.096
       243.000         210.000
  21863642.541    -4411500.25349  -3420181.13747  21863642.565    21863649.000
       234.000         192.000
 03  4 28 17 42  0.0000000  0  7G24G21G 5G17G30G10G 6
  23386670.166     4090892.51249   3185221.01246  23386669.616    23386678.632
       217.000         167.000
  23724378.621    -5316318.95549  -4114265.09845  23724377.875    23724383.723
       220.000         157.000
  21334254.227     2943952.68649   2339950.70347  21334253.304    21334260.921
       238.000         200.000
  23118878.998    -3733141.99949  -2889044.20646  23118878.084    23118886.157
       226.000         173.000
  20422304.638     -949021.94149   -724811.64448  20422304.913    20422310.873
       246.000         215.000
  20726995.612     -993701.46649   -762207.39147  20726994.690    20727001.900
       242.000         210.000
  21851720.227    -4474153.00349  -3469001.47047  21851720.029    21851726.390
       234.000         193.000
 03  4 28 17 42 30.0000000  0  7G24G21G 5G17G30G10G 6
  23401671.687     4169726.49949   3246649.99446  23401670.870    23401680.065
       217.000         166.000
  23710088.581    -5391412.92249  -4172779.86945  23710088.118    23710095.054
       219.000         157.000
  21348073.181     3016571.89049   2396537.01247  21348073.107    21348080.649
       240.000         200.000
  23106508.097    -3798152.15649  -2939701.42846  23106506.458    23106515.529
       226.000         173.000
  20424631.662     -936793.70949   -715283.18948  20424631.932    20424637.813
       246.000         215.000
  20729359.012     -981281.45849   -752529.48047  20729358.134    20729365.228
       242.000         209.000
  21839817.675    -4536701.32949  -3517740.42847  21839817.429    21839823.613
       235.000         193.000
 03  4 28 17 43  0.0000000  0  7G24G21G 5G17G30G10G 6
  23416673.151     4248559.84949   3308078.49646  23416672.545    23416682.239
       219.000         165.000
  23695833.258    -5466325.01649  -4231152.88645  23695832.626    23695838.172
       218.000         157.000
  21361969.216     3089594.84349   2453437.91547  21361969.117    21361976.958
       240.000         202.000
  23094176.886    -3862952.69449  -2990195.35246  23094175.485    23094184.253
       223.000         174.000
  20427071.390     -923973.15849   -705293.20348  20427072.122    20427077.393
       248.000         215.000
  20731842.239     -968232.21549   -742361.24547  20731841.435    20731848.415
       244.000         210.000
  21827935.134    -4599144.27549  -3566397.26147  21827934.915    21827941.143
       236.000         193.000
 03  4 28 17 43 30.0000000  0  7G24G21G 5G17G30G10G 6
  23431674.436     4327391.29749   3369505.52246  23431674.249    23431683.570
       220.000         163.000
  23681612.316    -5541055.53449  -4289384.37845  23681611.791    23681618.791
       215.000         156.000
  21375941.409     3163018.87549   2510651.35547  21375940.284    21375947.828
       237.000         200.000
  23081885.314    -3927544.57149  -3040526.66546  23081884.954    23081893.212
       226.000         174.000
  20429623.742     -910560.98049   -694842.21848  20429624.136    20429629.811
       246.000         215.000
  20734444.989     -954554.81549   -731703.53647  20734444.293    20734450.965
       244.000         210.000
  21816072.922    -4661480.96249  -3614971.30747  21816072.997    21816078.727
       236.000         194.000
 03  4 28 17 44  0.0000000  0  7G24G21G 5G17G30G10G 6
  23446675.260     4406220.15949   3430930.57445  23446675.804    23446682.084
       221.000         162.000
  23667425.990    -5615603.60249  -4347473.73445  23667425.282    23667433.126
       215.000         156.000
  21389989.531     3236842.68649   2568176.29847  21389989.159    21389996.150
       240.000         199.000
  23069633.742    -3991926.80649  -3090694.62246  23069633.155    23069641.841
       225.000         175.000
  20432288.711     -896556.68949   -683929.82148  20432288.631    20432294.972
       245.000         214.000
  20737167.280     -940249.06849   -720556.20947  20737166.229    20737173.410
       243.000         210.000
  21804231.271    -4723709.24949  -3663460.88247  21804230.685    21804237.414
       235.000         194.000
 03  4 28 17 44 30.0000000  0  7G24G21G 5G17G30G10G 6
  23461675.073     4485043.76249   3492351.48445  23461673.731    23461683.098
       215.000         161.000
  23653274.279    -5689970.40649  -4405421.85645  23653274.059    23653280.859
       220.000         158.000
  21404113.241     3311062.12449   2626009.52147  21404113.461    21404120.976
       240.000         201.000
  23057421.910    -4056100.83949  -3140700.34246  23057421.649    23057429.093
       224.000         175.000
  20435065.843     -881962.52549   -672557.78048  20435066.238    20435072.146
       247.000         214.000
  20740008.640     -925317.50249   -708921.23747  20740007.991    20740014.832
       242.000         209.000
  21792410.127    -4785829.63749  -3711866.38347  21792409.959    21792416.333
       235.000         193.000
 03  4 28 17 45  0.0000000  0  7G24G21G 5G17G30G10G 6
  23476673.484     4563862.11649   3553768.27145  23476673.517    23476681.949
       215.000         160.000
  23639157.535    -5764154.87549  -4463227.87345  23639157.042    23639163.730
       219.000         158.000
  21418311.883     3385675.69549   2684149.88947  21418310.732    21418319.097
       237.000         200.000
  23045249.717    -4120066.07149  -3190543.35346  23045249.386    23045258.112
       224.000         175.000
  20437955.505     -866778.00549   -660725.74748  20437956.147    20437961.560
       248.000         215.000
  20742969.206     -909760.00949   -696798.52447  20742968.562    20742975.693
       243.000         210.000
  21780609.922    -4847839.98449  -3760186.13547  21780609.708    21780615.926
       236.000         193.000
 03  4 28 17 45 30.0000000  0  7G24G21G 5G17G30G10G 6
  23491671.159     4642675.37149   3615181.11945  23491671.025    23491680.234
       218.000         162.000
  23625075.622    -5838155.53449  -4520890.67345  23625074.981    23625081.572
       217.000         157.000
  21432585.139     3460682.50049   2742596.65047  21432585.560    21432591.705
       240.000         199.000
  23033117.486    -4183821.01849  -3240222.52646  23033116.185    23033125.695
       223.000         175.000
  20440957.651     -851002.36349   -648433.08848  20440957.789    20440963.504
       245.000         214.000
  20746048.994     -893576.09749   -684187.69147  20746048.000    20746055.171
       243.000         210.000
  21768831.310    -4909737.70549  -3808418.12947  21768830.862    21768837.319
       236.000         194.000
 03  4 28 17 46  0.0000000  0  7G24G21G 5G17G30G10G 6
  23506667.520     4721481.23149   3676588.19046  23506667.783    23506676.804
       219.000         163.000
  23611028.363    -5911973.60249  -4578411.23345  23611027.426    23611035.411
       218.000         157.000
  21446932.876     3536078.71949   2801346.84947  21446932.458    21446939.530
       240.000         199.000
  23021024.953    -4247367.25749  -3289739.06246  23021024.267    23021032.768
       224.000         175.000
  20444071.698     -834637.63849   -635681.39448  20444071.644    20444077.760
       245.000         213.000
  20749247.375     -876768.09249   -671090.55947  20749246.546    20749253.383
       243.000         210.000
  21757073.849    -4971522.98749  -3856562.50547  21757073.152    21757080.295
       235.000         194.000
 03  4 28 17 46 30.0000000  0  7G24G21G 5G17G30G10G 6
  23521662.345     4800278.52649   3737988.61546  23521662.862    23521670.517
       222.000         163.000
  23597016.082    -5985608.72649  -4635789.18645  23597014.317    23597022.026
       217.000         157.000
  21461354.092     3611862.40549   2860398.98247  21461353.314    21461361.092
       237.000         199.000
  23008972.379    -4310704.25449  -3339092.53946  23008971.860    23008979.633
       225.000         175.000
  20447297.889     -817684.01949   -622470.82648  20447298.310    20447304.021
       247.000         214.000
  20752564.505     -859336.57949   -657507.56947  20752563.869    20752570.737
       244.000         210.000
  21745338.262    -5033194.08049  -3904617.90647  21745338.525    21745343.779
       237.000         194.000
 03  4 28 17 47  0.0000000  0  7G24G21G 5G17G30G10G 6
  23536655.253     4879065.96349   3799381.35345  23536654.793    23536663.647
       217.000         160.000
  23583038.345    -6059061.33949  -4693024.91045  23583037.243    23583043.960
       216.000         156.000
  21475848.491     3688030.74949   2919750.84147  21475848.100    21475855.951
       239.000         199.000
  22996959.531    -4373832.50449  -3388283.36446  22996957.977    22996967.817
       223.000         174.000
  20450636.043     -800142.43349   -608802.10848  20450636.169    20450642.165
       246.000         215.000
  20756000.083     -841282.80449   -643439.69747  20755999.431    20756006.233
       244.000         210.000
  21733624.638    -5094750.11149  -3952583.65247  21733624.135    21733630.666
       235.000         194.000
 03  4 28 17 47 30.0000000  0  7G24G21G 5G17G30G10G 6
  23551646.159     4957844.30749   3860766.97845  23551645.855    23551654.194
       216.000         157.000
  23569095.588    -6132329.14549  -4750116.66545  23569094.795    23569102.476
       217.000         157.000
  21490416.068     3764583.24349   2979402.03647  21490415.495    21490423.464
       237.000         199.000
  22984986.638    -4436749.96549  -3437309.95746  22984986.185    22984994.775
       225.000         175.000
  20454086.213     -782011.71349   -594674.32048  20454086.391    20454092.306
       246.000         214.000
  20759554.263     -822605.79849   -628886.20047  20759553.500    20759560.540
       244.000         210.000
  21721933.366    -5156187.83949  -4000457.20547  21721933.279    21721940.468
       237.000         195.000
 03  4 28 17 48  0.0000000  0  7G24G21G 5G17G30G10G 6
  23566634.983     5036611.26949   3922143.74045  23566635.028    23566643.686
       219.000         158.000
  23555188.223    -6205413.31749  -4807065.32845  23555188.322    23555196.000
       220.000         161.000
  21505055.799     3841516.03349   3039349.56647  21505055.410    21505062.792
       238.000         198.000
  22973053.736    -4499458.32449  -3486173.59646  22973053.516    22973061.198
       227.000         176.000
  20457648.189     -763293.83549   -580089.01448  20457648.585    20457654.277
       249.000         213.000
  20763226.498     -803308.28449   -613849.19047  20763225.448    20763232.614
       242.000         210.000
  21710264.699    -5217507.60449  -4048238.84547  21710264.996    21710271.331
       237.000         196.000
 03  4 28 17 48 30.0000000  0  7G24G21G 5G17G30G10G 6
  23581621.635     5115365.33049   3983510.45046  23581622.403    23581630.132
       221.000         163.000
  23541315.897    -6278313.81849  -4863870.88045  23541314.737    23541322.931
       218.000         161.000
  21519767.713     3918826.56849   3099591.42247  21519767.575    21519774.869
       238.000         198.000
  22961160.474    -4561957.92049  -3534874.56246  22961159.820    22961167.992
       224.000         176.000
  20461321.687     -743989.73749   -565046.91548  20461321.732    20461327.800
       248.000         214.000
  20767016.582     -783391.13149   -598329.36047  20767015.814    20767022.703
       242.000         210.000
  21698618.612    -5278708.16649  -4095927.60047  21698617.909    21698624.691
       236.000         196.000
 03  4 28 17 49  0.0000000  0  7G24G21G 5G17G30G10G 6
  23596605.503     5194104.86049   4044865.84446  23596605.970    23596614.958
       221.000         165.000
  23527478.155    -6351031.48749  -4920533.96345  23527477.097    23527484.480
       215.000         157.000
  21534550.789     3996511.75049   3160125.23847  21534549.921    21534559.036
       237.000         198.000
  22949306.695    -4624249.41949  -3583413.36746  22949305.337    22949314.484
       224.000         175.000
  20465106.423     -724100.83049   -549549.11048  20465106.222    20465112.648
       247.000         214.000
  20770924.329     -762856.20649   -582328.14047  20770923.429    20770930.359
       243.000         210.000
  21686995.173    -5339788.96549  -4143523.02747  21686994.866    21687001.508
       237.000         196.000
 03  4 28 17 49 30.0000000  0  8G24G21G29G 5G17G30G10G 6
  23611586.156     5272828.30949   4106208.69245  23611585.250    23611595.158
       218.000         162.000
  23513675.112    -6423566.60249  -4977054.76645  23513674.712    23513682.429
       220.000         157.000
  24605525.136    -7324549.91559  -5366613.10345  24605523.640    24605540.530
       204.000         132.000
  21549404.697     4074568.86849   3220948.87847  21549404.967    21549411.968
       239.000         198.000
  22937492.424    -4686333.33749  -3631790.43246  22937492.015    22937500.603
       225.000         175.000
  20469002.235     -703627.98149   -533596.29248  20469002.714    20469008.298
       248.000         214.000
  20774949.333     -741704.73449   -565846.48547  20774948.652    20774955.493
       244.000         210.000
  21675395.039    -5400748.73949  -4191024.15547  21675395.266    21675401.223
       237.000         196.000
 03  4 28 17 50  0.0000000  0  8G24G21G29G 5G17G30G10G 6
  23626562.686     5351531.02249   4167535.37145  23626562.341    23626570.801
       213.000         158.000
  23499906.212    -6495923.16749  -5033436.45445  23499905.544    23499913.940
       223.000         161.000
  24591981.737    -7395721.46449  -5422071.22045  24591982.495    24591991.941
       210.000         132.000
  21564328.251     4152991.38149   3282057.21547  21564327.437    21564334.266
       238.000         196.000
  22925716.970    -4748213.74349  -3680008.90746  22925716.886    22925724.792
       225.000         177.000
  20473008.368     -682576.06449   -517192.25448  20473008.541    20473014.300
       247.000         213.000
  20779090.697     -719941.71649   -548888.29747  20779089.865    20779096.856
       244.000         210.000
  21663817.454    -5461590.15249  -4238433.04947  21663817.341    21663823.308
       237.000         196.000
 03  4 28 17 50 30.0000000  0  8G24G21G29G 5G17G30G10G 6
  23641536.920     5430221.23949   4228852.30845  23641536.795    23641544.814
       215.000         156.000
  23486172.903    -6568091.75249  -5089671.68846  23486173.041    23486179.589
       221.000         164.000
  24578442.621    -7466870.49949  -5477511.75044  24578440.150    24578457.191
       202.000         130.000
  21579322.401     4231786.19549   3343455.66747  21579321.796    21579330.687
       237.000         196.000
  22913982.077    -4809881.11649  -3728061.38746  22913980.671    22913990.006
       225.000         177.000
  20477126.258     -660936.42449   -500330.25048  20477126.580    20477132.398
       247.000         213.000
  20783349.987     -697559.12349   -531447.33047  20783349.317    20783356.295
       244.000         210.000
  21652264.199    -5522302.56449  -4285741.42847  21652263.610    21652270.130
       237.000         197.000
 03  4 28 17 51  0.0000000  0  8G24G21G29G 5G17G30G10G 6
  23656508.556     5508897.12449   4290158.12745  23656509.629    23656517.103
       222.000         159.000
  23472475.304    -6640072.75849  -5145760.76146  23472475.583    23472481.875
       222.000         164.000
  24564907.333    -7537995.16849  -5532933.45545  24564909.137    24564919.980
       214.000         133.000
  21594386.700     4310949.73249   3405141.44947  21594386.457    21594394.893
       238.000         198.000
  22902287.390    -4871336.76149  -3775948.86146  22902286.397    22902295.681
       225.000         176.000
  20481355.612     -638710.99549   -483011.78148  20481355.962    20481362.159
       248.000         213.000
  20787726.743     -674559.20949   -513525.33947  20787725.867    20787732.973
       242.000         209.000
  21640735.551    -5582885.88849  -4332949.20947  21640735.151    21640741.412
       237.000         197.000
 03  4 28 17 51 30.0000000  0  8G24G21G29G 5G17G30G10G 6
  23671477.142     5587555.38249   4351450.21345  23671477.157    23671485.711
       222.000         161.000
  23458813.306    -6711867.71749  -5201704.82046  23458812.812    23458819.189
       224.000         163.000
  24551377.821    -7609094.56249  -5588335.28845  24551375.217    24551389.339
       205.000         134.000
  21609520.491     4390477.79849   3467111.25747  21609520.310    21609527.371
       238.000         197.000
  22890632.611    -4932582.55249  -3823672.83946  22890632.175    22890640.928
       225.000         176.000
  20485696.029     -615902.18849   -465238.74048  20485696.417    20485702.659
       247.000         214.000
  20792220.392     -650944.92049   -495124.63047  20792219.456    20792226.474
       241.000         208.000
  21629231.442    -5643340.34649  -4380056.59347  21629231.335    21629237.465
       237.000         197.000
 03  4 28 17 52  0.0000000  0  8G24G21G29G 5G17G30G10G 6
  23686441.747     5666194.74549   4412727.55245  23686441.778    23686450.763
       218.000         162.000
  23445186.783    -6783475.66049  -5257503.16745  23445185.266    23445191.972
       220.000         161.000
  24537852.705    -7680165.95149  -5643715.41845  24537852.688    24537868.576
       212.000         138.000
  21624722.982     4470367.34449   3529362.73547  21624722.306    21624730.018
       237.000         195.000
  22879017.760    -4993619.21849  -3871233.86546  22879017.076    22879025.544
       225.000         177.000
  20490147.072     -592511.66849   -447012.40348  20490147.316    20490153.114
       247.000         213.000
  20796830.657     -626717.88849   -476246.45047  20796829.814    20796836.878
       242.000         208.000
  21617752.070    -5703665.06049  -4427062.85747  21617751.562    21617758.424
       237.000         197.000
 03  4 28 17 52 30.0000000  0  8G24G21G29G 5G17G30G10G 6
  23701402.541     5744814.26549   4473989.39845  23701401.301    23701411.421
       214.000         161.000
  23431594.839    -6854900.90749  -5313159.19145  23431592.916    23431600.965
       222.000         161.000
  24524334.096    -7751207.04449  -5699071.87145  24524333.038    24524346.639
       207.000         138.000
  21639993.750     4550615.71649   3591893.83947  21639993.434    21640001.705
       237.000         195.000
  22867442.667    -5054446.98449  -3918632.10346  22867442.749    22867450.725
       226.000         177.000
  20494708.728     -568540.40749   -428333.55348  20494709.348    20494715.105
       248.000         213.000
  20801557.253     -601879.67649   -456892.03047  20801556.282    20801563.498
       243.000         209.000
  21606297.618    -5763858.76349  -4473967.04547  21606297.272    21606303.952
       237.000         197.000
 03  4 28 17 53  0.0000000  0  8G24G21G29G 5G17G30G10G 6
  23716359.640     5823414.73749   4535236.38445  23716358.936    23716368.598
       214.000         158.000
  23418038.917    -6926138.49049  -5368668.95946  23418039.299    23418044.798
       225.000         163.000
  24510821.760    -7822212.85849  -5754400.83745  24510821.272    24510836.468
       207.000         137.000
  21655332.892     4631222.33249   3654704.07847  21655332.915    21655340.396
       237.000         196.000
  22855907.513    -5115064.36649  -3965866.39946  22855906.585    22855915.355
       224.000         177.000
  20499381.220     -543987.22549   -409201.25748  20499381.883    20499387.479
       248.000         213.000
  20806400.368     -576429.33549   -437060.61647  20806399.339    20806406.459
       243.000         209.000
  21594868.687    -5823918.14449  -4520766.57047  21594868.254    21594875.394
       237.000         197.000
 03  4 28 17 53 30.0000000  0  8G24G21G29G 5G17G30G10G 6
  23731312.723     5901992.81849   4596465.93845  23731312.134    23731321.447
       216.000         158.000
  23404518.130    -6997191.76049  -5424035.10846  23404517.999    23404523.698
       224.000         165.000
  24497316.459    -7893183.19849  -5809702.19445  24497314.752    24497329.870
       207.000         138.000
  21670739.204     4712182.29549   3717789.65347  21670738.470    21670746.291
       235.000         194.000
  22844411.991    -5175473.62349  -4012938.53446  22844411.763    22844419.959
       225.000         177.000
  20504163.722     -518855.61549   -389618.23248  20504164.083    20504169.837
       248.000         213.000
  20811359.224     -550370.57049   -416755.11047  20811358.506    20811365.091
       244.000         209.000
  21583465.117    -5883844.32049  -4567462.29747  21583464.868    21583471.128
       237.000         198.000
 03  4 28 17 54  0.0000000  0  8G24G21G29G 5G17G30G10G 6
  23746261.340     5980547.86149   4657677.57445  23746261.465    23746269.546
       218.000         157.000
  23391032.409    -7068059.56549  -5479256.74846  23391031.596    23391038.762
       222.000         165.000
  24483818.507    -7964114.69149  -5864973.26645  24483818.635    24483829.545
       208.000         137.000
  21686212.049     4793493.21349   3781148.71447  21686211.208    21686219.869
       235.000         193.000
  22832956.158    -5235674.29849  -4059848.15046  22832955.164    22832964.368
       226.000         177.000
  20509056.098     -493146.26249   -369585.01748  20509056.666    20509061.967
       248.000         214.000
  20816433.640     -523704.53949   -395976.40447  20816432.733    20816439.665
       243.000         209.000
  21572087.214    -5943635.68649  -4614052.98147  21572086.845    21572093.142
       237.000         197.000
 03  4 28 17 54 30.0000000  0  8G24G21G29G 5G17G30G10G 6
  23761205.594     6059079.40949   4718870.91645  23761205.400    23761214.315
       219.000         158.000
  23377582.259    -7138740.73449  -5534332.94746  23377581.467    23377588.433
       223.000         165.000
  24470328.564    -8035004.09249  -5920211.52745  24470328.994    24470341.910
       207.000         138.000
  21701751.588     4875153.05349   3844779.64047  21701751.760    21701758.726
       236.000         194.000
  22821540.063    -5295666.35649  -4106595.18446  22821539.637    22821547.930
       226.000         177.000
  20514058.312     -466859.52849   -349101.89748  20514058.463    20514064.426
       248.000         213.000
  20821623.481     -496431.93649   -374725.05347  20821622.651    20821629.848
       243.000         208.000
  21560735.282    -6003290.23949  -4660537.05147  21560734.874    21560741.350
       237.000         198.000
 03  4 28 17 55  0.0000000  0  8G24G21G29G 5G17G30G10G 6
  23776145.242     6137586.90149   4780045.49645  23776145.527    23776153.427
       217.000         157.000
  23364167.310    -7209236.28449  -5589264.49346  23364167.044    23364173.302
       222.000         163.000
  24456847.456    -8105848.12849  -5975414.44345  24456847.057    24456859.418
       207.000         138.000
  21717356.859     4957159.61149   3908680.74047  21717355.897    21717364.638
       233.000         192.000
  22810163.648    -5355449.93349  -4153179.76646  22810163.353    22810170.671
       226.000         177.000
  20519170.234     -439996.22449   -328169.50048  20519170.704    20519176.537
       248.000         213.000
  20826928.521     -468553.98349   -353001.99947  20826927.418    20826934.395
       242.000         207.000
  21549409.786    -6062806.26949  -4706913.18847  21549409.854    21549416.263
       238.000         198.000
 03  4 28 17 55 30.0000000  0  8G24G21G29G 5G17G30G10G 6
  23791079.786     6216069.53949   4841200.70145  23791079.329    23791089.557
       215.000         156.000
  23350787.737    -7279546.34349  -5644051.51446  23350787.426    23350794.526
       224.000         164.000
  24443375.338    -8176643.64449  -6030579.51645  24443375.044    24443388.883
       209.000         140.000
  21733027.633     5039510.78949   3972850.38647  21733027.878    21733036.080
       235.000         193.000
  22798826.947    -5415024.70149  -4199601.63446  22798825.891    22798834.858
       225.000         178.000
  20524391.794     -412557.10149   -306788.41648  20524392.369    20524398.337
       248.000         214.000
  20832348.473     -440071.86149   -330808.15847  20832347.456    20832354.641
       242.000         207.000
  21538111.006    -6122182.24749  -4753180.19347  21538110.586    21538117.377
       237.000         198.000
 03  4 28 17 56  0.0000000  0  8G24G21G29G 5G17G30G10G 6
  23806009.647     6294525.26949   4902334.91445  23806009.383    23806018.797
       214.000         157.000
  23337443.512    -7349670.69449  -5698693.85246  23337442.315    23337449.443
       225.000         166.000
  24429912.938    -8247389.15849  -6085705.69945  24429910.255    24429925.369
       208.000         142.000
  21748763.742     5122202.73049   4037285.54047  21748764.164    21748771.609
       237.000         194.000
  22787529.722    -5474391.60949  -4245861.54846  22787529.322    22787537.480
       227.000         179.000
  20529722.509     -384544.38649   -284960.37548  20529722.859    20529728.842
       248.000         214.000
  20837882.977     -410987.91349   -308145.36047  20837881.955    20837889.147
       243.000         208.000
  21526838.775    -6181417.88649  -4799337.83647  21526838.570    21526845.087
       238.000         198.000
 03  4 28 17 56 30.0000000  0  8G24G21G29G 5G17G30G10G 6
  23820934.139     6372954.16049   4963448.21345  23820934.250    23820943.109
       218.000         159.000
  23324134.650    -7419609.04849  -5753191.26546  23324133.658    23324140.864
       221.000         164.000
  24416460.573    -8318080.99049  -6140790.02045  24416460.546    24416472.662
       207.000         141.000
  21764564.312     5205233.56249   4101984.76547  21764563.256    21764571.059
       234.000         193.000
  22776272.249    -5533550.39149  -4291959.27846  22776271.425    22776279.951
       227.000         179.000
  20535162.320     -355958.26949   -262685.52148  20535162.653    20535168.666
       248.000         214.000
  20843531.835     -381302.58649   -285013.95747  20843531.184    20843538.352
       243.000         208.000
  21515593.827    -6240510.93249  -4845384.37547  21515593.684    21515600.218
       238.000         199.000
 03  4 28 17 57  0.0000000  0  8G24G21G29G 5G17G30G10G 6
  23835853.795     6451355.99949   5024540.44045  23835853.362    23835862.636
       218.000         160.000
  23310860.990    -7489361.26949  -5807543.58945  23310859.957    23310866.673
       221.000         162.000
  24403019.119    -8388715.04849  -6195829.28145  24403017.732    24403032.017
       204.000         140.000
  21780428.582     5288601.89649   4166946.99647  21780428.603    21780437.161
       236.000         192.000
  22765054.485    -5592500.47549  -4337894.36246  22765053.701    22765062.229
       228.000         179.000
  20540711.240     -326799.06649   -239964.11048  20540711.781    20540717.433
       249.000         214.000
  20849295.056     -351016.61449   -261414.51347  20849294.274    20849301.632
       242.000         209.000
  21504376.431    -6299458.90949  -4891317.86347  21504376.140    21504382.369
       238.000         198.000
 03  4 28 17 57 30.0000000  0  8G24G21G29G 5G17G30G10G 6
  23850767.847     6529729.31549   5085610.44345  23850767.737    23850776.402
       218.000         159.000
  23297623.033    -7558927.05049  -5861750.64646  23297622.861    23297629.103
       223.000         164.000
  24389588.664    -8459289.25049  -6250821.97145  24389587.570    24389601.891
       203.000         140.000
  21796356.874     5372304.31549   4232169.53747  21796357.176    21796365.096
       235.000         194.000
  22753876.209    -5651242.66449  -4383667.44046  22753875.550    22753883.840
       227.000         179.000
  20546368.969     -297068.48349   -216797.47848  20546369.285    20546375.005
       248.000         214.000
  20855172.154     -320132.40949   -237348.92247  20855171.675    20855178.483
       242.000         209.000
  21493186.692    -6358261.13949  -4937137.80147  21493186.447    21493192.720
       238.000         199.000
 03  4 28 17 58  0.0000000  0  8G24G21G29G 5G17G30G10G 6
  23865676.349     6608073.69849   5146657.93545  23865676.956    23865685.013
       219.000         158.000
  23284420.909    -7628305.73849  -5915811.93046  23284420.691    23284427.832
       224.000         167.000
  24376170.709    -8529800.65749  -6305765.66645  24376171.228    24376180.410
       201.000         139.000
  21812348.175     5456338.34749   4297650.48147  21812347.596    21812355.408
       235.000         193.000
  22742737.489    -5709776.60549  -4429278.28446  22742737.091    22742744.888
       229.000         180.000
  20552135.151     -266767.49549   -193186.37248  20552135.433    20552141.039
       249.000         213.000
  20861162.925     -288651.13549   -212818.08347  20861162.248    20861169.209
       243.000         208.000
  21482025.092    -6416915.94549  -4982842.85347  21482025.323    21482031.114
       239.000         199.000
 03  4 28 17 58 30.0000000  0  8G24G21G29G 5G17G30G10G 6
  23880579.084     6686387.04849   5207681.22745  23880578.919    23880587.767
       216.000         156.000
  23271253.939    -7697498.75949  -5969728.56546  23271253.416    23271259.805
       224.000         166.000
  24362764.753    -8600247.25749  -6360658.85045  24362762.860    24362776.855
       198.000         136.000
  21828401.774     5540700.44249   4363387.04747  21828401.452    21828409.231
       235.000         191.000
  22731638.228    -5768103.82949  -4474728.05746  22731637.785    22731646.343
       228.000         182.000
  20558009.398     -235898.42449   -169132.60548  20558009.836    20558015.667
       248.000         213.000
  20867266.794     -256575.40949   -187824.02647  20867265.872    20867273.161
       243.000         208.000
  21470891.725    -6475422.88049  -5028432.67947  21470891.241    21470898.320
       238.000         200.000
 03  4 28 17 59  0.0000000  0  8G24G21G29G 5G17G30G10G 6
  23895475.470     6764668.64549   5268679.76145  23895475.247    23895485.025
       213.000         152.000
  23258122.382    -7766506.14549  -6023500.52146  23258121.667    23258127.372
       224.000         164.000
  24349371.961    -8670625.97549  -6415499.22445  24349372.930    24349384.531
       204.000         139.000
  21844517.471     5625388.29349   4429377.44647  21844517.125    21844525.402
       234.000         191.000
  22720578.362    -5826223.77549  -4520016.30746  22720577.841    22720586.586
       225.000         181.000
  20563991.562     -204462.04749   -144636.78048  20563991.685    20563997.938
       247.000         214.000
  20873483.530     -223906.20849   -162367.52347  20873482.669    20873489.567
       242.000         208.000
  21459786.560    -6533780.28149  -5073905.97947  21459786.389    21459792.799
       238.000         200.000
 03  4 28 17 59 30.0000000  0  8G24G21G29G 5G17G30G10G 6
  23910365.920     6842918.45249   5329653.51445  23910366.148    23910374.472
       214.000         152.000
  23245026.071    -7835327.32549  -6077127.38246  23245025.714    23245032.773
       221.000         163.000
  24335993.011    -8740933.15949  -6470283.76445  24335992.053    24336003.302
       198.000         137.000
  21860694.551     5710399.82149   4495620.09147  21860693.837    21860703.045
       232.000         191.000
  22709557.892    -5884136.38849  -4565142.97746  22709557.261    22709564.901
       228.000         179.000
  20570081.503     -172458.84749   -119699.27548  20570081.609    20570087.928
       247.000         213.000
  20879813.126     -190644.44449   -136449.28047  20879812.517    20879819.422
       243.000         208.000
  21448710.424    -6591985.95349  -5119261.05847  21448710.317    21448716.420
       238.000         200.000
 03  4 28 18  0  0.0000000  0  8G24G21G29G 5G17G30G10G 6
  23925250.372     6921135.93949   5390602.10445  23925250.214    23925260.203
       217.000         155.000
  23231965.221    -7903961.50649  -6130608.52946  23231964.356    23231971.183
       222.000         164.000
  24322627.807    -8811165.57749  -6525010.09345  24322628.235    24322640.539
       203.000         138.000
  21876932.955     5795732.84449   4562113.22247  21876933.114    21876940.698
       234.000         191.000
  22698576.983    -5941841.49649  -4610107.96146  22698576.522    22698584.380
       229.000         179.000
  20576279.109     -139889.88049    -94320.91647  20576279.188    20576285.513
       247.000         212.000
  20886255.169     -156791.46849   -110070.36247  20886254.307    20886261.604
       243.000         207.000
  21437663.477    -6650038.15549  -5164496.55447  21437663.115    21437669.522
       238.000         200.000
 03  4 28 18  0 30.0000000  0  8G24G21G29G 5G17G30G10G 6
  23940128.550     6999320.69349   5451525.17845  23940128.554    23940137.739
       217.000         158.000
  23218940.194    -7972408.74549  -6183944.00546  23218938.823    23218946.796
       224.000         167.000
  24309277.835    -8881320.21049  -6579675.82045  24309276.648    24309290.126
       199.000         138.000
  21893232.162     5881384.97749   4628855.00247  21893231.361    21893239.930
       232.000         189.000
  22687635.616    -5999339.25649  -4654911.37246  22687635.057    22687643.230
       230.000         181.000
  20582584.199     -106756.18349    -68502.51147  20582584.573    20582590.809
       247.000         212.000
  20892809.433     -122348.94449    -83232.05647  20892808.340    20892815.669
       242.000         207.000
  21426645.977    -6707935.20249  -5209611.13947  21426645.742    21426652.135
       238.000         200.000
 03  4 28 18  1  0.0000000  0  8G24G21G29G 5G17G30G10G 6
  23955000.193     7077470.69549   5512421.15745  23955000.268    23955009.265
       218.000         158.000
  23205950.661    -8040669.53949  -6237134.19246  23205950.435    23205957.440
       224.000         168.000
  24295942.793    -8951394.92549  -6634279.28445  24295942.119    24295955.228
       202.000         140.000
  21909591.238     5967352.76049   4695842.76147  21909590.916    21909600.011
       233.000         189.000
  22676733.450    -6056630.60949  -4699553.97946  22676732.235    22676741.444
       228.000         182.000
  20588996.452      -73059.79649    -42245.64248  20588996.834    20589003.093
       247.000         213.000
  20899475.464      -87318.91949    -55935.97047  20899474.465    20899481.574
       242.000         208.000
  21415658.301    -6765676.21349  -5254604.15047  21415658.438    21415664.562
       238.000         200.000
 03  4 28 18  1 30.0000000  0  8G24G21G29G 5G17G30G10G 6
  23969865.193     7155585.65649   5573289.86545  23969864.338    23969873.416
       217.000         156.000
  23192996.637    -8108743.67949  -6290178.92446  23192995.054    23193003.114
       222.000         165.000
  24282623.537    -9021386.62649  -6688818.03545  24282622.160    24282636.044
       204.000         139.000
  21926010.205     6053633.43049   4763074.32847  21926010.189    21926018.570
       234.000         191.000
  22665870.407    -6113715.52649  -4744035.73346  22665869.555    22665878.470
       228.000         182.000
  20595515.554      -38802.03049    -15551.33147  20595515.911    20595522.004
       248.000         212.000
  20906252.870      -51703.29149    -28183.55947  20906251.753    20906258.790
       242.000         208.000
  21404700.538    -6823259.70449  -5299474.41547  21404699.855    21404706.575
       237.000         200.000
 03  4 28 18  2  0.0000000  0  8G24G21G29G 5G17G30G10G 6
  23984723.206     7233665.65049   5634131.32145  23984722.322    23984731.931
       213.000         151.000
  23180077.997    -8176631.01649  -6343078.11446  23180076.577    23180084.211
       222.000         163.000
  24269321.056    -9091291.86749  -6743289.44045  24269320.699    24269334.259
       205.000         142.000
  21942488.180     6140225.13149   4830548.25247  21942487.052    21942495.486
       231.000         189.000
  22655046.877    -6170593.50349  -4788356.20946  22655046.987    22655054.777
       229.000         182.000
  20602141.415       -3983.37849     11580.02547  20602141.744    20602147.971
       247.000         212.000
  20913141.564      -15502.91649        24.49247  20913140.594    20913147.653
       243.000         209.000
  21393773.106    -6880683.39349  -5344220.15047  21393772.869    21393779.636
       237.000         201.000
 03  4 28 18  2 30.0000000  0  8G24G21G29G 5G17G30G10G 6
  23999574.569     7311710.01649   5694944.99545  23999575.330    23999583.970
       212.000         148.000
  23167195.063    -8244330.97149  -6395831.29846  23167194.765    23167201.280
       224.000         164.000
  24256035.117    -9161106.80449  -6797690.50045  24256034.047    24256046.681
       204.000         142.000
  21959024.638     6227125.82649   4898262.95047  21959024.833    21959032.746
       234.000         188.000
  22644262.862    -6227264.22949  -4832515.18246  22644262.193    22644270.290
       230.000         182.000
  20608873.920       31395.52549     39147.93847  20608874.153    20608880.300
       247.000         212.000
  20920141.360       21281.09849     28687.32747  20920140.838    20920147.439
       243.000         209.000
  21382876.652    -6937945.13949  -5388839.71547  21382876.732    21382883.073
       238.000         201.000
 03  4 28 18  3  0.0000000  0  8G24G21G29G 5G17G30G10G 6
  24014418.979     7389717.41849   5755729.89545  24014418.924    24014427.503
       215.000         148.000
  23154347.641    -8311844.88249  -6448439.51546  23154346.919    23154353.181
       224.000         167.000
  24242767.426    -9230829.64449  -6852019.76345  24242768.201    24242779.630
       208.000         145.000
  21975619.792     6314332.18249   4966215.82747  21975619.905    21975628.249
       233.000         189.000
  22633517.984    -6283728.97449  -4876513.64246  22633516.912    22633525.423
       228.000         181.000
  20615712.541       67332.22349     67150.50847  20615712.989    20615718.964
       248.000         212.000
  20927251.815       58646.34549     57803.07747  20927250.956    20927257.854
       242.000         207.000
  21372011.100    -6995044.09249  -5433332.41447  21372010.695    21372017.022
       238.000         201.000
 03  4 28 18  3 30.0000000  0  8G24G21G29G 5G17G30G10G 6
  24029256.154     7467686.68649   5816485.07245  24029256.882    24029264.895
       216.000         151.000
  23141535.741    -8379172.06249  -6500902.22946  23141533.999    23141541.991
       223.000         166.000
  24229517.271    -9300457.44749  -6906275.02945  24229516.265    24229529.258
       208.000         146.000
  21992272.211     6401841.10249   5034404.48447  21992271.757    21992280.859
       231.000         189.000
  22622812.101    -6339988.12549  -4920351.91046  22622811.204    22622819.317
       228.000         181.000
  20622656.965      103825.23049     95586.55347  20622657.082    20622663.283
       247.000         212.000
  20934472.266       96590.65449     87370.03047  20934471.307    20934478.595
       241.000         206.000
  21361176.712    -7051979.26149  -5477697.49647  21361176.135    21361182.881
       238.000         201.000
 03  4 28 18  4  0.0000000  0  8G24G21G29G 5G17G30G10G 6
  24044086.112     7545617.23849   5877210.08245  24044085.096    24044096.124
       215.000         154.000
  23128759.181    -8446312.13849  -6553219.12746  23128758.614    23128765.315
       221.000         164.000
  24216286.446    -9369987.17449  -6960453.81945  24216287.023    24216298.127
       210.000         149.000
  22008981.702     6489650.45649   5102827.22946  22008981.769    22008989.727
       233.000         187.000
  22612145.473    -6396041.30849  -4964029.68546  22612144.738    22612153.639
       228.000         182.000
  20629706.991      140873.34049    124455.15647  20629707.301    20629713.426
       247.000         212.000
  20941802.751      135112.67749    117387.15547  20941801.772    20941808.972
       240.000         205.000
  21350373.840    -7108748.60449  -5521933.36047  21350373.564    21350380.362
       238.000         201.000
 03  4 28 18  4 30.0000000  0  8G24G21G29G 5G17G30G10G 6
  24058908.333     7623508.67349   5937904.59745  24058907.885    24058916.341
       213.000         151.000
  23116018.324    -8513265.30749  -6605390.38646  23116018.184    23116024.347
       224.000         165.000
  24203074.535    -9439415.74849  -7014553.80245  24203074.210    24203086.623
       212.000         149.000
  22025748.209     6577757.56249   5171481.99247  22025748.022    22025756.870
       233.000         188.000
  22601517.966    -6451889.05149  -5007547.36846  22601517.605    22601525.108
       229.000         183.000
  20636862.455      178475.18149    153755.22947  20636863.017    20636868.622
       248.000         212.000
  20949242.868      174210.65549    147853.07747  20949242.052    20949249.192
       242.000         205.000
  21339602.845    -7165350.64749  -5566038.85447  21339602.411    21339608.980
       238.000         201.000
 03  4 28 18  5  0.0000000  0  8G24G21G29G 5G17G30G10G 6
  24073723.071     7701360.16349   5998567.99045  24073722.429    24073731.927
       211.000         149.000
  23103313.099    -8580031.93349  -6657416.30146  23103312.500    23103318.694
       223.000         168.000
  24189882.585    -9508740.54849  -7068572.92445  24189881.573    24189893.603
       210.000         149.000
  22042570.642     6666159.50049   5240366.51447  22042570.366    22042579.258
       233.000         188.000
  22590929.519    -6507531.74449  -5050905.27846  22590928.785    22590937.112
       229.000         183.000
  20644122.983      216628.92149    183485.34847  20644123.301    20644129.194
       248.000         212.000
  20956792.253      213882.56849    178766.21847  20956791.515    20956798.606
       242.000         205.000
  21328863.968    -7221783.88849  -5610012.82547  21328863.875    21328870.146
       239.000         202.000
 03  4 28 18  5 30.0000000  0  8G24G21G29G 5G17G30G10G 6
  24088530.057     7779171.45249   6059200.05645  24088528.729    24088538.722
       210.000         149.000
  23090643.230    -8646611.85749  -6709296.73646  23090642.401    23090648.984
       224.000         167.000
  24176710.707    -9577958.05149  -7122508.45745  24176709.982    24176723.823
       212.000         149.000
  22059448.811     6754854.03749   5309479.01946  22059448.831    22059456.271
       233.000         187.000
  22580380.129    -6562968.94949  -5094103.07346  22580379.718    22580387.717
       229.000         182.000
  20651488.375      255333.83549    213644.95747  20651488.602    20651494.573
       247.000         212.000
  20964450.591      254127.14249    210125.59347  20964450.103    20964456.977
       242.000         206.000
  21318157.616    -7278046.19249  -5653853.59147  21318157.477    21318163.935
       239.000         202.000
 03  4 28 18  6  0.0000000  0  8G24G21G29G 5G17G30G10G 6
  24103329.226     7856941.54249   6119799.99745  24103329.182    24103338.623
       212.000         150.000
  23078009.106    -8713005.02749  -6761031.64646  23078009.686    23078015.318
       225.000         167.000
  24163559.987    -9647065.33549  -7176358.09045  24163559.556    24163571.248
       213.000         151.000
  22076382.105     6843838.35849   5378817.34946  22076381.199    22076390.779
       233.000         186.000
  22569869.752    -6618201.24849  -5137141.20646  22569869.175    22569877.127
       229.000         182.000
  20658958.188      294588.19349    244232.71847  20658958.351    20658964.531
       247.000         211.000
  20972217.543      294942.41949    241929.67247  20972216.497    20972223.694
       242.000         206.000
  21307484.115    -7334136.17749  -5697560.07847  21307483.636    21307490.593
       240.000         203.000
 03  4 28 18  6 30.0000000  0  8G24G21G29G 5G17G30G10G 6
  24118120.603     7934669.57149   6180367.19645  24118120.433    24118129.476
       214.000         151.000
  23065410.344    -8779212.23449  -6812621.63546  23065408.960    23065416.433
       224.000         166.000
  24150430.609    -9716060.04249  -7230119.98445  24150429.126    24150441.838
       211.000         150.000
  22093369.980     6933109.30049   5448379.00747  22093370.048    22093378.815
       234.000         188.000
  22559398.254    -6673229.02849  -5180019.96046  22559397.634    22559405.934
       229.000         182.000
  20666532.301      334390.16949    275247.19047  20666532.727    20666538.620
       248.000         212.000
  20980092.666      336326.10549    274176.66447  20980091.715    20980098.803
       242.000         206.000
  21296843.563    -7390052.56649  -5741131.30047  21296843.132    21296849.821
       239.000         202.000
 03  4 28 18  7  0.0000000  0  8G24G21G29G 5G17G30G10G 6
  24132903.809     8012355.53849   6240901.62645  24132903.888    24132912.614
       215.000         150.000
  23052847.033    -8845232.52649  -6864065.98246  23052845.947    23052853.614
       224.000         167.000
  24137323.212    -9784938.47149  -7283791.28445  24137323.159    24137335.302
       213.000         151.000
  22110411.989     7022665.06249   5518162.59846  22110410.731    22110419.812
       231.000         186.000
  22548965.727    -6728052.41249  -5222739.45846  22548965.246    22548973.534
       230.000         183.000
  20674210.506      374738.89949    306687.68147  20674210.742    20674216.654
       247.000         211.000
  20988075.665      378277.20649    306865.79347  20988074.948    20988081.898
       241.000         206.000
  21286236.433    -7445793.17149  -5784565.55547  21286236.505    21286242.468
       241.000         203.000
 03  4 28 18  7 30.0000000  0  8G24G21G29G 5G17G30G10G 6
  24147678.966     8089998.46949   6301402.52145  24147679.429    24147688.931
       213.000         148.000
  23040319.449    -8911065.29549  -6915364.22546  23040318.609    23040325.970
       226.000         169.000
  24124238.838    -9853697.78749  -7337369.75845  24124237.578    24124249.417
       211.000         150.000
  22127507.354     7112502.92949   5588166.01146  22127507.625    22127515.525
       233.000         185.000
  22538572.168    -6782671.43949  -5265299.71846  22538571.412    22538580.259
       229.000         184.000
  20681992.240      415632.63049    338552.87047  20681992.335    20681998.956
       246.000         211.000
  20996166.284      420793.64249    339995.44547  20996165.357    20996172.592
       241.000         206.000
  21275663.223    -7501356.50949  -5827861.67747  21275663.065    21275669.295
       240.000         203.000
 03  4 28 18  8  0.0000000  0  8G24G21G29G 5G17G30G10G 6
  24162445.313     8167596.75249   6361868.57645  24162446.127    24162453.801
       214.000         147.000
  23027827.072    -8976712.99249  -6966518.25546  23027825.898    23027832.871
       227.000         170.000
  24111176.996    -9922335.92549  -7390853.83845  24111175.800    24111188.474
       211.000         149.000
  22144656.266     7202619.02349   5658386.21946  22144656.683    22144664.971
       234.000         187.000
  22528217.099    -6837087.53749  -5307701.86446  22528216.520    22528224.758
       230.000         184.000
  20689877.327      457068.86349    370840.78847  20689877.866    20689884.269
       247.000         212.000
  21004363.861      463872.31449    373563.20747  21004363.182    21004370.282
       241.000         206.000
  21265123.744    -7556741.93149  -5871019.16247  21265123.711    21265129.856
       240.000         203.000
 03  4 28 18  8 30.0000000  0  8G24G21G29G 5G17G30G10G 6
  24177203.799     8245151.94449   6422301.13145  24177204.400    24177212.750
       218.000         150.000
  23015370.682    -9042172.39549  -7017525.54746  23015371.020    23015377.045
       228.000         170.000
  24098139.440    -9990847.67649  -7444239.42345  24098138.066    24098150.512
       209.000         147.000
  22161857.846     7293012.87849   5728822.88846  22161856.346    22161865.764
       231.000         185.000
  22517901.039    -6891298.90949  -5349944.47646  22517900.542    22517909.121
       230.000         185.000
  20697865.816      499048.11949    403551.83147  20697866.405    20697872.147
       248.000         212.000
  21012668.557      507513.44049    407569.24447  21012667.343    21012674.963
       241.000         205.000
  21254618.860    -7611945.46849  -5914034.91647  21254618.504    21254625.042
       240.000         203.000
 03  4 28 18  9  0.0000000  0  8G24G21G29G 5G17G30G10G 6
  24191953.590     8322661.46149   6482698.07545  24191954.129    24191963.058
       218.000         154.000
  23002949.602    -9107446.38349  -7068388.35546  23002949.120    23002955.568
       224.000         168.000
  24085126.213   -10059232.29849  -7497525.96745  24085126.024    24085137.521
       212.000         147.000
  22179111.171     7383679.56649   5799472.14446  22179111.710    22179119.096
       233.000         184.000
  22507623.587    -6945307.55749  -5392029.11246  22507622.307    22507631.157
       230.000         185.000
  20705956.956      541566.59749    436683.04447  20705957.144    20705963.321
       246.000         210.000
  21021079.438      551712.94349    442010.38247  21021078.590    21021086.091
       240.000         205.000
  21244148.464    -7666967.74949  -5956909.43647  21244148.372    21244154.694
       240.000         203.000
 03  4 28 18  9 30.0000000  0  8G24G21G29G 5G17G30G10G 6
  24206694.737     8400126.17749   6543060.06945  24206694.714    24206705.963
       219.000         157.000
  22990563.927    -9172532.95849  -7119105.14146  22990562.325    22990569.219
       223.000         166.000
  24072137.871   -10127485.80049  -7550710.35145  24072137.006    24072149.466
       212.000         147.000
  22196416.608     7474617.74149   5870332.94246  22196416.511    22196424.985
       233.000         185.000
  22497384.914    -6999112.11849  -5433954.71946  22497384.155    22497391.766
       229.000         184.000
  20714150.569      584624.03149    470234.23147  20714151.222    20714157.301
       247.000         211.000
  21029596.612      596470.55849    476886.41347  21029595.874    21029603.173
       241.000         205.000
  21233713.156    -7721805.67849  -5999640.29447  21233713.196    21233719.623
       240.000         203.000
 03  4 28 18 10  0.0000000  0  8G24G21G29G 5G17G30G10G 6
  24221426.980     8477544.29549   6603385.76445  24221426.395    24221436.668
       216.000         157.000
  22978213.829    -9237432.64149  -7169676.29946  22978213.724    22978220.426
       226.000         168.000
  24059175.158   -10195605.40049  -7603790.39045  24059175.090    24059186.723
       213.000         147.000
  22213772.494     7565823.96749   5941402.59946  22213771.286    22213781.190
       230.000         184.000
  22487184.734    -7052714.27349  -5475722.60246  22487184.016    22487191.715
       230.000         183.000
  20722446.425      628218.12349    504203.59447  20722446.719    20722453.301
       247.000         212.000
  21038219.446      641783.34949    512195.05247  21038219.074    21038225.675
       242.000         205.000
  21223313.201    -7776458.47349  -6042226.89947  21223312.946    21223318.969
       240.000         204.000
 03  4 28 18 10 30.0000000  0  8G24G21G29G 5G17G30G10G 6
  24236150.385     8554915.67649   6663675.03145  24236150.792    24236159.307
       216.000         154.000
  22965899.337    -9302145.83949  -7220102.14246  22965898.819    22965905.888
       228.000         172.000
  24046238.513   -10263588.13849  -7656763.72945  24046237.756    24046248.748
       211.000         146.000
  22231178.865     7657296.12249   6012679.48546  22231177.866    22231187.006
       230.000         183.000
  22477023.087    -7106114.09349  -5517332.84246  22477022.191    22477030.208
       231.000         184.000
  20730843.999      672347.26649    538589.86847  20730844.055    20730850.324
       246.000         210.000
  21046947.609      687649.76149    547935.08447  21046946.782    21046953.803
       241.000         205.000
  21212948.745    -7830924.15049  -6084667.69347  21212948.341    21212954.588
       240.000         204.000
 03  4 28 18 11  0.0000000  0  8G24G21G29G 5G17G30G10G 6
  24250864.578     8632239.36449   6723927.16145  24250864.996    24250874.310
       216.000         152.000
  22953620.068    -9366673.85049  -7270383.68446  22953619.290    22953625.878
       226.000         172.000
  24033328.078   -10331431.51649  -7709628.52745  24033327.284    24033339.899
       211.000         146.000
  22248635.383     7749030.78349   6084160.94046  22248635.380    22248644.860
       230.000         183.000
  22466899.909    -7159311.91749  -5558785.67846  22466899.249    22466907.056
       231.000         184.000
  20739342.929      717009.48549    573391.52247  20739343.291    20739349.603
       246.000         209.000
  21055780.587      734067.20849    584104.49147  21055779.747    21055786.822
       242.000         205.000
  21202620.053    -7885201.65349  -6126961.85947  21202619.892    21202626.026
       241.000         204.000
 03  4 28 18 11 30.0000000  0  8G24G21G29G 5G17G30G10G 6
  24265569.897     8709515.81449   6784142.48145  24265568.976    24265578.239
       217.000         151.000
  22941376.207    -9431015.38949  -7320519.92446  22941375.466    22941382.016
       225.000         170.000
  24020444.896   -10399131.55049  -7762381.69345  24020445.801    24020455.642
       210.000         147.000
  22266141.853     7841026.13849   6155845.50246  22266141.791    22266150.398
       232.000         183.000
  22456815.243    -7212307.17949  -5600080.66646  22456814.021    22456822.862
       230.000         185.000
  20747943.257      762203.98749    608607.95347  20747943.797    20747950.105
       247.000         210.000
  21064718.277      781034.64949    620702.47447  21064717.220    21064724.460
       241.000         205.000
  21192327.714    -7939288.19249  -6169107.22147  21192327.417    21192333.679
       240.000         204.000
 03  4 28 18 12  0.0000000  0  8G24G21G29G 5G17G30G10G 6
  24280266.149     8786744.72349   6844320.77445  24280266.481    24280274.847
       216.000         149.000
  22929167.906    -9495170.15149  -7370510.63046  22929167.618    22929173.974
       226.000         170.000
  24007590.156   -10466684.84049  -7815020.43145  24007588.272    24007600.308
       209.000         146.000
  22283697.336     7933279.78349   6227731.33246  22283695.988    22283705.434
       228.000         181.000
  22446769.123    -7265099.76349  -5641217.72346  22446768.156    22446776.772
       231.000         185.000
  20756644.658      807929.59649    644238.23647  20756644.764    20756651.538
       246.000         211.000
  21073760.252      828550.37449    657727.67947  21073759.320    21073766.694
       241.000         204.000
  21182072.108    -7993181.69549  -6211102.17347  21182071.727    21182078.472
       241.000         204.000
 03  4 28 18 12 30.0000000  0  8G24G21G29G 5G17G30G10G 6
  24294952.638     8863922.51849   6904459.23245  24294951.755    24294961.678
       215.000         151.000
  22916994.647    -9559140.74249  -7420357.80146  22916993.765    22917000.009
       227.000         172.000
  23994762.693   -10534091.30849  -7867544.85245  23994762.671    23994773.798
       214.000         146.000
  22301300.441     8025786.42549   6299814.31246  22301300.221    22301309.400
       230.000         180.000
  22436761.056    -7317692.59549  -5682199.12846  22436760.334    22436768.588
       232.000         186.000
  20765446.065      854181.39749    680278.53447  20765446.431    20765452.451
       246.000         210.000
  21082905.530      876609.40949    695176.24447  21082904.609    21082911.774
       239.000         204.000
  21171853.134    -8046883.32349  -6252947.60947  21171853.091    21171859.246
       241.000         205.000
 03  4 28 18 13  0.0000000  0  8G24G21G29G 5G17G30G10G 6
  24309629.940     8941051.89849   6964559.93145  24309630.703    24309639.356
       215.000         152.000
  22904857.091    -9622923.91649  -7470058.93946  22904856.278    22904863.638
       228.000         173.000
  23981964.875   -10601344.92849  -7919950.09945  23981964.651    23981974.824
       211.000         146.000
  22318952.407     8118546.38449   6372094.65346  22318952.840    22318962.273
       231.000         182.000
  22426791.549    -7370082.72249  -5723022.57846  22426791.245    22426799.308
       233.000         185.000
  20774348.027      900960.94149    716730.04947  20774348.378    20774354.416
       246.000         209.000
  21092154.409      925212.80849    733048.98547  21092153.716    21092161.026
       240.000         203.000
  21161671.436    -8100388.30549  -6294639.81547  21161671.180    21161677.442
       241.000         205.000
 03  4 28 18 13 30.0000000  0  9G24G21G29G 5G17G26G30G10G 6
  24324297.248     9018129.19149   7024620.03945  24324297.419    24324307.168
       215.000         153.000
  22892754.587    -9686523.33549  -7519616.89346  22892754.196    22892760.588
       228.000         172.000
  23969195.803   -10668445.78149  -7972236.38145  23969194.842    23969207.762
       211.000         146.000
  22336651.130     8211553.48849   6444567.59446  22336649.080    22336659.642
       226.000         180.000
  22416859.896    -7422273.96949  -5763691.06246  22416858.941    22416867.645
       232.000         184.000
  24316136.464    -6812284.78159  -4598731.35045  24316137.039    24316149.961
       213.000         142.000
  20783349.379      948263.15249    753588.86047  20783349.407    20783356.308
       246.000         210.000
  21101505.864      974355.05749    771341.60747  21101504.722    21101512.355
       238.000         202.000
  21151526.940    -8153698.04549  -6336179.88247  21151526.653    21151533.216
       241.000         205.000
 03  4 28 18 14  0.0000000  0  9G24G21G29G 5G17G26G30G10G 6
  24338955.060     9095155.32649   7084640.29145  24338954.692    24338964.758
       215.000         152.000
  22880687.219    -9749937.76049  -7569030.70446  22880686.470    22880692.690
       226.000         172.000
  23956456.647   -10735389.60349  -8024400.27245  23956454.502    23956467.746
       210.000         146.000
  22354396.365     8304806.53749   6517232.18546  22354396.643    22354404.824
       230.000         179.000
  22406966.187    -7474265.65549  -5804204.04046  22406965.101    22406973.476
       232.000         185.000
  24298964.329    -6902524.06149  -4669047.33845  24298962.618    24298981.293
       212.000         143.000
  20792450.044      996087.51749    790854.54447  20792450.566    20792456.717
       246.000         210.000
  21110959.735     1024035.91149    810053.91447  21110958.887    21110966.061
       239.000         202.000
  21141420.241    -8206809.57149  -6377565.49947  21141419.930    21141426.367
       241.000         206.000
 03  4 28 18 14 30.0000000  0  9G24G21G29G 5G17G26G30G10G 6
  24353603.307     9172132.43149   7144622.33445  24353603.271    24353612.708
       216.000         151.000
  22868655.433    -9813164.98149  -7618298.62246  22868654.540    22868661.358
       228.000         171.000
  23943748.294   -10802170.72849  -8076437.37945  23943747.618    23943759.200
       209.000         145.000
  22372189.002     8398305.50749   6590088.37146  22372189.446    22372198.518
       231.000         180.000
  22397111.012    -7526054.99649  -5844559.36146  22397109.903    22397118.276
       233.000         186.000
  24281785.974    -6992794.75449  -4739387.91345  24281785.500    24281800.086
       216.000         140.000
  20801650.319     1044434.96549    828527.79747  20801650.717    20801656.764
       247.000         210.000
  21120516.244     1074255.43049    849185.95847  21120515.461    21120522.719
       240.000         203.000
  21131351.965    -8259718.44549  -6418793.21647  21131351.790    21131358.211
       242.000         206.000
 03  4 28 18 15  0.0000000  0  9G24G21G29G 5G17G26G30G10G 6
  24368242.071     9249058.66549   7204564.74645  24368242.047    24368251.741
       213.000         150.000
  22856659.240    -9876205.45549  -7667421.03746  22856658.465    22856665.128
       228.000         172.000
  23931071.302   -10868787.38549  -8128346.36245  23931070.265    23931083.627
       207.000         147.000
  22390027.452     8492046.35149   6663133.04046  22390026.497    22390036.863
       227.000         180.000
  22387294.072    -7577643.42549  -5884758.13646  22387292.840    22387301.670
       232.000         186.000
  24264602.445    -7083095.02849  -4809751.44045  24264602.415    24264611.371
       211.000         135.000
  20810949.425     1093302.35149    866606.21647  20810949.410    20810955.914
       245.000         209.000
  21130174.641     1125010.44049    888735.27247  21130173.905    21130181.342
       240.000         203.000
  21121322.437    -8312424.21549  -6459862.66447  21121322.263    21121328.330
       241.000         206.000
 03  4 28 18 15 30.0000000  0  9G24G21G29G 5G17G26G30G10G 6
  24382870.824     9325933.21749   7264466.89545  24382870.510    24382880.194
       209.000         147.000
  22844698.426    -9939059.68149  -7716398.31746  22844697.915    22844704.404
       228.000         173.000
  23918426.193   -10935237.03049  -8180125.22745  23918427.087    23918437.624
       213.000         148.000
  22407911.179     8586025.89849   6736363.72646  22407909.777    22407919.982
       228.000         178.000
  22377515.107    -7629031.70949  -5924800.94946  22377514.149    22377522.807
       232.000         187.000
  24247413.105    -7173421.97449  -4880135.73445  24247411.986    24247428.675
       211.000         135.000
  20820347.046     1142687.39149    905087.99847  20820347.663    20820353.908
       246.000         209.000
  21139934.429     1176298.36649    928699.84347  21139933.499    21139940.762
       239.000         203.000
  21111331.795    -8364925.58849  -6500772.84647  21111331.559    21111337.796
       241.000         206.000
 03  4 28 18 16  0.0000000  0  9G24G21G29G 5G17G26G30G10G 6
  24397489.660     9402755.67349   7324328.42345  24397488.810    24397498.750
       208.000         145.000
  22832773.061   -10001727.95749  -7765230.71646  22832772.171    22832779.272
       227.000         174.000
  23905813.659   -11001516.38449  -8231771.33745  23905811.941    23905824.336
       210.000         147.000
  22425839.996     8680241.71149   6809778.50946  22425839.884    22425848.674
       230.000         178.000
  22367774.229    -7680220.48749  -5964688.29746  22367773.443    22367781.622
       232.000         187.000
  24230220.075    -7263772.44449  -4950538.35045  24230219.218    24230233.964
       214.000         140.000
  20829843.025     1192588.51249    943971.92247  20829843.379    20829850.025
       246.000         210.000
  21149795.268     1228117.05849    969077.99347  21149794.662    21149801.891
       240.000         203.000
  21101380.337    -8417220.60349  -6541522.23147  21101380.009    21101386.450
       241.000         206.000
 03  4 28 18 16 30.0000000  0  9G24G21G29G 5G17G26G30G10G 6
  24412098.266     9479524.80449   7384148.41045  24412098.596    24412107.672
       212.000         145.000
  22820882.926   -10064210.93849  -7813918.73146  22820881.892    22820888.797
       227.000         174.000
  23893233.591   -11067623.20849  -8283283.08045  23893234.808    23893244.371
       214.000         147.000
  22443813.271     8774690.24449   6883374.62246  22443812.442    22443822.423
       228.000         179.000
  22358071.140    -7731210.45249  -6004420.71746  22358070.360    22358078.495
       232.000         186.000
  24213022.500    -7354143.95049  -5020957.36645  24213021.324    24213034.206
       212.000         140.000
  20839436.567     1243002.94149    983255.83347  20839437.008    20839443.180
       246.000         209.000
  21159756.609     1280463.59749   1009867.46147  21159755.716    21159763.031
       240.000         204.000
  21091468.410    -8469308.34049  -6582110.09847  21091468.360    21091474.639
       242.000         206.000
 03  4 28 18 17  0.0000000  0  9G24G21G29G 5G17G26G30G10G 6
  24426697.094     9556240.89649   7443927.08545  24426697.139    24426708.114
       211.000         148.000
  22809027.932   -10126508.77349  -7862462.46246  22809027.289    22809033.089
       227.000         173.000
  23880687.721   -11133554.19349  -8334657.73545  23880687.624    23880698.508
       211.000         151.000
  22461829.903     8869369.48549   6957150.52246  22461828.620    22461839.725
       226.000         178.000
  22348405.975    -7782001.14249  -6043997.86346  22348404.661    22348412.807
       233.000         186.000
  24195821.883    -7444532.67049  -5091389.82045  24195823.310    24195835.701
       213.000         138.000
  20849127.686     1293929.29349   1022938.63047  20849128.219    20849134.173
       246.000         209.000
  21169817.950     1333336.42749   1051067.01347  21169817.260    21169824.447
       240.000         204.000
  21081596.370    -8521186.36849  -6622534.55047  21081596.165    21081602.433
       242.000         206.000
 03  4 28 18 17 30.0000000  0  9G24G21G29G 5G17G26G30G10G 6
  24441285.438     9632902.69949   7503663.43445  24441285.550    24441295.725
       214.000         150.000
  22797208.249   -10188621.37149  -7910861.85046  22797207.342    22797213.533
       226.000         173.000
  23868175.086   -11199306.75749  -8385893.42245  23868174.227    23868185.200
       210.000         147.000
  22479890.163     8964276.09749   7031103.57446  22479891.025    22479898.610
       229.000         178.000
  22338778.518    -7832593.71349  -6083420.64146  22338777.546    22338786.368
       232.000         187.000
  24178618.636    -7534936.07449  -5161833.67245  24178616.992    24178634.461
       209.000         138.000
  20858915.678     1345365.04649   1063018.36947  20858916.023    20858922.372
       245.000         209.000
  21179979.005     1386732.64449   1092674.40547  21179978.186    21179985.614
       240.000         204.000
  21071764.387    -8572853.75049  -6662794.86847  21071764.141    21071770.564
       242.000         206.000
 03  4 28 18 18  0.0000000  0  9G24G21G29G 5G17G26G30G10G 6
  24455863.569     9709510.46049   7563357.68745  24455863.498    24455873.214
       214.000         151.000
  22785423.901   -10250547.96649  -7959116.30546  22785422.740    22785430.668
       226.000         172.000
  23855697.471   -11264877.29849  -8436987.21645  23855698.544    23855708.828
       217.000         150.000
  22497993.596     9059408.02049   7105232.17946  22497993.543    22498003.008
       228.000         178.000
  22329188.835    -7882987.88549  -6122688.82747  22329188.145    22329196.435
       233.000         188.000
  24161412.797    -7625350.33049  -5232286.09645  24161412.502    24161426.063
       212.000         136.000
  20868800.348     1397308.96749   1103494.09047  20868800.780    20868807.430
       246.000         209.000
  21190239.376     1440650.91749   1134688.59247  21190238.793    21190246.201
       241.000         204.000
  21061973.006    -8624307.91949  -6702889.04547  21061973.069    21061979.018
       242.000         206.000
 03  4 28 18 18 30.0000000  0  9G24G21G29G 5G17G26G30G10G 6
  24470431.232     9786063.30549   7623009.14745  24470431.643    24470441.320
       212.000         151.000
  22773674.650   -10312290.51749  -8007227.35446  22773674.383    22773681.356
       227.000         173.000
  23843255.238   -11330263.32549  -8487937.28845  23843253.529    23843265.593
       212.000         150.000
  22516138.930     9154761.77549   7179533.66846  22516137.792    22516147.274
       226.000         177.000
  22319636.764    -7933184.70449  -6161803.22847  22319636.097    22319644.167
       233.000         188.000
  24144205.898    -7715772.81049  -5302744.83345  24144204.835    24144220.976
       207.000         138.000
  20878781.316     1449758.48749   1144363.77047  20878781.590    20878788.074
       245.000         208.000
  21200598.488     1495088.22949   1177107.22547  21200597.702    21200605.038
       240.000         204.000
  21052222.439    -8675547.55749  -6742816.05447  21052222.140    21052228.274
       242.000         206.000
 03  4 28 18 19  0.0000000  0  9G24G21G29G 5G17G26G30G10G 6
  24484988.431     9862561.20949   7682617.80045  24484987.226    24484997.661
       210.000         150.000
  22761960.613   -10373848.20549  -8055194.35046  22761960.443    22761966.358
       228.000         174.000
  23830848.280   -11395461.84749  -8538741.21045  23830848.747    23830857.207
       216.000         148.000
  22534325.819     9250334.86149   7254006.03946  22534325.661    22534335.138
       228.000         177.000
  22310122.223    -7983184.43349  -6200764.05647  22310121.434    22310129.085
       232.000         188.000
  24126997.888    -7806200.02749  -5373207.35645  24126998.606    24127010.466
       211.000         139.000
  20888857.960     1502711.81449   1185626.02547  20888857.825    20888864.297
       244.000         206.000
  21211055.963     1550042.26649   1219928.50647  21211055.302    21211062.473
       241.000         204.000
  21042513.044    -8726570.87949  -6782574.49947  21042512.911    21042519.152
       242.000         206.000
 03  4 28 18 19 30.0000000  0  9G24G21G29G 5G17G26G30G10G 6
  24499534.685     9939002.75549   7742182.52045  24499534.835    24499544.465
       210.000         148.000
  22750281.620   -10435221.80549  -8103017.88946  22750280.558    22750287.640
       228.000         176.000
  23818477.520   -11460470.35349  -8589397.03045  23818477.691    23818488.530
       215.000         150.000
  22552554.191     9346123.99949   7328646.76646  22552554.242    22552563.427
       228.000         177.000
  22300644.980    -8032987.27349  -6239571.44846  22300644.005    22300652.532
       232.000         187.000
  24109789.844    -7896629.37549  -5443671.44745  24109790.939    24109803.238
       211.000         141.000
  20899030.058     1556166.23649   1227278.74947  20899030.472    20899037.382
       244.000         207.000
  21221611.230     1605510.40549   1263150.38847  21221610.635    21221617.812
       240.000         204.000
  21032845.050    -8777376.59049  -6822163.37747  21032844.755    21032851.440
       242.000         206.000
 03  4 28 18 20  0.0000000  0  9G24G21G29G 5G17G26G30G10G 6
  24514070.473    10015387.95449   7801703.37045  24514071.052    24514080.192
       209.000         146.000
  22738637.693   -10496411.17149  -8150697.89046  22738637.429    22738643.931
       229.000         177.000
  23806143.649   -11525285.51849  -8639902.26545  23806143.000    23806153.746
       214.000         151.000
  22570822.791     9442126.73149   7403453.93846  22570823.324    22570831.661
       228.000         177.000
  22291205.208    -8082593.42049  -6278225.58446  22291204.680    22291211.968
       232.000         187.000
  24092582.115    -7987057.25649  -5514134.45245  24092577.965    24092595.537
       205.000         141.000
  20909297.226     1610120.06849   1269320.62247  20909297.135    20909304.362
       242.000         207.000
  21232264.032     1661490.95649   1306771.55547  21232263.550    21232270.510
       241.000         204.000
  21023218.825    -8827962.65849  -6861581.11347  21023218.719    21023225.288
       242.000         206.000
 03  4 28 18 20 30.0000000  0  9G24G21G29G 5G17G26G30G10G 6
  24528595.599    10091717.26349   7861180.64145  24528595.547    24528606.364
       208.000         145.000
  22727028.977   -10557415.27449  -8198233.51546  22727027.756    22727034.674
       226.000         176.000
  23793847.067   -11589903.53849  -8690253.84545  23793845.154    23793857.707
       212.000         150.000
  22589132.118     9538341.24549   7478426.10346  22589132.099    22589141.894
       229.000         177.000
  22281802.974    -8132002.61649  -6316726.24046  22281802.409    22281810.224
       232.000         187.000
  24075374.292    -8077479.54249  -5584593.15245  24075375.185    24075389.373
       209.000         140.000
  20919659.018     1664572.25349   1311750.81947  20919659.341    20919666.014
       244.000         206.000
  21243014.006     1717982.34749   1350790.78147  21243013.178    21243020.333
       240.000         203.000
  21013634.998    -8878326.44549  -6900825.64147  21013634.863    21013641.177
       242.000         206.000
 03  4 28 18 21  0.0000000  0  9G24G21G29G 5G17G26G30G10G 6
  24543109.813    10167989.73849   7920613.64745  24543109.519    24543119.976
       207.000         144.000
  22715455.201   -10618235.14049  -8245625.58446  22715454.628    22715460.370
       226.000         174.000
  23781588.371   -11654322.18949  -8740450.03945  23781587.390    23781597.938
       214.000         150.000
  22607480.831     9634763.91449   7553560.48846  22607479.937    22607491.167
       226.000         176.000
  22272438.005    -8181215.62549  -6355074.01747  22272437.013    22272445.177
       233.000         188.000
  24058169.532    -8167893.72449  -5655045.47145  24058169.046    24058182.651
       211.000         142.000
  20930115.299     1719519.97349   1354567.13147  20930115.622    20930122.260
       244.000         206.000
  21253860.528     1774981.34949   1395205.54747  21253860.089    21253866.986
       240.000         202.000
  21004093.604    -8928466.82649  -6939896.07647  21004093.129    21004099.702
       242.000         206.000
 03  4 28 18 21 30.0000000  0  9G24G21G29G 5G17G26G30G10G 6
  24557613.124    10244205.08349   7980002.12845  24557612.549    24557622.777
       206.000         143.000
  22703916.545   -10678870.93649  -8292874.21346  22703916.366    22703922.818
       228.000         174.000
  23769368.168   -11718538.29149  -8790488.44245  23769367.729    23769379.304
       214.000         152.000
  22625868.503     9731392.28049   7628855.16546  22625867.738    22625877.762
       227.000         175.000
  22263110.463    -8230232.36549  -6393268.85947  22263110.230    22263117.582
       233.000         190.000
  24040965.949    -8258296.20849  -5725488.76045  24040966.086    24040980.247
       209.000         143.000
  20940665.613     1774961.27449   1397768.06447  20940665.769    20940672.640
       244.000         206.000
  21264803.410     1832485.93149   1440014.27247  21264802.603    21264810.017
       239.000         201.000
  20994595.084    -8978381.83949  -6978790.91047  20994594.834    20994601.237
       242.000         206.000
 03  4 28 18 22  0.0000000  0  9G24G21G29G 5G17G26G30G10G 6
  24572105.514    10320362.75149   8039345.64745  24572105.655    24572116.244
       208.000         142.000
  22692412.883   -10739322.92449  -8339979.59746  22692411.950    22692419.282
       231.000         174.000
  23757187.397   -11782549.07349  -8840366.85445  23757187.971    23757197.463
       218.000         154.000
  22644295.102     9828223.47449   7704307.87146  22644295.560    22644304.842
       229.000         175.000
  22253820.124    -8279053.68849  -6431311.42747  22253819.271    22253827.570
       233.000         190.000
  24023766.342    -8348684.13549  -5795920.62645  24023766.213    24023777.611
       212.000         146.000
  20951309.293     1830893.93349   1441351.89947  20951309.420    20951316.923
       244.000         206.000
  21275841.883     1890493.42149   1485214.88447  21275841.022    21275848.659
       239.000         201.000
  20985139.759    -9028070.01449  -7017508.97847  20985139.530    20985146.243
       243.000         207.000
 03  4 28 18 22 30.0000000  0  9G24G21G29G 5G17G26G30G10G 6
  24586586.785    10396461.92649   8098643.63345  24586586.500    24586596.451
       209.000         141.000
  22680944.202   -10799591.62049  -8386942.17046  22680943.569    22680949.880
       231.000         176.000
  23745046.279   -11846352.15949  -8890083.37445  23745045.147    23745055.994
       213.000         153.000
  22662759.622     9925254.16349   7779916.01746  22662758.309    22662769.011
       223.000         175.000
  22244566.582    -8327681.05149  -6469202.86147  22244565.608    22244573.730
       232.000         190.000
  24006569.236    -8439054.55749  -5866338.91945  24006567.389    24006581.533
       207.000         142.000
  20962045.980     1887315.19649   1485316.44647  20962046.547    20962053.111
       245.000         207.000
  21286975.509     1949000.84149   1530805.04247  21286974.564    21286982.338
       239.000         200.000
  20975727.905    -9077530.00349  -7056049.24447  20975727.606    20975734.200
       242.000         207.000
 03  4 28 18 23  0.0000000  0  9G24G21G29G 5G17G26G30G10G 6
  24601056.990    10472503.02049   8157896.35445  24601057.572    24601066.939
       212.000         147.000
  22669510.581   -10859676.31149  -8433761.37946  22669509.815    22669516.367
       230.000         177.000
  23732944.878   -11909943.45249  -8939634.89745  23732943.875    23732955.941
       213.000         154.000
  22681261.265    10022482.47449   7855678.16746  22681262.129    22681271.500
       228.000         174.000
  22235350.093    -8376113.90849  -6506942.73647  22235349.598    22235357.241
       232.000         189.000
  23989375.601    -8529403.44049  -5936740.47545  23989374.382    23989389.185
       206.000         141.000
  20972875.363     1944223.82949   1529660.74847  20972874.991    20972882.525
       242.000         206.000
  21298204.127     2008006.85749   1576783.72647  21298203.381    21298210.747
       239.000         200.000
  20966359.896    -9126759.12349  -7094409.61247  20966359.661    20966366.087
       243.000         207.000
 03  4 28 18 23 30.0000000  0  9G24G21G29G 5G17G26G30G10G 6
  24615516.042    10548485.06749   8217103.07045  24615516.233    24615526.254
       212.000         148.000
  22658111.685   -10919577.86949  -8480437.88246  22658111.316    22658117.153
       230.000         177.000
  23720884.292   -11973320.94749  -8989019.83245  23720883.824    23720895.325
       214.000         156.000
  22699800.661    10119904.99549   7931591.61846  22699801.385    22699809.875
       227.000         175.000
  22226170.516    -8424352.45149  -6544531.18347  22226169.983    22226177.751
       232.000         188.000
  23972187.500    -8619727.96949  -6007122.98045  23972186.651    23972200.599
       209.000         145.000
  20983796.804     2001617.02549   1574382.65147  20983797.449    20983804.616
       244.000         207.000
  21309526.896     2067508.35949   1623148.49747  21309525.972    21309533.602
       238.000         200.000
  20957036.075    -9175756.14249  -7132589.11847  20957035.996    20957042.160
       243.000         207.000
 03  4 28 18 24  0.0000000  0  9G24G21G29G 5G17G26G30G10G 6
  24629963.999    10624408.46149   8276264.07145  24629963.291    24629974.114
       208.000         147.000
  22646747.822   -10979295.14549  -8526970.79646  22646747.353    22646753.431
       229.000         177.000
  23708865.490   -12036480.65849  -9038235.04545  23708864.964    23708875.103
       215.000         156.000
  22718376.200    10217519.85949   8007655.00146  22718374.457    22718385.569
       222.000         173.000
  22217028.015    -8472396.65049  -6581968.19747  22217027.662    22217035.605
       232.000         188.000
  23955004.067    -8710023.96849  -6077483.31445  23955001.767    23955016.689
       205.000         143.000
  20994810.490     2059493.57749   1619481.19047  20994811.105    20994817.716
       245.000         208.000
  21320943.669     2127503.79449   1669898.15347  21320943.178    21320950.430
       239.000         200.000
  20947757.018    -9224518.31449  -7170585.62547  20947756.730    20947763.044
       242.000         208.000
 03  4 28 18 24 30.0000000  0  9G24G21G29G 5G17G26G30G10G 6
  24644400.406    10700272.79149   8335378.99345  24644398.748    24644410.316
       204.000         144.000
  22635418.800   -11038829.38949  -8573361.09446  22635418.406    22635425.072
       230.000         177.000
  23696888.558   -12099420.12749  -9087278.62745  23696887.086    23696898.434
       214.000         155.000
  22736987.690    10315323.77549   8083865.64446  22736989.050    22736996.883
       228.000         173.000
  22207922.273    -8520247.71249  -6619254.71347  22207921.016    22207929.456
       233.000         189.000
  23937827.034    -8800288.77849  -6147819.34645  23937827.257    23937838.267
       208.000         144.000
  21005915.555     2117850.58649   1664954.11447  21005915.807    21005922.225
       245.000         207.000
  21332453.931     2187990.03649   1717030.25247  21332453.020    21332460.359
       238.000         200.000
  20938522.793    -9273044.47549  -7208398.22547  20938522.433    20938529.125
       243.000         208.000
 03  4 28 18 25  0.0000000  0  9G24G21G29G 5G17G26G30G10G 6
  24658825.195    10776076.64049   8394446.80545  24658825.960    24658835.663
       206.000         140.000
  22624124.562   -11098181.28249  -8619609.28746  22624123.066    22624130.079
       230.000         178.000
  23684953.548   -12162137.12849  -9136148.88745  23684953.698    23684964.115
       214.000         156.000
  22755634.971    10413313.46849   8160221.07146  22755633.803    22755643.987
       224.000         172.000
  22198853.156    -8567905.86449  -6656390.91147  22198852.384    22198861.127
       233.000         190.000
  23920656.710    -8890519.63049  -6218128.90045  23920656.254    23920669.937
       206.000         145.000
  21017111.572     2176685.39049   1710799.33247  21017112.066    21017118.694
       245.000         207.000
  21344056.874     2248964.18049   1764542.53847  21344055.558    21344063.451
       237.000         200.000
  20929333.679    -9321333.33649  -7246025.91747  20929333.404    20929339.822
       243.000         209.000
 03  4 28 18 25 30.0000000  0  9G24G21G29G 5G17G26G30G10G 6
  24673238.896    10851819.83749   8453467.40645  24673238.003    24673250.264
       202.000         138.000
  22612865.041   -11157350.69549  -8665715.28546  22612864.330    22612870.149
       230.000         178.000
  23673061.541   -12224628.70749  -9184843.48545  23673061.201    23673072.550
       213.000         157.000
  22774316.346    10511485.90449   8236718.90246  22774316.509    22774326.664
       224.000         172.000
  22189820.708    -8615371.82649  -6693377.36047  22189820.387    22189828.204
       234.000         191.000
  23903493.151    -8980713.20049  -6288409.43345  23903492.027    23903507.908
       205.000         144.000
  21028398.016     2235995.71549   1757015.09447  21028398.533    21028405.530
       245.000         207.000
  21355752.237     2310423.95549   1812433.22247  21355751.511    21355759.128
       237.000         199.000
  20920190.192    -9369383.13549  -7283467.33047  20920189.914    20920196.351
       244.000         210.000
 03  4 28 18 26  0.0000000  0  9G24G21G29G 5G17G26G30G10G 6
  24687640.997    10927503.22449   8512441.37845  24687640.632    24687649.519
       204.000         134.000
  22601640.247   -11216337.13149  -8711678.71246  22601639.501    22601646.073
       231.000         178.000
  23661213.223   -12286890.75049  -9233359.23545  23661212.743    23661223.217
       214.000         156.000
  22793032.692    10609839.64949   8313357.98646  22793033.841    22793042.542
       226.000         172.000
  22180824.987    -8662644.91949  -6730213.52247  22180824.125    22180832.868
       234.000         192.000
  23886337.209    -9070864.99249  -6358657.42645  23886335.414    23886348.339
       204.000         143.000
  21039774.776     2295780.38849   1803600.47947  21039775.357    21039782.091
       244.000         207.000
  21367539.809     2372367.77549   1860701.09247  21367538.991    21367546.373
       236.000         199.000
  20911092.653    -9417191.04249  -7320720.24547  20911092.412    20911098.839
       244.000         210.000
 03  4 28 18 26 30.0000000  0  9G24G21G29G 5G17G26G30G10G 6
  24702031.631    11003126.46249   8571368.50844  24702033.188    24702043.621
       205.000         131.000
  22590450.264   -11275140.84049  -8757499.75846  22590449.447    22590455.807
       230.000         177.000
  23649409.208   -12348920.82049  -9281694.19145  23649408.595    23649420.227
       215.000         157.000
  22811783.077    10708371.66549   8390135.98446  22811783.341    22811791.576
       225.000         171.000
  22171865.734    -8709725.87849  -6766899.95347  22171864.827    22171872.927
       234.000         192.000
  23869190.261    -9160971.99349  -6428870.47645  23869190.793    23869202.908
       212.000         145.000
  21051241.213     2356036.86249   1850553.51647  21051241.399    21051247.969
       244.000         205.000
  21379418.827     2434792.79549   1909343.92547  21379418.027    21379425.678
       237.000         199.000
  20902041.426    -9464755.44049  -7357783.41747  20902041.198    20902047.642
       245.000         210.000
 03  4 28 18 27  0.0000000  0  9G24G21G29G 5G17G26G30G10G 6
  24716410.664    11078687.85349   8630247.46844  24716410.695    24716422.275
       201.000         129.000
  22579294.807   -11333762.75549  -8803179.14946  22579293.480    22579300.108
       229.000         177.000
  23637649.734   -12410716.65449  -9329846.68045  23637649.566    23637660.765
       213.000         157.000
  22830566.195    10807078.04349   8467049.86846  22830565.249    22830577.099
       224.000         170.000
  22162942.855    -8756615.88049  -6803437.59847  22162942.104    22162949.952
       232.000         191.000
  23852052.441    -9251031.73349  -6499046.73545  23852050.699    23852066.144
       205.000         145.000
  21062796.948     2416762.08449   1897871.78747  21062797.679    21062803.764
       245.000         205.000
  21391388.909     2497695.67949   1958359.11747  21391388.260    21391395.892
       237.000         199.000
  20893036.745    -9512075.45449  -7394656.15247  20893036.632    20893043.069
       244.000         211.000
 03  4 28 18 27 30.0000000  0  9G24G21G29G 5G17G26G30G10G 6
  24730778.001    11154188.81149   8689079.30544  24730775.251    24730787.943
       202.000         127.000
  22568174.200   -11392201.68249  -8848715.95046  22568173.069    22568179.431
       230.000         177.000
  23625935.637   -12472274.13849  -9377813.41045  23625934.816    23625945.392
       214.000         156.000
  22849382.473    10905957.53549   8544098.64346  22849383.131    22849392.997
       224.000         171.000
  22154056.462    -8803314.07149  -6839825.78147  22154055.746    22154063.464
       233.000         190.000
  23834924.174    -9341039.54249  -6569182.54645  23834924.035    23834937.153
       207.000         145.000
  21074441.789     2477954.96649   1945554.48147  21074441.887    21074448.849
       242.000         205.000
  21403449.678     2561075.26849   2007745.76247  21403449.091    21403456.862
       237.000         199.000
  20884079.195    -9559147.79049  -7431335.90147  20884078.893    20884085.531
       243.000         211.000
 03  4 28 18 28  0.0000000  0  9G24G21G29G 5G17G26G30G10G 6
  24745133.724    11229628.39349   8747863.25844  24745133.301    24745144.672
       207.000         130.000
  22557088.269   -11450458.47749  -8894110.83346  22557087.673    22557094.056
       231.000         177.000
  23614267.367   -12533590.81749  -9425592.53445  23614267.823    23614278.034
       217.000         156.000
  22868231.286    11005006.89849   8621279.75646  22868231.503    22868241.332
       222.000         172.000
  22145206.367    -8849821.35049  -6876065.20247  22145205.393    22145213.602
       233.000         190.000
  23817806.674    -9430992.43349  -6639275.52145  23817805.346    23817819.011
       209.000         145.000
  21086174.789     2539612.64149   1993599.36747  21086174.475    21086181.932
       242.000         204.000
  21415600.661     2624928.66849   2057501.61047  21415600.099    21415607.403
       238.000         199.000
  20875168.960    -9605971.33249  -7467821.78447  20875168.791    20875175.308
       244.000         210.000
 03  4 28 18 28 30.0000000  0  9G24G21G29G 5G17G26G30G10G 6
  24759477.584    11305004.87549   8806598.14245  24759477.380    24759487.475
       211.000         134.000
  22546036.894   -11508534.54649  -8939364.87946  22546036.364    22546041.953
       230.000         178.000
  23602645.261   -12594664.95249  -9473182.67145  23602644.419    23602654.822
       214.000         155.000
  22887111.206    11104222.12149   8698590.14446  22887110.813    22887120.574
       222.000         170.000
  22136392.332    -8896139.08349  -6912156.91747  22136391.525    22136399.521
       233.000         190.000
  23800699.778    -9520888.47249  -6709324.22845  23800699.159    23800712.593
       209.000         146.000
  21097995.723     2601731.82749   2042003.83747  21097996.071    21098002.585
       243.000         203.000
  21427841.145     2689252.17649   2107623.78547  21427840.205    21427848.003
       238.000         199.000
  20866306.254    -9652545.39849  -7504113.26847  20866306.027    20866312.366
       244.000         211.000
 03  4 28 18 29  0.0000000  0  9G24G21G29G 5G17G26G30G10G 6
  24773809.553    11380319.36749   8865284.67545  24773810.038    24773819.986
       215.000         138.000
  22535019.950   -11566429.05949  -8984477.45746  22535019.441    22535025.565
       230.000         178.000
  23591069.842   -12655492.73849  -9520580.84445  23591069.612    23591079.766
       213.000         154.000
  22906022.701    11203601.31549   8776028.29646  22906023.370    22906032.754
       225.000         171.000
  22127614.539    -8942266.73649  -6948100.52847  22127613.692    22127621.479
       233.000         190.000
  23783604.481    -9610723.15149  -6779325.13245  23783603.344    23783616.727
       213.000         147.000
  21109904.205     2664310.87149   2090766.64247  21109904.038    21109910.848
       241.000         202.000
  21440170.671     2754044.13349   2158110.97247  21440170.009    21440177.251
       238.000         198.000
  20857491.506    -9698867.19249  -7540208.17447  20857491.349    20857497.748
       244.000         211.000
 03  4 28 18 29 30.0000000  0  9G24G21G29G 5G17G26G30G10G 6
  24788129.887    11455571.86249   8923922.85545  24788129.745    24788140.025
       204.000         142.000
  22524037.497   -11624141.99049  -9029448.53646  22524037.054    22524043.385
       230.000         178.000
  23579542.276   -12716070.91149  -9567784.50445  23579542.203    23579552.029
       213.000         160.000
  22924965.160    11303142.18449   8853592.40946  22924964.437    22924976.775
       222.000         171.000
  22118872.880    -8988204.25649  -6983895.98447  22118872.103    22118879.897
       234.000         191.000
  23766521.506    -9700492.81449  -6849275.31845  23766521.050    23766535.457
       209.000         147.000
  21121899.730     2727347.73449   2139886.20047  21121899.633    21121906.761
       241.000         201.000
  21452588.987     2819302.37649   2208961.50047  21452588.432    21452595.495
       240.000         199.000
  20848725.235    -9744934.42449  -7576104.71847  20848725.058    20848731.760
       244.000         211.000
 03  4 28 18 30  0.0000000  0  9G24G21G29G 5G17G26G30G10G 6
  24802438.128    11530761.14849   8982511.93245  24802438.149    24802448.335
       215.000         143.000
  22513089.326   -11681674.58949  -9074279.10646  22513088.273    22513095.497
       231.000         179.000
  23568062.557   -12776397.56249  -9614792.20245  23568062.010    23568072.537
       217.000         157.000
  22943936.949    11402840.76549   8931279.48545  22943939.441    22943944.474
       203.000         149.000
  22110167.101    -9033953.56249  -7019544.78347  22110166.610    22110174.238
       232.000         192.000
  23749451.821    -9790194.14459  -6919172.03445  23749450.747    23749464.601
       201.000         144.000
  21133981.734     2790839.13749   2189359.92447  21133981.659    21133989.081
       243.000         204.000
  21465095.317     2885023.09649   2260172.40747  21465094.634    21465101.914
       238.000         197.000
  20840007.492    -9790746.47749  -7611802.42047  20840007.183    20840013.768
       243.000         211.000
 03  4 28 18 30 30.0000000  0  9G24G21G29G 5G17G26G30G10G 6
  24816734.226    11605887.06149   9041051.47445  24816734.112    24816744.043
       219.000         146.000
  22502175.525   -11739026.62249  -9118968.98146  22502174.779    22502181.155
       230.000         180.000
  23556631.445   -12836469.76349  -9661601.57845  23556631.433    23556640.463
       217.000         156.000
  22962938.648    11502694.83649   9009087.58845  22962940.047    22962948.958
       224.000         162.000
  22101497.069    -9079515.06549  -7055047.24947  22101496.402    22101504.697
       233.000         193.000
  23732395.258    -9879825.39349  -6989014.47945  23732394.775    23732409.593
       211.000         149.000
  21146149.762     2854782.82549   2239186.09947  21146150.175    21146157.101
       241.000         203.000
  21477689.178     2951203.95449   2311741.84947  21477688.346    21477695.610
       238.000         197.000
  20831338.688    -9836301.26849  -7647299.66447  20831338.534    20831345.180
       244.000         211.000
 03  4 28 18 31  0.0000000  0  9G24G21G29G 5G17G26G30G10G 6
  24831018.191    11680949.80749   9099541.85245  24831017.964    24831028.501
       214.000         144.000
  22491296.212   -11796197.49449  -9163517.67946  22491296.270    22491302.075
       230.000         180.000
  23545249.250   -12896283.86949  -9708209.86445  23545249.693    23545257.914
       214.000         156.000
  22981969.935    11602701.84849   9087014.92646  22981971.142    22981980.725
       226.000         169.000
  22092862.821    -9124888.00449  -7090402.78247  22092862.080    22092870.414
       234.000         194.000
  23715353.092    -9969381.66249  -7058798.41145  23715353.852    23715366.420
       213.000         151.000
  21158403.618     2919177.11149   2289363.37547  21158404.401    21158410.811
       242.000         202.000
  21490370.230     3017842.98949   2363668.31547  21490369.327    21490377.016
       236.000         198.000
  20822719.344    -9881596.29049  -7682594.49147  20822719.381    20822725.272
       244.000         211.000
 03  4 28 18 31 30.0000000  0 10G24G21G29G 5G17G26G30G10G 6G18
  24845288.634    11755942.23449   9157977.45345  24845288.025    24845298.323
       213.000         140.000
  22480450.055   -11853194.22049  -9207930.69446  22480449.239    22480456.015
       231.000         180.000
  23533915.125   -12955844.66049  -9754620.77745  23533915.559    23533924.637
       219.000         158.000
  23001028.113    11702851.62349   9165053.53746  23001027.480    23001039.874
       222.000         170.000
  22084263.107    -9170080.07949  -7125617.38647  22084262.593    22084270.175
       234.000         194.000
  23698324.481   -10058867.01849  -7128527.08045  23698324.142    23698339.247
       208.000         150.000
  21170741.388     2984012.00849   2339883.98447  21170741.401    21170748.809
       241.000         202.000
  21503136.577     3084930.31249   2415944.08547  21503135.869    21503143.166
       237.000         197.000
  20814148.417    -9926637.11849  -7717691.24547  20814147.865    20814154.541
       243.000         211.000
  24762215.238    -4475544.61759  -3052473.82445  24762214.905    24762225.556
       208.000         136.000
 03  4 28 18 32  0.0000000  0 10G24G21G29G 5G17G26G30G10G 6G18
  24859547.286    11830872.29949   9216364.45645  24859546.244    24859557.894
       209.000         141.000
  22469638.166   -11910011.15749  -9252203.60746  22469637.733    22469644.140
       232.000         181.000
  23522631.697   -13015140.48649  -9800825.19945  23522630.712    23522640.711
       219.000         157.000
  23020114.140    11803149.97749   9243207.89446  23020114.127    23020124.914
       221.000         168.000
  22075699.288    -9215083.45949  -7160684.96347  22075698.602    22075706.574
       235.000         194.000
  23681311.799   -10148269.47749  -7198191.19245  23681312.928    23681324.885
       217.000         152.000
  21183164.129     3049293.72749   2390752.76847  21183164.830    21183172.154
       244.000         203.000
  21515989.288     3152471.70349   2468573.67547  21515988.241    21515995.768
       236.000         197.000
  20805627.752    -9971413.35649  -7752581.82047  20805627.494    20805633.869
       244.000         211.000
  24741351.569    -4585183.67149  -3137906.75145  24741349.830    24741362.765
       208.000         136.000
 03  4 28 18 32 30.0000000  0 10G24G21G29G 5G17G26G30G10G 6G18
  24873794.487    11905741.50349   9274704.03245  24873793.521    24873805.783
       209.000         141.000
  22458861.057   -11966645.17749  -9296334.00146  22458860.734    22458866.774
       232.000         181.000
  23511399.516   -13074166.73949  -9846819.57645  23511398.328    23511409.020
       217.000         157.000
  23039228.501    11903595.88149   9321477.20746  23039228.534    23039237.126
       221.000         166.000
  22067171.659    -9259896.65249  -7195604.33347  22067170.885    22067178.752
       234.000         193.000
  23664315.851   -10237583.86749  -7267786.65245  23664314.966    23664328.690
       213.000         152.000
  21195671.887     3115021.57349   2441969.18347  21195672.201    21195679.302
       243.000         204.000
  21528928.221     3220466.38449   2521556.47547  21528927.314    21528934.859
       235.000         196.000
  20797158.131   -10015921.44849  -7787263.46147  20797158.027    20797163.950
       243.000         211.000
  24720500.640    -4694754.69849  -3223286.56645  24720499.774    24720514.215
       212.000         139.000
 03  4 28 18 33  0.0000000  0  9G21G29G 5G17G26G30G10G 6G18
  22448118.544   -12023097.61549  -9340322.90146  22448118.121    22448124.298
       232.000         181.000
  23500218.521   -13132922.39449  -9892603.08045  23500218.497    23500227.897
       216.000         157.000
  23058370.180    12004184.82549   9399857.98646  23058370.342    23058382.536
       220.000         166.000
  22058679.701    -9304522.12249  -7230377.41947  22058678.784    22058687.025
       234.000         193.000
  23647336.951   -10326808.51649  -7337312.16245  23647337.359    23647350.830
       215.000         153.000
  21208263.569     3181191.15149   2493529.80347  21208263.874    21208270.908
       243.000         203.000
  21541952.682     3288909.93949   2574889.05447  21541951.647    21541959.494
       236.000         196.000
  20788739.608   -10060161.39249  -7821736.14547  20788739.495    20788745.829
       243.000         211.000
  24699663.320    -4804257.51549  -3308613.29845  24699662.400    24699675.844
       212.000         138.000
 03  4 28 18 33 30.0000000  0  9G21G29G 5G17G26G30G10G 6G18
  22437410.403   -12079369.40949  -9384171.03946  22437409.475    22437416.112
       232.000         181.000
  23489089.217   -13191404.85049  -9938173.73745  23489087.713    23489099.185
       209.000         155.000
  23077538.449    12104913.74149   9478347.88146  23077537.453    23077550.352
       221.000         166.000
  22050223.267    -9348960.76349  -7265004.92847  22050222.449    22050230.530
       234.000         193.000
  23630375.883   -10415940.31049  -7406765.32745  23630375.402    23630390.182
       214.000         155.000
  21220938.917     3247799.79649   2545432.55147  21220939.639    21220946.893
       244.000         204.000
  21555061.975     3357799.44849   2628569.13447  21555060.792    21555068.819
       236.000         196.000
  20780372.330   -10104131.63649  -7855998.67547  20780371.808    20780378.509
       242.000         211.000
  24678839.109    -4913690.24449  -3393885.37145  24678837.137    24678850.796
       203.000         135.000
 03  4 28 18 34  0.0000000  0  9G21G29G 5G17G26G30G10G 6G18
  22426736.749   -12135459.48049  -9427877.57546  22426735.514    22426742.385
       230.000         181.000
  23478012.797   -13249610.12049  -9983528.37845  23478013.440    23478022.089
       216.000         155.000
  23096733.071    12205781.23949   9556945.70946  23096732.415    23096742.164
       219.000         165.000
  22041802.566    -9393211.73449  -7299486.21247  22041802.028    22041809.802
       234.000         194.000
  23613433.016   -10504974.35749  -7476142.35245  23613433.800    23613444.821
       217.000         153.000
  21233697.553     3314846.23049   2597676.44247  21233697.967    21233705.023
       243.000         204.000
  21568255.719     3427133.23749   2682595.39047  21568255.078    21568262.461
       235.000         195.000
  20772056.933   -10147828.98649  -7890048.57147  20772056.584    20772063.183
       242.000         211.000
  24658027.610    -5023049.19549  -3479100.00945  24658027.013    24658040.013
       206.000         134.000
 03  4 28 18 34 30.0000000  0  9G21G29G 5G17G26G30G10G 6G18
  22416097.131   -12191370.53549  -9471444.62846  22416096.839    22416102.703
       230.000         180.000
  23466989.601   -13307537.73549 -10028666.63445  23466988.362    23466999.975
       214.000         156.000
  23115952.778    12306782.01749   9635647.41046  23115952.559    23115961.259
       219.000         163.000
  22033417.024    -9437277.77549  -7333823.38347  22033416.173    22033424.721
       234.000         194.000
  23596509.201   -10593910.14049  -7545442.75845  23596508.807    23596524.390
       214.000         153.000
  21246538.577     3382325.49849   2650257.61147  21246539.127    21246545.695
       244.000         203.000
  21581533.181     3496906.40849   2736964.03847  21581532.706    21581540.276
       236.000         195.000
  20763793.356   -10191254.09749  -7923886.32047  20763793.135    20763799.615
       243.000         211.000
  24637231.677    -5132334.91549  -3564257.56345  24637232.209    24637242.391
       214.000         137.000
 03  4 28 18 35  0.0000000  0  9G21G29G 5G17G26G30G10G 6G18
  22405491.572   -12247102.74249  -9514872.31246  22405491.711    22405497.154
       231.000         180.000
  23456019.556   -13365184.82749 -10073586.34245  23456019.016    23456029.271
       214.000         156.000
  23135197.653    12407913.45149   9714450.91646  23135197.166    23135207.259
       219.000         163.000
  22025066.667    -9481159.00849  -7368016.55547  22025065.934    22025074.565
       234.000         194.000
  23579604.563   -10682743.61349  -7614663.48445  23579604.979    23579616.837
       215.000         153.000
  21259461.562     3450235.33549   2703174.27447  21259461.711    21259468.567
       243.000         203.000
  21594893.757     3567116.60049   2791673.22147  21594892.777    21594900.860
       235.000         195.000
  20755582.109   -10234404.87849  -7957510.31647  20755582.000    20755588.274
       243.000         211.000
  24616449.688    -5241544.95349  -3649356.10845  24616445.499    24616460.251
       209.000         136.000
 03  4 28 18 35 30.0000000  0  9G21G29G 5G17G26G30G10G 6G18
  22394920.051   -12302656.10949  -9558160.64646  22394919.590    22394925.745
       232.000         181.000
  23445103.674   -13422547.51549 -10118284.38545  23445102.343    23445113.739
       214.000         157.000
  23154467.037    12509173.62249   9793354.74246  23154467.316    23154478.701
       220.000         164.000
  22016751.587    -9524854.84449  -7402065.25647  22016751.130    22016758.938
       234.000         194.000
  23562720.238   -10771470.66349  -7683801.24945  23562719.769    23562733.870
       214.000         150.000
  21272466.078     3518574.08949   2756425.16247  21272466.318    21272473.601
       243.000         203.000
  21608337.070     3637761.92949   2846721.46647  21608336.730    21608344.075
       236.000         195.000
  20747423.522   -10277278.72449  -7990918.51847  20747423.238    20747429.817
       243.000         210.000
  24595682.303    -5350676.21449  -3734393.32345  24595681.874    24595692.914
       206.000         136.000
 03  4 28 18 36  0.0000000  0  9G21G29G 5G17G26G30G10G 6G18
  22384382.503   -12358031.22949  -9601310.07346  22384381.615    22384388.096
       232.000         182.000
  23434242.027   -13479624.32149 -10162759.70945  23434241.312    23434252.054
       213.000         157.000
  23173759.939    12610558.37649   9872355.68246  23173759.170    23173770.696
       220.000         164.000
  22008471.464    -9568366.91049  -7435970.76447  22008470.743    22008479.030
       234.000         194.000
  23545856.719   -10860089.00649  -7752854.33445  23545856.203    23545870.633
       214.000         153.000
  21285551.474     3587337.83649   2810007.20847  21285551.659    21285558.241
       242.000         202.000
  21621862.609     3708838.45249   2902105.71147  21621862.196    21621869.517
       236.000         195.000
  20739317.620   -10319875.15349  -8024110.54847  20739317.090    20739323.964
       242.000         210.000
  24574930.484    -5459727.88849  -3819368.46145  24574929.460    24574942.629
       211.000         135.000
 03  4 28 18 36 30.0000000  0  9G21G29G 5G17G26G30G10G 6G18
  22373878.921   -12413228.11549  -9644320.62346  22373878.087    22373885.118
       232.000         182.000
  23423435.582   -13536412.22949 -10207009.90945  23423435.383    23423446.016
       216.000         159.000
  23193076.280    12712065.55849   9951451.97046  23193076.987    23193087.035
       223.000         163.000
  22000226.212    -9611696.03349  -7469733.71447  22000225.671    22000233.365
       236.000         195.000
  23529014.894   -10948594.83749  -7821819.73745  23529014.312    23529026.673
       213.000         153.000
  21298717.330     3656524.37949   2863918.70747  21298717.585    21298724.596
       243.000         201.000
  21635469.588     3780343.78849   2957824.09347  21635468.937    21635476.504
       235.000         195.000
  20731264.987   -10362192.03449  -8057084.76547  20731265.144    20731271.113
       243.000         210.000
  24554194.573    -5568697.36549  -3904279.55845  24554194.345    24554208.397
       212.000         139.000
 03  4 28 18 37  0.0000000  0  9G21G29G 5G17G26G30G10G 6G18
  22363409.135   -12468247.08749  -9687192.54546  22363408.794    22363415.229
       231.000         182.000
  23412684.714   -13592908.43549 -10251032.81845  23412683.806    23412693.832
       216.000         159.000
  23212415.743    12813692.21549  10030641.34646  23212416.209    23212425.717
       221.000         164.000
  21992015.989    -9654841.86449  -7503353.83647  21992015.435    21992023.187
       236.000         195.000
  23512194.620   -11036984.92349  -7890694.94145  23512194.696    23512207.731
       215.000         151.000
  21311963.052     3726130.91349   2918157.47447  21311962.895    21311970.493
       240.000         200.000
  21649157.719     3852274.95149   3013874.29547  21649157.100    21649165.063
       236.000         195.000
  20723265.912   -10404227.54449  -8089839.72047  20723265.632    20723272.226
       244.000         210.000
  24533474.040    -5677582.35849  -3989124.86845  24533471.731    24533485.040
       206.000         138.000
 03  4 28 18 37 30.0000000  0  9G21G29G 5G17G26G30G10G 6G18
  22352973.098   -12523088.94749  -9729926.45946  22352972.659    22352979.125
       231.000         183.000
  23401989.801   -13649110.65149 -10294826.63645  23401989.190    23401999.211
       219.000         160.000
  23231776.703    12915435.00049  10109921.24246  23231774.257    23231787.048
       217.000         164.000
  21983840.304    -9697805.72049  -7536832.15647  21983839.764    21983847.467
       236.000         195.000
  23495397.269   -11125256.07549  -7959477.47245  23495396.096    23495408.928
       212.000         152.000
  21325287.956     3796154.69649   2972721.36547  21325287.740    21325295.535
       238.000         199.000
  21662926.390     3924629.16349   3070254.14247  21662925.369    21662933.464
       235.000         195.000
  20715320.751   -10445979.97249  -8122374.09947  20715320.472    20715326.802
       243.000         211.000
  24512769.900    -5786381.48749  -4073903.24045  24512769.803    24512780.102
       209.000         137.000
 03  4 28 18 38  0.0000000  0  9G21G29G 5G17G26G30G10G 6G18
  22342570.648   -12577754.00849  -9772522.60246  22342569.621    22342576.340
       231.000         183.000
  23391351.333   -13705015.75249 -10338388.95845  23391350.065    23391361.897
       214.000         160.000
  23251159.178    13017291.58349  10189289.78946  23251160.097    23251170.927
       223.000         164.000
  21975698.990    -9740588.31149  -7570169.23047  21975698.241    21975706.311
       234.000         195.000
  23478622.886   -11213404.85749  -8028164.64445  23478622.498    23478633.696
       213.000         151.000
  21338691.789     3866593.05549   3027608.28447  21338692.151    21338699.010
       239.000         198.000
  21676775.033     3997403.67949   3126961.49247  21676774.102    21676781.842
       236.000         194.000
  20707429.707   -10487447.42449  -8154686.41247  20707429.065    20707435.985
       243.000         210.000
  24492083.181    -5895092.09749  -4158612.55545  24492081.845    24492094.992
       210.000         138.000
 03  4 28 18 38 30.0000000  0  9G21G29G 5G17G26G30G10G 6G18
  22332201.893   -12632241.70349  -9814980.53646  22332201.569    22332207.793
       232.000         183.000
  23380769.883   -13760620.75649 -10381717.44445  23380769.790    23380779.724
       217.000         160.000
  23270563.688    13119259.54049  10268745.07746  23270563.924    23270575.170
       218.000         164.000
  21967592.229    -9783189.15549  -7603364.68247  21967591.733    21967599.343
       235.000         195.000
  23461872.465   -11301427.29949  -8096753.37345  23461871.085    23461885.484
       214.000         149.000
  21352174.162     3937443.84249   3082816.59247  21352174.507    21352182.655
       240.000         199.000
  21690703.116     4070596.10749   3183994.49947  21690702.459    21690709.984
       234.000         193.000
  20699593.335   -10528627.79349  -8186775.03047  20699593.630    20699599.658
       245.000         211.000
  24471413.372    -6003711.64749  -4243250.98745  24471412.084    24471425.866
       209.000         138.000
 03  4 28 18 39  0.0000000  0  9G21G29G 5G17G26G30G10G 6G18
  22321867.014   -12686551.86249  -9857300.13546  22321866.343    22321873.595
       232.000         183.000
  23370246.224   -13815922.45649 -10424809.56545  23370246.055    23370255.401
       219.000         161.000
  23289987.983    13221336.25449  10348285.19546  23289987.297    23289998.657
       219.000         163.000
  21959520.188    -9825608.16249  -7636418.45647  21959519.431    21959527.408
       235.000         194.000
  23445147.082   -11389319.36849  -8165240.50545  23445145.304    23445158.363
       211.000         149.000
  21365734.681     4008704.90749   3138344.59847  21365735.649    21365742.676
       241.000         199.000
  21704710.370     4144204.31149   3241351.47947  21704709.632    21704717.034
       234.000         193.000
  20691812.170   -10569518.75349  -8218638.13047  20691811.857    20691818.326
       244.000         211.000
  24450760.736    -6112237.64749  -4327816.51445  24450759.621    24450773.047
       206.000         140.000
 03  4 28 18 39 30.0000000  0  9G21G29G 5G17G26G30G10G 6G18
  22311565.874   -12740684.93749  -9899481.73846  22311564.785    22311571.752
       232.000         183.000
  23359780.954   -13870917.74049 -10467662.94345  23359779.821    23359790.446
       216.000         161.000
  23309432.895    13323519.49149  10427908.25646  23309434.534    23309443.398
       222.000         164.000
  21951482.696    -9867845.78949  -7669330.89747  21951481.995    21951490.074
       235.000         194.000
  23428446.758   -11477077.43849  -8233623.22245  23428446.114    23428458.301
       212.000         147.000
  21379372.990     4080373.89549   3194190.44347  21379373.598    21379380.484
       240.000         198.000
  21718796.145     4218225.65549   3299030.38647  21718795.021    21718803.330
       233.000         192.000
  20684086.318   -10610118.28949  -8250274.14947  20684085.905    20684092.613
       243.000         211.000
  24430126.714    -6220667.80149  -4412307.29445  24430126.016    24430138.502
       210.000         140.000
 03  4 28 18 40  0.0000000  0  9G21G29G 5G17G26G30G10G 6G18
  22301298.407   -12794640.82149  -9941525.26846  22301297.913    22301304.093
       233.000         183.000
  23349374.352   -13925604.00149 -10510275.52145  23349373.125    23349382.620
       217.000         160.000
  23328898.057    13425806.40149  10507612.10846  23328898.530    23328909.504
       219.000         164.000
  21943479.644    -9909902.27549  -7702102.18747  21943478.976    21943487.064
       235.000         195.000
  23411773.058   -11564698.09249  -8301898.86445  23411773.756    23411786.170
       214.000         149.000
  21393088.277     4152448.09849   3250352.06347  21393088.473    21393096.447
       239.000         197.000
  21732959.998     4292657.45849   3357029.13447  21732959.165    21732967.317
       234.000         192.000
  20676416.277   -10650424.38449  -8281681.51147  20676416.075    20676422.405
       244.000         211.000
  24409511.847    -6328999.80349  -4496721.53245  24409510.937    24409524.317
       211.000         140.000
 03  4 28 18 40 30.0000000  0  9G21G29G 5G17G26G30G10G 6G18
  22291064.356   -12848421.08049  -9983431.95146  22291063.808    22291070.031
       234.000         183.000
  23339027.028   -13979979.57849 -10552646.01845  23339026.538    23339036.960
       218.000         160.000
  23348381.861    13528192.97749  10587393.61846  23348381.142    23348393.739
       218.000         164.000
  21935510.674    -9951779.56049  -7734733.84247  21935509.623    21935518.365
       236.000         195.000
  23395125.816   -11652178.87949  -8370065.49645  23395123.013    23395138.603
       208.000         148.000
  21406879.969     4224923.74349   3306826.49047  21406880.785    21406888.451
       241.000         199.000
  21747201.291     4367495.71749   3415344.59247  21747200.836    21747208.478
       234.000         192.000
  20668802.246   -10690436.51649  -8312859.81447  20668802.096    20668808.426
       245.000         212.000
  24388915.403    -6437232.59949  -4581058.53245  24388914.206    24388928.805
       210.000         140.000
 03  4 28 18 41  0.0000000  0  9G21G29G 5G17G26G30G10G 6G18
  22280864.090   -12902024.28949 -10025200.66946  22280863.369    22280869.669
       234.000         183.000
  23328739.645   -14034040.01949 -10594770.96945  23328740.209    23328749.516
       219.000         161.000
  23367884.089    13630678.35749  10667252.12445  23367883.931    23367895.311
       219.000         162.000
  21927575.948    -9993476.40649  -7767224.90147  21927574.986    21927583.701
       235.000         196.000
  23378506.028   -11739514.81749  -8438119.28745  23378506.926    23378517.585
       213.000         149.000
  21420747.932     4297799.61449   3363612.77747  21420748.434    21420755.625
       239.000         198.000
  21761519.663     4442739.34149   3473975.93047  21761518.624    21761526.713
       233.000         191.000
  20661244.856   -10730151.04449  -8343806.21847  20661244.718    20661251.061
       245.000         212.000
  24368338.718    -6545362.34749  -4665315.25845  24368337.201    24368349.556
       209.000         141.000
 03  4 28 18 41 30.0000000  0  9G21G29G 5G17G26G30G10G 6G18
  22270697.138   -12955452.07949 -10066832.69146  22270696.268    22270703.268
       233.000         183.000
  23318512.595   -14087784.10249 -10636649.37745  23318510.931    23318520.660
       215.000         159.000
  23387404.675    13733258.32849  10747184.30845  23387404.946    23387415.112
       218.000         162.000
  21919675.333   -10034994.53449  -7799576.69647  21919674.645    21919682.943
       237.000         197.000
  23361914.427   -11826703.76249  -8506058.50545  23361912.365    23361926.930
       209.000         149.000
  21434691.235     4371071.79149   3420707.88247  21434692.201    21434699.409
       241.000         198.000
  21775914.517     4518384.38449   3532920.06247  21775913.609    21775922.086
       234.000         191.000
  20653744.199   -10769567.71249  -8374520.52447  20653743.791    20653750.338
       244.000         212.000
  24347782.087    -6653388.29149  -4749491.01545  24347782.411    24347794.034
       210.000         142.000
 03  4 28 18 42  0.0000000  0  9G21G29G 5G17G26G30G10G 6G18
  22260563.560   -13008704.20649 -10108327.82746  22260563.583    22260569.591
       234.000         183.000
  23308345.931   -14141209.02849 -10678279.11345  23308345.178    23308354.938
       216.000         158.000
  23406942.744    13835930.28449  10827188.16345  23406942.871    23406954.736
       218.000         162.000
  21911808.740   -10076334.11349  -7831789.35947  21911808.481    21911816.160
       237.000         197.000
  23345351.488   -11913741.79349  -8573880.17345  23345351.170    23345363.532
       213.000         151.000
  21448709.691     4444737.80549   3478109.86247  21448710.497    21448718.196
       240.000         199.000
  21790385.197     4594428.08049   3592174.83547  21790384.411    21790392.380
       233.000         191.000
  20646300.483   -10808684.38549  -8405001.06847  20646300.124    20646306.659
       244.000         211.000
  24327245.544    -6761308.18449  -4833584.11045  24327243.899    24327258.023
       212.000         146.000
 03  4 28 18 42 30.0000000  0  9G21G29G 5G17G26G30G10G 6G18
  22250463.258   -13061781.56249 -10149686.80046  22250462.136    22250468.605
       234.000         184.000
  23298240.546   -14194312.04249 -10719658.00245  23298240.074    23298250.196
       218.000         161.000
  23426497.695    13938691.25649  10907261.40845  23426495.724    23426509.996
       216.000         160.000
  21903975.981   -10117495.68749  -7863863.32247  21903975.174    21903983.300
       237.000         197.000
  23328817.806   -12000625.70949  -8641581.73945  23328816.926    23328830.501
       211.000         152.000
  21462802.176     4518794.74449   3535816.46247  21462802.211    21462810.644
       240.000         198.000
  21804931.094     4670867.40049   3651737.88847  21804930.191    21804938.358
       235.000         191.000
  20638914.276   -10847499.28649  -8435246.47047  20638914.287    20638920.531
       245.000         211.000
  24306729.548    -6869119.83149  -4917592.88845  24306727.693    24306741.432
       214.000         145.000
 03  4 28 18 43  0.0000000  0  9G21G29G 5G17G26G30G10G 6G18
  22240396.353   -13114683.45949 -10190909.05446  22240395.974    22240402.282
       233.000         184.000
  23288197.150   -14247089.83049 -10760783.46045  23288196.457    23288207.831
       215.000         161.000
  23446068.807    14041539.19549  10987402.43145  23446068.065    23446080.978
       217.000         159.000
  21896177.028   -10158479.17049  -7895798.50647  21896176.343    21896184.370
       237.000         196.000
  23312314.126   -12087351.47549  -8709160.08345  23312315.600    23312325.280
       212.000         151.000
  21476968.862     4593240.56249   3593826.07647  21476969.953    21476977.304
       240.000         198.000
  21819552.031     4747700.31949   3711607.64447  21819551.129    21819559.355
       234.000         191.000
  20631585.969   -10886009.98949  -8465254.83147  20631585.531    20631592.316
       244.000         212.000
  24286234.625    -6976820.37049  -5001515.08845  24286232.831    24286246.667
       209.000         144.000
 03  4 28 18 43 30.0000000  0  9G21G29G 5G17G26G30G10G 6G18
  22230362.750   -13167410.39449 -10231994.96246  22230361.501    22230368.135
       233.000         184.000
  23278215.984   -14299539.94449 -10801653.60945  23278216.036    23278225.405
       216.000         159.000
  23465656.476    14144471.26249  11067608.94545  23465657.463    23465667.427
       219.000         158.000
  21888411.847   -10199285.34449  -7927595.52247  21888411.148    21888419.088
       237.000         196.000
  23295841.467   -12173915.63949  -8776612.46445  23295840.805    23295854.772
       212.000         153.000
  21491209.055     4668072.33749   3652136.44247  21491209.765    21491217.119
       241.000         198.000
  21834247.253     4824923.91149   3771781.82347  21834245.876    21834254.605
       233.000         191.000
  20624315.797   -10924214.89749  -8495024.90647  20624315.593    20624322.186
       244.000         212.000
  24265761.258    -7084408.09749  -5085349.40045  24265761.383    24265773.844
       215.000         146.000
 03  4 28 18 44  0.0000000  0  9G21G29G 5G17G26G30G10G 6G18
  22220362.335   -13219963.26749 -10272945.25546  22220361.624    22220367.551
       233.000         185.000
  23268297.645   -14351660.38649 -10842266.86445  23268297.373    23268307.518
       218.000         161.000
  23485259.381    14247484.12549  11147878.44745  23485259.093    23485270.782
       214.000         157.000
  21880680.245   -10239915.05649  -7959255.03447  21880679.531    21880687.343
       237.000         196.000
  23279399.792   -12260315.28649  -8843936.71445  23279399.797    23279411.844
       214.000         154.000
  21505522.157     4743286.65249   3710744.88047  21505522.846    21505530.198
       240.000         198.000
  21849016.144     4902534.64449   3832257.66347  21849015.481    21849022.875
       233.000         190.000
  20617104.095   -10962112.79549  -8524555.75147  20617103.846    20617110.324
       244.000         212.000
  24245310.119    -7191881.44849  -5169094.52545  24245308.192    24245320.893
       214.000         148.000
 03  4 28 18 44 30.0000000  0  9G21G29G 5G17G26G30G10G 6G18
  22210395.038   -13272341.67549 -10313759.60246  22210393.884    22210400.476
       233.000         185.000
  23258442.769   -14403448.00549 -10882620.78545  23258442.206    23258452.143
       218.000         161.000
  23504876.828    14350575.31249  11228208.98645  23504876.732    23504887.209
       217.000         156.000
  21872982.230   -10280368.90949  -7990777.51747  21872981.460    21872989.806
       237.000         196.000
  23262990.439   -12346546.60349  -8911129.73545  23262989.817    23263002.144
       213.000         154.000
  21519907.441     4818881.20349   3769649.62347  21519907.188    21519915.897
       239.000         197.000
  21863858.263     4980530.34949   3893033.49547  21863857.606    21863865.435
       231.000         189.000
  20609951.152   -10999701.61149  -8553845.74848  20609950.888    20609957.254
       244.000         213.000
  24224880.136    -7299237.77449  -5252748.53545  24224878.715    24224890.891
       209.000         147.000
 03  4 28 18 45  0.0000000  0  9G21G29G 5G17G26G30G10G 6G18
  22200460.790   -13324546.25349 -10354438.49346  22200460.441    22200465.955
       233.000         186.000
  23248651.770   -14454899.99849 -10922713.18845  23248651.613    23248660.147
       218.000         160.000
  23524509.140    14453742.33049  11308598.59745  23524509.001    23524521.835
       217.000         157.000
  21865317.695   -10320646.38049  -8022162.56347  21865317.236    21865324.921
       237.000         196.000
  23246613.895   -12432605.72749  -8978188.61845  23246615.483    23246626.360
       218.000         158.000
  21534364.471     4894853.56249   3828848.77147  21534365.249    21534372.661
       241.000         197.000
  21878773.110     5058908.51849   3954107.33347  21878772.611    21878780.325
       232.000         189.000
  20602857.511   -11036978.87749  -8582892.98248  20602857.529    20602863.887
       244.000         214.000
  24204473.402    -7406474.73049  -5336309.50145  24204472.652    24204485.649
       213.000         147.000
 03  4 28 18 45 30.0000000  0  9G21G29G 5G17G26G30G10G 6G18
  22190559.491   -13376577.97249 -10394982.68646  22190558.626    22190565.333
       234.000         186.000
  23238925.021   -14506014.68649 -10962542.73545  23238924.517    23238934.207
       220.000         161.000
  23544155.258    14556981.42149  11389044.35645  23544154.761    23544169.107
       217.000         157.000
  21857686.287   -10360749.66249  -8053411.87647  21857686.079    21857693.511
       237.000         196.000
  23230270.831   -12518490.29249  -9045111.49745  23230269.659    23230281.945
       216.000         159.000
  21548893.008     4971199.84949   3888339.24747  21548893.042    21548900.444
       241.000         197.000
  21893760.044     5137665.05249   4015476.01647  21893759.206    21893767.196
       231.000         188.000
  20595823.366   -11073943.86549  -8611696.87848  20595823.258    20595829.670
       245.000         214.000
  24184090.420    -7513591.10749  -5419776.49645  24184091.082    24184100.080
       216.000         147.000
 03  4 28 18 46  0.0000000  0  9G21G29G 5G17G26G30G10G 6G18
  22180691.172   -13428436.13249 -10435391.64046  22180690.777    22180696.985
       234.000         187.000
  23229263.195   -14556788.22649 -11002106.48346  23229263.106    23229272.947
       222.000         164.000
  23563814.540    14660291.23149  11469545.26845  23563813.921    23563826.639
       216.000         156.000
  21850088.338   -10400677.44649  -8084524.43347  21850087.749    21850095.455
       237.000         197.000
  23213961.501   -12604195.37349  -9111894.48845  23213962.178    23213972.019
       220.000         158.000
  21563492.003     5047918.51849   3948119.93747  21563491.675    21563500.178
       238.000         196.000
  21908818.594     5216798.40549   4077138.31546  21908817.811    21908825.826
       231.000         187.000
  20588849.148   -11110593.68749  -8640255.19448  20588848.797    20588855.266
       245.000         214.000
  24163730.189    -7620583.37749  -5503146.80845  24163726.300    24163740.572
       211.000         147.000
 03  4 28 18 46 30.0000000  0 10G21G29G 5G17G26G30G15G10G 6G18
  22170855.182   -13480124.76549 -10475668.48746  22170854.917    22170860.905
       234.000         187.000
  23219665.994   -14607222.40749 -11041405.78046  23219665.490    23219675.034
       219.000         163.000
  23583485.986    14763664.55549  11550095.60845  23583484.713    23583495.631
       216.000         154.000
  21842522.743   -10440434.87849  -8115504.24547  21842521.887    21842529.826
       236.000         197.000
  23197686.540   -12689721.96949  -9178538.40945  23197686.086    23197697.642
       218.000         160.000
  21578160.605     5125002.46249   4008185.25147  21578161.450    21578169.281
       241.000         197.000
  24745175.849    -5616781.27559  -4345145.27844  24745176.321    24745187.013
       197.000         131.000
  21923947.594     5296301.23649   4139088.52946  21923946.837    21923955.306
       230.000         187.000
  20581934.469   -11146930.81649  -8668569.85248  20581934.143    20581940.629
       244.000         214.000
  24143392.962    -7727454.13449  -5586422.44945  24143392.817    24143405.313
       216.000         149.000
 03  4 28 18 47  0.0000000  0 10G21G29G 5G17G26G30G15G10G 6G18
  22161051.031   -13531646.13449 -10515814.99946  22161050.504    22161057.007
       235.000         187.000
  23210133.407   -14657315.90949 -11080439.61045  23210132.689    23210142.567
       220.000         162.000
  23603168.798    14867097.17149  11630692.14645  23603168.936    23603180.506
       215.000         154.000
  21834989.101   -10480023.89649  -8146352.83347  21834988.162    21834996.017
       235.000         197.000
  23181445.473   -12775067.98449  -9245041.66345  23181445.729    23181457.164
       220.000         161.000
  21592898.093     5202447.42849   4068531.86747  21592897.868    21592905.712
       239.000         197.000
  24730473.004    -5694044.26048  -4405350.18444  24730472.850    24730483.370
       190.000         127.000
  21939145.982     5376169.40849   4201323.41346  21939144.366    21939153.087
       229.000         186.000
  20575079.314   -11182954.80949  -8696640.50048  20575079.059    20575085.505
       244.000         214.000
  24123079.652    -7834202.42249  -5669602.64145  24123077.651    24123090.178
       214.000         148.000
 03  4 28 18 47 30.0000000  0 10G21G29G 5G17G26G30G15G10G 6G18
  22151280.660   -13582989.80449 -10555823.05246  22151279.998    22151286.018
       234.000         187.000
  23200668.151   -14707056.01249 -11119198.06946  23200667.222    23200677.537
       221.000         163.000
  23622864.392    14970596.94149  11711341.05745  23622865.241    23622879.514
       219.000         158.000
  21827489.384   -10519434.43149  -8177062.32847  21827488.224    21827496.963
       235.000         197.000
  23165241.813   -12860219.32149  -9311393.16845  23165240.957    23165250.669
       219.000         160.000
  21607705.413     5280261.00349   4129165.71247  21607705.697    21607713.561
       239.000         196.000
  24715789.226    -5771207.47649  -4465477.36444  24715790.994    24715799.891
       199.000         126.000
  21954415.425     5456410.88949   4263849.20446  21954414.775    21954423.049
       232.000         185.000
  20568286.121   -11218653.36849  -8724457.56848  20568285.732    20568292.572
       244.000         213.000
  24102791.008    -7940815.65849  -5752677.63145  24102789.316    24102800.851
       211.000         145.000
 03  4 28 18 48  0.0000000  0 10G21G29G 5G17G26G30G15G10G 6G18
  22141543.356   -13634159.22149 -10595695.32446  22141542.259    22141549.204
       232.000         185.000
  23191270.038   -14756442.73549 -11157681.18446  23191269.448    23191279.672
       217.000         164.000
  23642572.008    15074158.31249  11792037.93845  23642571.408    23642584.537
       216.000         159.000
  21820023.049   -10558669.76649  -8207635.30747  21820022.223    21820030.791
       235.000         197.000
  23149074.884   -12945175.40549  -9377592.55245  23149074.379    23149085.304
       217.000         158.000
  21622582.093     5358437.58749   4190082.42847  21622582.568    21622590.378
       239.000         197.000
  24701124.122    -5848273.98349  -4525529.04144  24701121.220    24701133.868
       202.000         126.000
  21969754.790     5537019.70649   4326661.21546  21969753.746    21969761.941
       231.000         185.000
  20561554.554   -11254027.66749  -8752021.95948  20561554.222    20561560.887
       244.000         213.000
  24082528.223    -8047294.79049  -5835648.13045  24082527.123    24082539.326
       213.000         147.000
 03  4 28 18 48 30.0000000  0 11G21G23G29G 5G17G26G30G15G10G 6G18
  22131837.953   -13685160.67949 -10635436.70846  22131837.108    22131844.186
       233.000         185.000
  24486855.949    -7019371.27559  -5441040.59345  24486854.154    24486873.568
       201.000         133.000
  23181938.320   -14805479.83049 -11195891.86346  23181937.688    23181948.032
       219.000         163.000
  23662288.963    15177772.13049  11872775.68945  23662289.118    23662298.855
       215.000         155.000
  21812588.785   -10597736.94149  -8238077.25247  21812588.000    21812596.432
       237.000         198.000
  23132944.769   -13029938.97949  -9443641.92445  23132943.986    23132956.973
       219.000         160.000
  21637525.969     5436967.91849   4251274.78847  21637526.412    21637533.307
       239.000         195.000
  24686476.026    -5925249.78349  -4585510.04244  24686475.519    24686486.715
       202.000         130.000
  21985162.314     5617986.69049   4389752.32746  21985161.519    21985169.512
       230.000         185.000
  20554883.925   -11289082.03349  -8779337.06247  20554883.570    20554890.253
       244.000         212.000
  24062290.720    -8153643.87549  -5918517.31145  24062289.154    24062301.119
       213.000         148.000
 03  4 28 18 49  0.0000000  0 11G21G23G29G 5G17G26G30G15G10G 6G18
  22122165.981   -13735987.13749 -10675041.73346  22122164.994    22122171.520
       233.000         185.000
  24466877.526    -7124356.45449  -5522847.03445  24466876.554    24466889.432
       207.000         132.000
  23172675.150   -14854157.53649 -11233822.48446  23172675.091    23172684.858
       221.000         164.000
  23682017.106    15281442.86949  11953557.76845  23682018.160    23682029.689
       219.000         156.000
  21805188.000   -10636628.92149  -8268382.69447  21805187.563    21805195.590
       237.000         199.000
  23116853.364   -13114499.36949  -9509533.00045  23116852.566    23116864.988
       219.000         161.000
  21652538.022     5515856.50449   4312746.30047  21652537.950    21652545.824
       237.000         194.000
  24671846.514    -6002127.89049  -4645415.03445  24671845.677    24671857.206
       205.000         136.000
  22000638.817     5699316.33749   4453126.03446  22000638.005    22000645.625
       230.000         184.000
  20548275.965   -11323807.54349  -8806395.92547  20548275.875    20548282.242
       244.000         212.000
  24042079.566    -8259853.47249  -6001277.81645  24042078.076    24042088.640
       215.000         148.000
 03  4 28 18 49 30.0000000  0 11G21G23G29G 5G17G26G30G15G10G 6G18
  22112526.906   -13786640.78949 -10714512.09146  22112526.247    22112532.695
       233.000         184.000
  24446925.395    -7229208.33549  -5604549.50345  24446925.336    24446936.482
       209.000         133.000
  23163480.554   -14902475.08649 -11271472.46146  23163480.036    23163489.743
       216.000         163.000
  23701755.684    15385166.05549  12034380.69545  23701755.806    23701770.143
       216.000         157.000
  21797820.167   -10675347.90549  -8298553.32547  21797819.773    21797827.546
       239.000         199.000
  23100800.873   -13198854.73049  -9575264.29445  23100800.179    23100810.413
       217.000         159.000
  21667617.336     5595098.76149   4374493.42847  21667617.660    21667626.314
       238.000         195.000
  24657235.450    -6078910.09349  -4705245.27845  24657234.722    24657245.464
       210.000         141.000
  22016183.382     5781003.98749   4516778.69846  22016182.454    22016190.812
       230.000         184.000
  20541730.500   -11358204.13049  -8833198.47047  20541729.996    20541736.724
       244.000         212.000
  24021894.769    -8365923.27349  -6083929.34945  24021892.210    24021906.106
       213.000         147.000
 03  4 28 18 50  0.0000000  0 11G21G23G29G 5G17G26G30G15G10G 6G18
  22102920.675   -13837121.50449 -10753847.70246  22102920.357    22102926.118
       233.000         184.000
  24426998.534    -7333924.02649  -5686145.84345  24426993.125    24427013.464
       201.000         135.000
  23154354.936   -14950429.53449 -11308839.50646  23154354.504    23154364.921
       220.000         164.000
  23721503.055    15488939.57149  12115242.87645  23721501.786    23721516.873
       210.000         155.000
  21790485.203   -10713893.74949  -8328589.06047  21790484.511    21790492.537
       239.000         198.000
  23084788.355   -13283001.05249  -9640832.71445  23084788.593    23084800.889
       219.000         160.000
  21682763.627     5674692.29149   4436514.24247  21682764.554    21682772.017
       238.000         195.000
  24642642.559    -6155595.90149  -4765000.38945  24642641.065    24642654.017
       215.000         145.000
  22031795.797     5863047.38449   4580708.58246  22031795.046    22031803.088
       231.000         184.000
  20535248.073   -11392269.39549  -8859742.84947  20535248.124    20535254.443
       245.000         212.000
  24001737.008    -8471850.89049  -6166470.21045  24001735.844    24001749.942
       215.000         149.000
 03  4 28 18 50 30.0000000  0 11G21G23G29G 5G17G26G30G15G10G 6G18
  22093347.161   -13887430.49249 -10793049.51046  22093347.114    22093352.509
       234.000         185.000
  24407097.135    -7438502.37949  -5767635.19645  24407095.599    24407111.087
       207.000         135.000
  23145299.058   -14998019.04649 -11345922.18946  23145299.543    23145308.839
       221.000         166.000
  23741258.929    15592759.73349  12196141.42445  23741258.649    23741272.903
       212.000         153.000
  21783182.811   -10752268.22749  -8358491.24647  21783182.257    21783189.822
       239.000         198.000
  23068815.972   -13366935.71849  -9706236.21945  23068814.752    23068827.538
       216.000         161.000
  21697975.966     5754633.27749   4498805.78147  21697975.424    21697983.623
       235.000         193.000
  24628067.935    -6232186.34149  -4824681.16045  24628067.584    24628078.111
       214.000         145.000
  22047475.202     5945442.72249   4644912.70146  22047474.401    22047482.594
       232.000         184.000
  20528828.903   -11426002.53349  -8886028.43048  20528828.638    20528835.167
       244.000         213.000
  23981606.944    -8577634.76149  -6248898.97545  23981606.459    23981618.114
       214.000         150.000
 03  4 28 18 51  0.0000000  0 11G21G23G29G 5G17G26G30G15G10G 6G18
  22083806.237   -13937568.88549 -10832118.37246  22083806.069    22083812.429
       234.000         186.000
  24387223.192    -7542942.25649  -5849016.64445  24387223.047    24387234.290
       211.000         136.000
  23136312.873   -15045242.33949 -11382719.51546  23136312.004    23136322.704
       220.000         166.000
  23761023.884    15696622.78149  12277073.31245  23761023.816    23761036.263
       210.000         151.000
  21775912.726   -10790472.68849  -8388260.95447  21775912.170    21775920.279
       238.000         198.000
  23052883.963   -13450656.24649  -9771472.85645  23052883.421    23052893.439
       214.000         158.000
  21713253.477     5834917.89849   4561365.10247  21713254.647    21713262.871
       239.000         193.000
  24613511.296    -6308682.37249  -4884288.36145  24613509.962    24613520.814
       212.000         142.000
  22063220.818     6028186.07149   4709387.99546  22063220.190    22063228.286
       230.000         184.000
  20522473.023   -11459402.93449  -8912054.73848  20522472.888    20522479.247
       245.000         213.000
  23961504.209    -8683273.97749  -6331214.99345  23961502.977    23961513.054
       213.000         148.000
 03  4 28 18 51 30.0000000  0 11G21G23G29G 5G17G26G30G15G10G 6G18
  22074297.808   -13987536.42849 -10871054.11246  22074297.252    22074303.471
       235.000         187.000
  24367375.923    -7647240.92449  -5930287.97545  24367373.758    24367388.753
       206.000         135.000
  23127396.853   -15092096.14949 -11419228.92246  23127396.027    23127405.960
       219.000         165.000
  23780796.379    15800526.61249  12358037.00845  23780796.117    23780810.204
       214.000         152.000
  21768675.007   -10828506.95349  -8417898.04547  21768674.250    21768682.024
       238.000         198.000
  23036993.754   -13534158.58649  -9836539.45945  23036994.241    23037005.566
       215.000         159.000
  21728596.440     5915543.82249   4624190.36747  21728596.556    21728605.254
       236.000         193.000
  24598972.553    -6385083.47849  -4943821.65345  24598972.186    24598982.364
       215.000         144.000
  22079032.147     6111275.17349   4774132.70046  22079031.545    22079039.770
       232.000         185.000
  20516180.940   -11492468.10349  -8937819.81848  20516180.574    20516187.295
       245.000         213.000
  23941429.472    -8788765.58349  -6413415.93645  23941429.114    23941439.278
       213.000         148.000
 03  4 28 18 52  0.0000000  0 11G21G23G29G 5G17G26G30G15G10G 6G18
  22064821.869   -14037332.87149 -10909856.52146  22064821.322    22064827.596
       234.000         187.000
  24347554.963    -7751395.57949  -6011447.13945  24347552.440    24347569.902
       200.000         134.000
  23118551.696   -15138577.55349 -11455448.12046  23118551.730    23118559.992
       220.000         165.000
  23800576.434    15904469.14049  12439030.88345  23800576.544    23800589.675
       211.000         153.000
  21761469.671   -10866371.01249  -8447402.50447  21761468.529    21761476.714
       238.000         197.000
  23021145.991   -13617438.62549  -9901432.91145  23021146.072    23021158.280
       215.000         161.000
  21744003.462     5996508.65149   4687279.72347  21744003.849    21744011.106
       237.000         191.000
  24584451.963    -6461389.22249  -5003280.60545  24584451.199    24584462.620
       214.000         146.000
  22094908.955     6194707.60449   4839144.94946  22094908.493    22094916.939
       231.000         185.000
  20509953.116   -11525195.59349  -8963321.78148  20509952.955    20509959.576
       245.000         214.000
  23921383.324    -8894107.35749  -6495500.24345  23921380.883    23921394.705
       211.000         148.000
 03  4 28 18 52 30.0000000  0 11G21G23G29G 5G17G26G30G15G10G 6G18
  22055377.923   -14086961.00549 -10948527.77947  22055377.200    22055384.349
       234.000         188.000
  24327761.668    -7855406.77349  -6092494.54445  24327760.892    24327775.550
       210.000         137.000
  23109777.451   -15184686.54949 -11491377.14646  23109777.074    23109787.261
       220.000         165.000
  23820362.707    16008445.18649  12520050.84345  23820363.086    23820376.044
       211.000         153.000
  21754296.092   -10904067.82849  -8476776.64047  21754295.005    21754303.051
       237.000         196.000
  23005340.804   -13700495.40749  -9966152.36945  23005339.425    23005350.297
       214.000         158.000
  21759474.284     6077806.94749   4750628.88947  21759474.969    21759482.741
       238.000         192.000
  24569949.016    -6537602.21749  -5062667.28645  24569947.689    24569960.126
       210.000         144.000
  22110849.891     6278478.16849   4904420.65246  22110849.118    22110857.003
       230.000         184.000
  20503789.406   -11557586.17649  -8988561.22148  20503788.952    20503795.618
       244.000         214.000
  23901365.633    -8999299.48149  -6577467.92645  23901364.670    23901375.962
       213.000         148.000
 03  4 28 18 53  0.0000000  0 11G21G23G29G 5G17G26G30G15G10G 6G18
  22045966.657   -14136417.48849 -10987065.29547  22045965.965    22045972.682
       236.000         189.000
  24307997.663    -7959268.64049  -6173425.54045  24307997.134    24308010.067
       211.000         138.000
  23101075.253   -15230417.37649 -11527011.51746  23101074.549    23101084.683
       221.000         167.000
  23840155.124    16112455.69749  12601097.67545  23840154.125    23840168.177
       211.000         153.000
  21747154.957   -10941594.20149  -8506017.96547  21747153.889    21747162.022
       237.000         196.000
  22989579.242   -13783321.71649 -10030692.23345  22989579.156    22989590.750
       217.000         159.000
  21775008.588     6159439.56649   4814238.60747  21775008.565    21775017.599
       236.000         193.000
  24555464.276    -6613718.73049  -5121978.81545  24555462.617    24555473.922
       207.000         135.000
  22126855.560     6362587.53949   4969960.37646  22126854.767    22126863.708
       231.000         185.000
  20497690.795   -11589634.50649  -9013533.96948  20497690.694    20497697.011
       244.000         213.000
  23881377.909    -9104336.36549  -6659314.63345  23881376.847    23881388.909
       214.000         150.000
 03  4 28 18 53 30.0000000  0 11G21G23G29G 5G17G26G30G15G10G 6G18
  22036587.491   -14185705.34849 -11025471.41547  22036586.988    22036593.629
       235.000         189.000
  24288261.512    -8062981.59849  -6254240.52045  24288258.738    24288276.902
       206.000         138.000
  23092444.917   -15275769.71749 -11562350.94746  23092444.693    23092454.984
       221.000         168.000
  23859953.449    16216495.36549  12682167.20445  23859953.888    23859966.504
       214.000         153.000
  21740045.653   -10978953.36249  -8535128.99647  21740044.790    21740052.910
       237.000         196.000
  22973862.111   -13865916.50849 -10095051.69745  22973861.217    22973873.714
       216.000         160.000
  21790605.365     6241401.11849   4878104.64547  21790606.257    21790613.206
       238.000         192.000
  24540997.673    -6689741.32849  -5181217.07544  24540995.922    24541009.181
       207.000         128.000
  22142924.493     6447030.44249   5035759.98846  22142923.643    22142931.931
       229.000         184.000
  20491657.203   -11621341.19849  -9038240.49748  20491656.801    20491663.633
       244.000         213.000
  23861419.315    -9209218.42749  -6741040.73045  23861417.055    23861429.554
       213.000         151.000
 03  4 28 18 54  0.0000000  0 11G21G23G29G 5G17G26G30G15G10G 6G18
  22027240.517   -14234823.55749 -11063745.34147  22027239.699    22027246.660
       235.000         190.000
  24268554.104    -8166542.28749  -6334936.88945  24268552.661    24268566.937
       209.000         138.000
  23083887.467   -15320739.87849 -11597392.59446  23083886.728    23083895.979
       219.000         166.000
  23879757.291    16320563.10849  12763258.60545  23879757.968    23879771.204
       214.000         154.000
  21732968.505   -11016144.32549  -8564108.97347  21732968.039    21732975.824
       239.000         198.000
  22958189.410   -13948274.87649 -10159226.98445  22958189.236    22958200.974
       217.000         159.000
  21806264.627     6323689.88549   4942225.62847  21806265.197    21806271.792
       238.000         191.000
  24526548.846    -6765668.91149  -5240381.37444  24526547.455    24526559.643
       209.000         127.000
  22159056.601     6531805.14649   5101818.13946  22159055.745    22159063.770
       229.000         183.000
  20485689.224   -11652703.16649  -9062678.41648  20485689.282    20485695.462
       244.000         213.000
  23841490.750    -9313942.30649  -6822643.57645  23841491.109    23841500.290
       217.000         152.000
 03  4 28 18 54 30.0000000  0 11G21G23G29G 5G17G26G30G15G10G 6G18
  22017925.839   -14283772.47649 -11101887.36047  22017924.788    22017931.834
       235.000         189.000
  24248876.517    -8269948.89049  -6415513.14045  24248874.314    24248889.674
       211.000         141.000
  23075402.921   -15365326.28649 -11632135.17946  23075402.391    23075412.010
       220.000         166.000
  23899565.743    16424655.52249  12844369.22945  23899565.405    23899577.440
       216.000         153.000
  21725923.282   -11053167.95249  -8592958.56347  21725923.066    21725930.808
       240.000         199.000
  22942562.936   -14030394.00149 -10223215.77245  22942562.225    22942573.523
       217.000         161.000
  21821985.446     6406302.43949   5006598.92647  21821986.313    21821993.975
       239.000         192.000
  24512118.213    -6841501.93949  -5299472.04244  24512118.563    24512128.464
       213.000         131.000
  22175251.389     6616908.39849   5168132.32046  22175250.504    22175258.663
       230.000         184.000
  20479787.065   -11683719.29649  -9086846.84948  20479786.789    20479793.503
       244.000         213.000
  23821592.795    -9418506.30549  -6904121.83945  23821590.406    23821602.523
       214.000         152.000
 03  4 28 18 55  0.0000000  0 11G21G23G29G 5G17G26G30G15G10G 6G18
  22008643.157   -14332553.11849 -11139898.24047  22008642.404    22008649.359
       235.000         190.000
  24229227.940    -8373199.83649  -6495968.12645  24229225.526    24229243.446
       208.000         143.000
  23066991.848   -15409526.63649 -11666576.94546  23066991.324    23067001.147
       219.000         166.000
  23919378.124    16528769.40149  12925496.60245  23919377.699    23919391.755
       213.000         153.000
  21718909.635   -11090025.22349  -8621678.52847  21718909.182    21718916.982
       240.000         199.000
  22926981.908   -14112270.75249 -10287015.78045  22926980.811    22926993.108
       216.000         159.000
  21837767.138     6489235.39549   5071221.91147  21837767.598    21837776.345
       238.000         193.000
  24497705.669    -6917241.01049  -5358489.50145  24497704.152    24497716.108
       215.000         136.000
  22191507.914     6702336.81449   5234699.84846  22191506.810    22191515.332
       228.000         183.000
  20473950.981   -11714388.28049  -9110744.77848  20473950.999    20473957.486
       245.000         213.000
  23801725.349    -9522908.74849  -6985474.21145  23801724.809    23801735.263
       215.000         153.000
 03  4 28 18 55 30.0000000  0 11G21G23G29G 5G17G26G30G15G10G 6G18
  21999392.534   -14381165.36349 -11177777.90447  21999391.738    21999398.478
       235.000         190.000
  24209609.794    -8476292.31349  -6576299.65645  24209608.996    24209623.523
       212.000         141.000
  23058654.576   -15453338.11749 -11700715.71946  23058653.227    23058663.348
       217.000         165.000
  23939194.288    16632902.66549  13006639.05945  23939195.210    23939208.411
       216.000         153.000
  21711927.666   -11126716.20449  -8650268.90347  21711927.345    21711934.843
       239.000         199.000
  22911448.235   -14193901.11549 -10350623.74945  22911449.763    22911459.104
       222.000         162.000
  21853609.320     6572486.30649   5136092.62547  21853609.981    21853616.980
       238.000         192.000
  24483310.853    -6992885.69749  -5417433.38145  24483310.127    24483320.502
       214.000         138.000
  22207825.920     6788088.23649   5301519.08246  22207825.113    22207833.499
       229.000         183.000
  20468181.442   -11744707.70849  -9134370.32048  20468181.103    20468187.745
       245.000         213.000
  23781889.639    -9627147.16449  -7066698.76845  23781890.360    23781900.172
       218.000         153.000
 03  4 28 18 56  0.0000000  0 11G21G23G29G 5G17G26G30G15G10G 6G18
  21990173.866   -14429609.85049 -11215526.85047  21990173.300    21990180.212
       235.000         190.000
  24190022.281    -8579224.60849  -6656506.21145  24190020.827    24190035.795
       210.000         142.000
  23050391.727   -15496758.76549 -11734549.94046  23050391.516    23050400.907
       220.000         166.000
  23959013.953    16737052.33549  13087794.31445  23959013.620    23959027.589
       214.000         153.000
  21704977.132   -11163241.81549  -8678730.41847  21704976.477    21704984.251
       238.000         199.000
  22895962.126   -14275281.87449 -10414037.25845  22895961.406    22895973.222
       217.000         161.000
  21869511.423     6656051.89449   5201208.54247  21869511.362    21869519.333
       236.000         191.000
  24468933.920    -7068436.45049  -5476304.06645  24468932.171    24468943.411
       213.000         137.000
  22224204.762     6874159.36149   5368587.44246  22224203.674    22224211.913
       229.000         183.000
  20462478.567   -11774676.20149  -9157722.40448  20462478.301    20462484.768
       245.000         213.000
  23762085.342    -9731219.71449  -7147794.07645  23762083.102    23762096.420
       213.000         153.000
 03  4 28 18 56 30.0000000  0 11G21G23G29G 5G17G26G30G15G10G 6G18
  21980987.274   -14477886.00349 -11253144.62947  21980986.879    21980992.843
       238.000         191.000
  24170465.614    -8681994.01149  -6736586.00145  24170464.436    24170479.148
       210.000         143.000
  23042203.998   -15539785.43649 -11768077.13846  23042203.584    23042212.562
       220.000         166.000
  23978835.876    16841216.43449  13168960.77945  23978836.587    23978849.286
       211.000         150.000
  21698058.101   -11199601.51049  -8707062.65347  21698057.627    21698065.038
       239.000         200.000
  22880523.857   -14356408.77049 -10477252.94445  22880524.852    22880535.315
       221.000         161.000
  21885472.834     6739930.14249   5266568.11247  21885473.272    21885481.939
       237.000         191.000
  24454574.944    -7143892.72049  -5535101.10445  24454575.260    24454583.976
       215.000         137.000
  22240643.924     6960547.91749   5435903.14546  22240643.033    22240651.410
       228.000         182.000
  20456843.033   -11804291.33649  -9180799.14947  20456842.802    20456849.366
       245.000         212.000
  23742312.413    -9835123.48749  -7228757.91045  23742311.670    23742322.773
       214.000         153.000
 03  4 28 18 57  0.0000000  0 11G21G23G29G 5G17G26G30G15G10G 6G18
  21971832.608   -14525994.78049 -11290631.99947  21971832.267    21971838.227
       237.000         191.000
  24150940.377    -8784598.99049  -6816537.60645  24150938.113    24150953.318
       206.000         143.000
  23034091.505   -15582416.53949 -11801296.11246  23034090.991    23034100.652
       218.000         165.000
  23998659.805    16945391.72049  13250135.97745  23998660.483    23998675.356
       212.000         148.000
  21691170.433   -11235796.67849  -8735266.68647  21691169.626    21691177.263
       237.000         200.000
  22865134.987   -14437278.98249 -10540268.60145  22865134.707    22865144.766
       220.000         162.000
  21901493.136     6824117.04849   5332168.18147  21901493.492    21901502.085
       235.000         190.000
  24440234.004    -7219255.17849  -5593825.02045  24440233.488    24440245.278
       216.000         141.000
  22257142.895     7047250.25549   5503463.34446  22257141.961    22257150.620
       229.000         182.000
  20451274.912   -11833552.03249  -9203599.71248  20451274.847    20451281.437
       246.000         213.000
  23722572.516    -9938857.28649  -7309589.22945  23722572.465    23722582.611
       217.000         154.000
 03  4 28 18 57 30.0000000  0 11G21G23G29G 5G17G26G30G15G10G 6G18
  21962709.670   -14573936.11349 -11327988.88047  21962708.923    21962715.187
       237.000         191.000
  24131446.400    -8887037.06849  -6896359.13345  24131443.839    24131461.235
       205.000         142.000
  23026054.810   -15624649.22349 -11834204.64146  23026054.334    23026063.946
       220.000         166.000
  24018485.453    17049575.99349  13331318.17745  24018486.987    24018501.306
       213.000         147.000
  21684313.961   -11271827.25049  -8763342.45447  21684312.623    21684320.889
       237.000         200.000
  22849795.363   -14517888.47049 -10603081.11546  22849795.196    22849806.667
       220.000         163.000
  21917571.617     6908610.37849   5398007.02547  21917571.961    21917580.105
       234.000         188.000
  24425910.925    -7294523.29449  -5652475.45045  24425910.304    24425921.295
       216.000         144.000
  22273701.178     7134264.33249   5571266.45646  22273699.978    22273708.551
       228.000         182.000
  20445774.743   -11862456.03049  -9226122.31448  20445774.495    20445781.112
       245.000         213.000
  23702865.346   -10042418.46749  -7390286.07145  23702863.899    23702876.044
       214.000         155.000
 03  4 28 18 58  0.0000000  0 11G21G23G29G 5G17G26G30G15G10G 6G18
  21953618.478   -14621710.53949 -11365215.70547  21953617.597    21953624.175
       236.000         190.000
  24111984.893    -8989306.43749  -6976049.28745  24111984.790    24111998.890
       209.000         143.000
  23018094.319   -15666481.50749 -11866801.15946  23018094.455    23018103.309
       221.000         168.000
  24038312.652    17153766.26049  13412505.04545  24038313.882    24038330.060
       213.000         149.000
  21677488.567   -11307694.21349  -8791290.74547  21677487.758    21677495.817
       238.000         200.000
  22834506.077   -14598234.07749 -10665687.98746  22834505.571    22834517.109
       220.000         163.000
  21933708.009     6993406.77749   5464082.01047  21933708.979    21933716.741
       237.000         189.000
  24411605.724    -7369697.65849  -5711052.82445  24411604.718    24411616.359
       208.000         144.000
  22290318.161     7221586.94049   5639309.99046  22290317.624    22290326.228
       229.000         181.000
  20440342.619   -11891001.97949  -9248365.92848  20440342.405    20440348.647
       246.000         213.000
  23683191.383   -10145805.59449  -7470847.29145  23683190.978    23683200.933
       219.000         156.000
 03  4 28 18 58 30.0000000  0 11G21G23G29G 5G17G26G30G15G10G 6G18
  21944559.019   -14669317.98249 -11402312.40547  21944558.198    21944564.576
       236.000         189.000
  24092556.006    -9091404.56749  -7055605.97045  24092553.682    24092568.037
       204.000         142.000
  23010210.640   -15707910.56949 -11899083.47746  23010210.033    23010219.021
       219.000         166.000
  24058140.325    17257960.27549  13493694.83545  24058140.296    24058156.488
       210.000         146.000
  21670694.409   -11343397.43349  -8819111.43847  21670693.501    21670701.486
       238.000         200.000
  22819267.850   -14678311.82649 -10728086.14146  22819267.630    22819278.733
       219.000         164.000
  21949901.710     7078503.69049   5530391.16047  21949901.849    21949910.632
       235.000         189.000
  24397318.290    -7444777.68249  -5769556.69945  24397317.688    24397329.643
       205.000         139.000
  22306993.344     7309215.59949   5707591.99146  22306992.111    22307000.689
       229.000         181.000
  20434979.084   -11919187.60749  -9270328.76548  20434978.699    20434985.383
       246.000         213.000
  23663550.967   -10249016.12449  -7551270.92845  23663549.146    23663560.547
       216.000         155.000
 03  4 28 18 59  0.0000000  0 11G21G23G29G 5G17G26G30G15G10G 6G18
  21935531.229   -14716758.91149 -11439279.35447  21935530.188    21935537.232
       236.000         189.000
  24073159.883    -9193329.77749  -7135027.95245  24073159.329    24073173.177
       208.000         143.000
  23002403.761   -15748934.68149 -11931050.25346  23002403.797    23002412.861
       220.000         165.000
  24077968.103    17362155.07749  13574885.24045  24077970.038    24077981.918
       213.000         147.000
  21663931.229   -11378937.58649  -8846805.06147  21663930.243    21663938.728
       237.000         200.000
  22804080.909   -14758118.71149 -10790273.23346  22804080.474    22804091.142
       219.000         164.000
  21966151.552     7163897.70749   5596931.84447  21966151.230    21966160.489
       234.000         188.000
  24383048.785    -7519763.92449  -5827987.48445  24383048.047    24383058.476
       207.000         137.000
  22323726.075     7397146.77449   5776109.72346  22323725.027    22323734.037
       228.000         182.000
  20429684.284   -11947011.75849  -9292009.94048  20429684.064    20429690.699
       246.000         213.000
  23643944.305   -10352048.13249  -7631555.43345  23643943.888    23643953.402
       217.000         156.000
 03  4 28 18 59 30.0000000  0 11G21G23G29G 5G17G26G30G15G10G 6G18
  21926535.074   -14764033.47549 -11476116.66247  21926534.406    21926541.302
       237.000         189.000
  24053797.905    -9295079.70049  -7214313.30945  24053798.132    24053812.207
       208.000         144.000
  22994674.671   -15789551.22049 -11962699.42446  22994674.698    22994684.032
       222.000         168.000
  24097795.432    17466348.15649  13656074.29945  24097793.964    24097807.641
       202.000         141.000
  21657199.060   -11414314.95549  -8874371.83547  21657198.344    21657206.803
       237.000         200.000
  22788946.437   -14837650.87849 -10852246.24646  22788946.081    22788957.254
       221.000         165.000
  21982457.692     7249586.28749   5663702.03747  21982458.651    21982466.345
       235.000         188.000
  24368797.282    -7594656.27749  -5886345.05345  24368794.894    24368807.561
       209.000         137.000
  22340515.999     7485378.14349   5844861.36546  22340515.143    22340523.578
       229.000         182.000
  20424458.767   -11974472.42349  -9313407.86548  20424458.412    20424465.107
       246.000         214.000
  23624372.404   -10454899.55549  -7711699.18145  23624371.248    23624382.983
       218.000         158.000
 03  4 28 19  0  0.0000000  0 11G21G23G29G 5G17G26G30G15G10G 6G18
  21917570.556   -14811142.42149 -11512824.93547  21917569.952    21917575.978
       237.000         190.000
  24034469.255    -9396652.43349  -7293460.64245  24034467.664    24034480.572
       208.000         143.000
  22987023.593   -15829758.05749 -11994029.34546  22987023.065    22987032.104
       221.000         170.000
  24117621.607    17570536.75249  13737259.85045  24117622.477    24117634.919
       209.000         142.000
  21650497.790   -11449530.29949  -8901812.36047  21650497.113    21650505.654
       237.000         200.000
  22773864.734   -14916905.16749 -10914002.72846  22773863.492    22773875.196
       217.000         164.000
  21998819.287     7335566.06249   5730699.13147  21998819.374    21998827.532
       234.000         188.000
  24354563.462    -7669455.19449  -5944629.84345  24354563.117    24354574.786
       210.000         138.000
  22357362.435     7573906.49349   5913844.43546  22357361.800    22357370.363
       229.000         181.000
  20419302.635   -12001568.06149  -9334521.36048  20419302.401    20419308.913
       246.000         214.000
  23604834.834   -10557568.36849  -7791700.67745  23604833.114    23604845.392
       215.000         158.000
 03  4 28 19  0 30.0000000  0 11G21G23G29G 5G17G26G30G15G10G 6G18
  21908637.523   -14858086.04549 -11549404.38547  21908636.946    21908643.418
       237.000         190.000
  24015174.749    -9498046.05549  -7372468.43945  24015173.561    24015187.354
       212.000         144.000
  22979450.744   -15869553.07749 -12025038.40046  22979450.068    22979459.529
       221.000         170.000
  24137447.007    17674718.23149  13818439.86645  24137448.292    24137462.970
       207.000         143.000
  21643827.316   -11484584.06049  -8929126.97547  21643826.850    21643835.159
       237.000         200.000
  22758836.554   -14995878.05249 -10975539.91346  22758836.395    22758847.497
       220.000         164.000
  22015235.490     7421834.04649   5797920.81546  22015235.799    22015244.044
       234.000         187.000
  24340347.495    -7744160.45249  -6002841.67145  24340346.119    24340356.433
       207.000         139.000
  22374264.940     7662729.06049   5983056.75046  22374264.759    22374272.514
       230.000         182.000
  20414216.254   -12028296.97449  -9355349.09948  20414215.912    20414222.676
       246.000         214.000
  23585332.658   -10660052.73049  -7871558.41345  23585332.904    23585343.413
       219.000         158.000
 03  4 28 19  1  0.0000000  0 11G21G23G29G 5G17G26G30G15G10G 6G18
  21899735.749   -14904865.11349 -11585855.59847  21899735.179    21899741.498
       237.000         190.000
  23995914.446    -9599258.98549  -7451335.38345  23995911.296    23995928.826
       208.000         145.000
  22971956.755   -15908934.81949 -12055725.39846  22971956.545    22971965.939
       223.000         168.000
  24157270.987    17778889.39549  13899611.82445  24157273.747    24157288.002
       209.000         145.000
  21637187.345   -11519477.75949  -8956316.86647  21637187.017    21637194.705
       238.000         199.000
  22743862.519   -15074566.53649 -11036855.51046  22743861.312    22743874.191
       219.000         165.000
  22031705.987     7508386.57549   5865364.21847  22031706.487    22031715.274
       234.000         188.000
  24326149.142    -7818772.79049  -6060981.14245  24326147.798    24326159.513
       206.000         138.000
  22391222.694     7751842.17749   6052495.46846  22391221.860    22391230.527
       228.000         181.000
  20409199.921   -12054658.05649  -9375890.21548  20409199.875    20409206.443
       246.000         214.000
  23565866.187   -10762351.11549  -7951271.23045  23565865.341    23565875.760
       220.000         158.000
 03  4 28 19  1 30.0000000  0 11G21G23G29G 5G17G26G30G15G10G 6G18
  21890865.521   -14951478.25949 -11622177.51747  21890864.560    21890871.121
       237.000         190.000
  23976688.653    -9700287.73949  -7530058.90545  23976687.824    23976701.463
       209.000         147.000
  22964542.056   -15947899.33549 -12086087.28646  22964542.468    22964550.630
       223.000         168.000
  24177092.312    17883048.99349  13980774.79545  24177091.258    24177109.236
       203.000         144.000
  21630578.051   -11554210.28549  -8983381.18147  21630577.523    21630585.420
       238.000         200.000
  22728943.464   -15152965.96949 -11097945.84846  22728943.340    22728954.041
       222.000         166.000
  22048230.220     7595222.12249   5933028.15847  22048230.298    22048240.118
       232.000         188.000
  24311968.597    -7893291.39349  -6119047.55745  24311967.585    24311979.222
       209.000         141.000
  22408235.365     7841244.23949   6122159.33346  22408234.272    22408242.769
       229.000         182.000
  20404254.172   -12080648.16849  -9396142.26348  20404254.079    20404260.775
       246.000         214.000
  23546435.201   -10864460.14949  -8030836.54045  23546433.693    23546444.802
       221.000         158.000
 03  4 28 19  2  0.0000000  0 11G21G23G29G 5G17G26G30G15G10G 6G18
  21882026.685   -14997926.04149 -11658370.58847  21882025.329    21882032.551
       237.000         191.000
  23957498.723    -9801130.40149  -7608637.37545  23957496.700    23957511.469
       212.000         149.000
  22957206.966   -15986444.86749 -12116122.70146  22957207.536    22957215.183
       217.000         169.000
  24196910.318    17987194.33149  14061926.60945  24196911.287    24196928.027
       206.000         145.000
  21623999.335   -11588782.05949  -9010320.23647  21623998.727    21624006.720
       237.000         200.000
  22714080.292   -15231072.50249 -11158807.95946  22714081.069    22714090.497
       205.000         163.000
  22064807.857     7682337.67149   6000910.27947  22064808.611    22064817.060
       235.000         188.000
  24297806.187    -7967716.25849  -6177040.90745  24297805.509    24297816.522
       214.000         146.000
  22425302.597     7930932.76349   6192046.42646  22425301.937    22425310.160
       230.000         182.000
  20399379.377   -12106265.66049  -9416103.96548  20399379.154    20399385.719
       245.000         213.000
  23527040.870   -10966377.93649  -8110252.76645  23527039.789    23527050.232
       220.000         159.000
 03  4 28 19  2 30.0000000  0 11G21G23G29G 5G17G26G30G15G10G 6G18
  21873219.191   -15044209.54649 -11694435.64447  21873218.806    21873224.973
       238.000         191.000
  23938344.583    -9901785.49849  -7687069.77045  23938342.151    23938356.613
       211.000         149.000
  22949951.963   -16024569.57149 -12145830.20345  22949951.269    22949960.745
       220.000         160.000
  24216725.639    18091322.22749  14143064.84045  24216726.579    24216742.407
       209.000         146.000
  21617450.891   -11623194.30049  -9037134.95747  21617450.271    21617457.903
       238.000         200.000
  22699273.076   -15308883.89949 -11219440.08746  22699273.540    22699283.716
       221.000         164.000
  22081438.028     7769729.31649   6069007.53046  22081438.638    22081447.580
       232.000         187.000
  24283661.471    -8042047.92449  -6234961.63245  24283661.031    24283671.736
       211.000         149.000
  22442423.579     8020904.03749   6262153.83746  22442422.334    22442431.802
       228.000         181.000
  20394575.635   -12131509.57149  -9435774.55347  20394575.039    20394581.713
       243.000         212.000
  23507683.193   -11068103.08649  -8189518.96145  23507682.370    23507692.395
       222.000         158.000
 03  4 28 19  3  0.0000000  0 11G21G23G29G 5G17G26G30G15G10G 6G18
  21864443.016   -15090329.26749 -11730373.08747  21864442.621    21864449.010
       237.000         192.000
  23919226.306   -10002251.51649  -7765354.86845  23919225.525    23919239.855
       213.000         148.000
  22942777.491   -16062271.85649 -12175208.54945  22942777.296    22942786.061
       218.000         157.000
  24236536.950    18195429.63149  14224187.11245  24236537.344    24236554.220
       209.000         146.000
  21610932.775   -11657447.29849  -9063825.60747  21610931.763    21610939.710
       238.000         199.000
  22684523.017   -15386396.51349 -11279839.40846  22684523.061    22684533.455
       221.000         168.000
  22098120.059     7857393.93249   6137317.48846  22098120.619    22098129.927
       234.000         187.000
  24269534.311    -8116286.95649  -6292810.12845  24269533.701    24269544.598
       206.000         145.000
  22459597.837     8111154.73249   6332478.97646  22459597.204    22459605.473
       229.000         180.000
  20389843.124   -12156378.57249  -9455153.01047  20389842.816    20389849.648
       244.000         212.000
  23488362.369   -11169633.92449  -8268633.70045  23488360.356    23488371.818
       217.000         160.000
 03  4 28 19  3 30.0000000  0 11G21G23G29G 5G17G26G30G15G10G 6G18
  21855698.051   -15136284.56349 -11766182.39347  21855697.525    21855703.939
       238.000         192.000
  23900144.960   -10102525.14149  -7843489.96545  23900143.645    23900154.576
       214.000         146.000
  22935683.855   -16099548.58349 -12204255.28245  22935683.247    22935692.509
       218.000         161.000
  24256344.182    18299514.98349  14305292.22745  24256344.932    24256360.038
       212.000         147.000
  21604444.827   -11691541.13049  -9090392.23147  21604443.895    21604452.037
       237.000         199.000
  22669830.468   -15463606.06049 -11340002.57646  22669829.873    22669840.450
       218.000         164.000
  22114853.774     7945329.32249   6205838.44346  22114854.195    22114862.259
       233.000         186.000
  24255424.615    -8190432.73149  -6350585.97945  24255421.601    24255434.781
       196.000         139.000
  22476824.907     8201683.14949   6403020.53646  22476824.268    22476832.835
       227.000         179.000
  20385182.551   -12180870.01549  -9474237.26747  20385182.302    20385189.075
       245.000         212.000
  23469078.579   -11270967.68849  -8347594.87145  23469076.716    23469087.679
       219.000         158.000
 03  4 28 19  4  0.0000000  0 11G21G23G29G 5G17G26G30G15G10G 6G18
  21846984.397   -15182075.37049 -11801863.53947  21846983.998    21846990.240
       237.000         193.000
  23881100.302   -10202604.00949  -7921473.16045  23881098.220    23881114.513
       214.000         149.000
  22928671.921   -16136397.03349 -12232968.29646  22928671.971    22928680.041
       219.000         163.000
  24276146.903    18403576.16349  14386378.53845  24276146.643    24276162.975
       210.000         147.000
  21597987.274   -11725475.39549  -9116834.52147  21597986.545    21597995.001
       239.000         200.000
  22655196.272   -15540508.72249 -11399926.56746  22655196.884    22655206.288
       220.000         165.000
  22131638.734     8033532.95849   6274568.41746  22131640.114    22131647.904
       236.000         186.000
  24241332.774    -8264484.65849  -6408288.74045  24241330.006    24241343.794
       202.000         137.000
  22494104.242     8292486.59649   6473776.37446  22494103.226    22494111.730
       226.000         179.000
  20380594.305   -12204981.75949  -9493025.66048  20380594.248    20380600.889
       247.000         214.000
  23449833.201   -11372101.81149  -8426400.46645  23449832.888    23449842.404
       219.000         158.000
 03  4 28 19  4 30.0000000  0 11G21G23G29G 5G17G26G30G15G10G 6G18
  21838301.851   -15227702.61849 -11837417.22247  21838301.019    21838307.284
       237.000         192.000
  23862092.822   -10302486.97149  -7999303.85745  23862092.517    23862106.995
       213.000         151.000
  22921741.673   -16172815.95649 -12261346.61146  22921740.919    22921750.921
       219.000         165.000
  24295944.015    18507609.84949  14467443.33045  24295943.199    24295957.830
       207.000         148.000
  21591559.924   -11759251.30749  -9143153.40347  21591559.175    21591567.297
       239.000         201.000
  22640621.084   -15617101.72949 -11459609.28446  22640619.655    22640631.296
       219.000         168.000
  22148474.035     8122001.13249   6343504.52546  22148473.821    22148483.451
       232.000         186.000
  24227258.786    -8338443.66749  -6465919.09745  24227259.008    24227269.495
       212.000         145.000
  22511435.454     8383561.81449   6544744.00746  22511434.408    22511443.112
       228.000         179.000
  20376078.470   -12228712.90949  -9511517.49048  20376078.295    20376085.052
       247.000         215.000
  23430626.223   -11473035.04149  -8505049.53445  23430624.226    23430637.066
       218.000         159.000
 03  4 28 19  5  0.0000000  0 11G21G23G29G 5G17G26G30G15G10G 6G18
  21829650.304   -15273166.73349 -11872843.80247  21829649.548    21829656.204
       236.000         192.000
  23843123.396   -10402172.24749  -8076980.47345  23843122.580    23843135.736
       214.000         149.000
  22914893.478   -16208803.38449 -12289388.68946  22914891.771    22914902.627
       213.000         163.000
  24315735.220    18611613.16149  14548484.49445  24315736.126    24315750.344
       212.000         148.000
  21585162.519   -11792869.90249  -9169349.71147  21585161.843    21585169.939
       239.000         201.000
  22626105.164   -15693381.79249 -11519048.15246  22626105.593    22626115.469
       221.000         168.000
  22165358.293     8210730.49749   6412644.16246  22165357.772    22165367.803
       229.000         184.000
  24213202.533    -8412310.04849  -6523477.27245  24213201.409    24213213.599
       215.000         149.000
  22528817.650     8474905.61249   6615920.88846  22528817.035    22528824.736
       227.000         178.000
  20371635.306   -12252062.09149  -9529711.68148  20371635.220    20371641.639
       246.000         215.000
  23411457.397   -11573765.41249  -8583540.56945  23411457.415    23411466.380
       221.000         159.000
 03  4 28 19  5 30.0000000  0 11G21G23G29G 5G17G26G30G15G10G 6G18
  21821029.765   -15318467.81649 -11908143.33747  21821029.256    21821035.597
       237.000         191.000
  23824191.679   -10501657.74249  -8154501.42245  23824191.465    23824204.608
       216.000         150.000
  22908127.568   -16244357.35449 -12317093.02945  22908127.044    22908135.945
       215.000         157.000
  24335521.003    18715583.52149  14629499.97645  24335522.129    24335537.252
       215.000         150.000
  21578795.014   -11826331.36449  -9195423.56347  21578794.252    21578802.496
       239.000         201.000
  22611649.878   -15769345.45949 -11578240.46046  22611649.960    22611659.971
       219.000         168.000
  22182291.957     8299718.31949   6481985.19646  22182293.408    22182302.128
       231.000         184.000
  24199163.905    -8486083.85749  -6580963.32145  24199163.088    24199174.700
       211.000         150.000
  22546250.485     8566515.22349   6687304.94646  22546248.887    22546258.426
       225.000         176.000
  20367265.169   -12275027.50249  -9547606.82348  20367264.786    20367271.408
       245.000         215.000
  23392328.230   -11674291.25149  -8661872.17945  23392327.898    23392334.546
       222.000         159.000
 03  4 28 19  6  0.0000000  0 11G21G23G29G 5G17G26G30G15G10G 6G18
  21812440.125   -15363606.95549 -11943316.68147  21812439.662    21812445.629
       237.000         191.000
  23805298.354   -10600942.04149  -8231865.63445  23805296.896    23805311.566
       213.000         150.000
  22901444.710   -16279476.25349 -12344458.32145  22901443.800    22901453.730
       216.000         155.000
  24355299.250    18819517.82449  14710487.40945  24355297.428    24355315.672
       211.000         149.000
  21572457.290   -11859636.58149  -9221375.67947  21572456.969    21572464.682
       240.000         201.000
  22597255.069   -15844989.88749 -11637184.03146  22597254.406    22597265.171
       222.000         171.000
  22199274.256     8388960.68549   6551524.54946  22199274.762    22199283.974
       231.000         183.000
  24185142.717    -8559765.83149  -6638377.82145  24185141.615    24185153.507
       210.000         149.000
  22563733.023     8658387.00549   6758893.24646  22563732.873    22563741.281
       224.000         177.000
  20362968.158   -12297608.27649  -9565202.25248  20362967.861    20362974.494
       243.000         214.000
  23373237.971   -11774611.18549  -8740043.35945  23373235.496    23373248.836
       218.000         160.000
 03  4 28 19  6 30.0000000  0 11G21G23G29G 5G17G26G30G15G10G 6G18
  21803881.557   -15408582.96949 -11978362.92447  21803881.217    21803887.186
       238.000         192.000
  23786443.965   -10700021.50649  -8309070.17445  23786444.027    23786454.734
       214.000         150.000
  22894845.180   -16314156.69949 -12371481.98145  22894844.379    22894854.098
       214.000         156.000
  24375069.927    18923415.12249  14791445.97745  24375069.521    24375085.159
       210.000         146.000
  21566149.426   -11892784.98549  -9247205.60647  21566148.526    21566156.063
       239.000         201.000
  22582921.923   -15920310.03949 -11695874.90746  22582921.839    22582931.882
       224.000         172.000
  22216304.750     8478456.08549   6621261.08246  22216306.241    22216314.396
       233.000         184.000
  24171139.150    -8633354.75149  -6695719.85045  24171138.249    24171149.384
       209.000         146.000
  22581265.419     8750519.82249   6830684.98646  22581264.376    22581273.148
       226.000         176.000
  20358744.971   -12319801.15049  -9582495.41448  20358744.594    20358751.479
       244.000         213.000
  23354187.072   -11874721.50949  -8818051.26746  23354185.844    23354197.746
       219.000         163.000
 03  4 28 19  7  0.0000000  0 11G21G23G29G 5G17G26G30G15G10G 6G18
  21795353.880   -15453396.22949 -12013282.34147  21795353.111    21795359.329
       236.000         193.000
  23767628.842   -10798894.33949  -8386113.70845  23767627.404    23767641.521
       212.000         148.000
  22888329.581   -16348396.60049 -12398162.34645  22888329.349    22888338.576
       215.000         157.000
  24394833.207    19027272.41949  14872373.33345  24394834.657    24394850.213
       213.000         147.000
  21559871.308   -11925776.84349  -9272913.54947  21559870.332    21559878.176
       238.000         201.000
  22568651.377   -15995302.83349 -11754310.63646  22568650.398    22568661.113
       220.000         168.000
  22233383.155     8568201.36649   6691192.33046  22233384.338    22233392.000
       233.000         184.000
  24157153.239    -8706850.93449  -6752989.56945  24157152.182    24157163.256
       207.000         143.000
  22598846.801     8842910.67749   6902677.78446  22598846.244    22598854.628
       226.000         178.000
  20354595.891   -12341604.76249  -9599485.25647  20354595.437    20354601.992
       242.000         212.000
  23335176.778   -11974620.49549  -8895894.43245  23335174.685    23335184.468
       217.000         160.000
 03  4 28 19  7 30.0000000  0 11G21G23G29G 5G17G26G30G15G10G 6G18
  21786856.909   -15498047.51849 -12048075.53047  21786856.003    21786862.141
       236.000         193.000
  23748853.328   -10897559.06149  -8462995.07045  23748851.762    23748866.170
       212.000         148.000
  22881898.007   -16382194.32349 -12424498.19245  22881896.643    22881906.581
       209.000         154.000
  24414589.322    19131086.86349  14953267.29545  24414591.610    24414605.488
       209.000         143.000
  21553622.760   -11958613.11349  -9298500.25447  21553622.268    21553630.390
       239.000         202.000
  22554443.376   -16069964.99449 -11812488.85546  22554443.204    22554453.924
       226.000         170.000
  22250508.026     8658193.17249   6761315.69646  22250508.124    22250517.745
       233.000         183.000
  24143184.955    -8780254.85249  -6810187.35345  24143183.022    24143195.300
       210.000         144.000
  22616476.809     8935556.44849   6974869.23046  22616475.420    22616484.608
       224.000         177.000
  20350521.098   -12363017.77349  -9616170.73847  20350520.987    20350527.451
       244.000         212.000
  23316207.016   -12074306.49049  -8973571.68345  23316205.976    23316216.026
       221.000         161.000
 03  4 28 19  8  0.0000000  0 11G21G23G29G 5G17G26G30G15G10G 6G18
  21778390.880   -15542536.47849 -12082742.23147  21778390.164    21778396.553
       235.000         193.000
  23730118.328   -10996013.18549  -8539712.35645  23730118.811    23730131.280
       216.000         151.000
  22875550.930   -16415547.59649 -12450487.69045  22875550.156    22875560.007
       212.000         150.000
  24434335.948    19234856.43749  15034126.30445  24434333.783    24434353.569
       203.000         140.000
  21547403.827   -11991293.93949  -9323965.81647  21547402.983    21547411.348
       238.000         202.000
  22540299.182   -16144292.83449 -11870406.49046  22540298.486    22540309.138
       226.000         174.000
  22267679.429     8748428.77149   6831628.98846  22267679.846    22267689.036
       230.000         183.000
  24129234.175    -8853566.00749  -6867312.85445  24129232.960    24129244.272
       213.000         147.000
  22634154.680     9028454.61649   7047257.32546  22634154.661    22634162.317
       225.000         173.000
  20346521.088   -12384038.20749  -9632550.32548  20346521.037    20346527.558
       245.000         213.000
  23297278.386   -12173777.27649  -9051081.24946  23297277.081    23297289.905
       222.000         165.000
 03  4 28 19  8 30.0000000  0 11G21G23G29G 5G17G26G30G15G10G 6G18
  21769955.502   -15586864.35349 -12117283.40947  21769954.484    21769960.883
       237.000         192.000
  23711423.254   -11094255.21049  -8616264.34145  23711420.725    23711435.455
       212.000         148.000
  22869288.827   -16448455.07249 -12476129.79445  22869288.151    22869297.782
       209.000         150.000
  24454073.535    19338577.98949  15114947.93145  24454075.176    24454089.363
       209.000         137.000
  21541214.383   -12023819.65249  -9349310.51947  21541213.678    21541221.564
       239.000         202.000
  22526219.028   -16218283.51749 -11928061.41046  22526218.823    22526228.556
       226.000         174.000
  22284896.354     8838904.59749   6902129.46846  22284896.927    22284905.270
       230.000         182.000
  24115300.930    -8926785.25649  -6924366.74645  24115299.865    24115311.255
       210.000         148.000
  22651880.099     9121601.70849   7119839.39846  22651879.290    22651887.209
       223.000         173.000
  20342595.933   -12404665.23549  -9648623.34848  20342595.764    20342602.085
       246.000         214.000
  23278390.620   -12273031.53549  -9128422.10846  23278388.147    23278399.304
       219.000         165.000
 03  4 28 19  9  0.0000000  0 11G21G23G29G 5G17G26G30G15G10G 6G18
  21761550.866   -15631030.68549 -12151698.72947  21761549.982    21761555.983
       237.000         193.000
  23692768.809   -11192282.94949  -8692649.30845  23692765.750    23692779.460
       212.000         146.000
  22863111.886   -16480914.35749 -12501422.66845  22863110.388    22863120.767
       204.000         151.000
  24473802.565    19442249.44449  15195730.42845  24473802.839    24473817.566
       205.000         133.000
  21535054.295   -12056191.02249  -9374534.95847  21535053.243    21535061.639
       238.000         201.000
  22512203.885   -16291933.02749 -11985450.48546  22512203.646    22512213.630
       227.000         172.000
  22302158.551     8929618.00449   6972815.09546  22302158.977    22302169.249
       229.000         183.000
  24101385.222    -8999912.29549  -6981348.80345  24101384.339    24101396.013
       212.000         149.000
  22669652.252     9214995.01949   7192613.31046  22669650.717    22669660.402
       224.000         174.000
  20338746.026   -12424896.69149  -9664388.14848  20338745.799    20338752.560
       244.000         214.000
  23259544.598   -12372066.82549  -9205592.32146  23259543.913    23259551.688
       222.000         164.000
 03  4 28 19  9 30.0000000  0 11G21G23G29G 5G17G26G30G15G10G 6G18
  21753176.927   -15675035.81149 -12185988.44047  21753176.389    21753182.764
       237.000         192.000
  23674155.537   -11290094.54049  -8768865.87545  23674154.124    23674167.631
       211.000         146.000
  22857020.609   -16512923.40049 -12526364.73545  22857021.064    22857028.770
       203.000         145.000
  24493521.228    19545868.02849  15276471.79045  24493520.459    24493538.418
       205.000         133.000
  21528923.538   -12088408.35449  -9399639.37347  21528922.697    21528931.178
       237.000         201.000
  22498254.273   -16365238.32949 -12042571.37046  22498253.493    22498263.772
       226.000         175.000
  22319465.554     9020565.80549   7043683.34146  22319466.505    22319475.958
       231.000         183.000
  24087487.104    -9072947.37049  -7038259.23845  24087486.500    24087497.841
       212.000         152.000
  22687470.810     9308631.87249   7265577.00246  22687470.021    22687478.662
       226.000         175.000
  20334971.661   -12444731.05249  -9679843.49748  20334971.592    20334978.007
       245.000         213.000
  23240740.946   -12470881.45749  -9282590.57446  23240740.360    23240750.683
       225.000         164.000
 03  4 28 19 10  0.0000000  0 11G21G23G29G 5G17G26G30G15G10G 6G18
  21744833.673   -15718879.95149 -12220152.68647  21744833.105    21744839.100
       237.000         192.000
  23655583.819   -11387687.88149  -8844912.42745  23655583.570    23655598.496
       214.000         150.000
  22851015.341   -16544480.41149 -12550954.57945  22851014.512    22851024.305
       212.000         147.000
  24513229.018    19649431.46649  15357170.16245  24513228.455    24513245.682
       201.000         132.000
  21522821.977   -12120472.26449  -9424624.23347  21522821.351    21522829.153
       239.000         201.000
  22484370.709   -16438195.69449 -12099421.11346  22484369.925    22484380.148
       226.000         175.000
  22336816.714     9111745.16649   7114732.03046  22336817.113    22336825.744
       231.000         181.000
  24073606.525    -9145890.54949  -7095098.03945  24073605.690    24073616.440
       217.000         152.000
  22705335.148     9402509.70549   7338728.48646  22705334.624    22705343.196
       225.000         176.000
  20331273.288   -12464166.59249  -9694988.10948  20331272.933    20331279.680
       243.000         213.000
  23221979.651   -12569473.06649  -9359415.09046  23221979.018    23221990.089
       226.000         166.000
 03  4 28 19 10 30.0000000  0 11G21G23G29G 5G17G26G30G15G10G 6G18
  21736520.996   -15762563.57749 -12254191.85647  21736519.830    21736526.739
       235.000         192.000
  23637054.356   -11485061.20049  -8920787.51245  23637052.559    23637065.604
       211.000         150.000
  22845096.448   -16575583.58149 -12575190.73245  22845096.399    22845105.346
       212.000         146.000
  24532925.383    19752937.03749  15437823.37545  24532926.468    24532941.998
       198.000         132.000
  21516749.642   -12152382.78249  -9449489.56047  21516748.875    21516757.599
       239.000         202.000
  22470554.019   -16510802.00549 -12155997.30946  22470553.270    22470563.324
       227.000         178.000
  22354211.095     9203152.66449   7185958.49046  22354211.641    22354220.467
       229.000         179.000
  24059743.345    -9218742.02549  -7151865.33745  24059743.316    24059752.601
       218.000         152.000
  22723244.806     9496625.50949   7412065.41246  22723243.476    22723253.416
       222.000         175.000
  20327650.906   -12483201.94449  -9709820.85848  20327650.690    20327657.333
       244.000         213.000
  23203261.175   -12667840.22649  -9436064.69346  23203260.067    23203269.676
       225.000         167.000
 03  4 28 19 11  0.0000000  0 11G21G23G29G 5G17G26G30G15G10G 6G18
  21728238.749   -15806086.56549 -12288105.85047  21728237.734    21728244.558
       235.000         192.000
  23618566.753   -11582212.31749  -8996489.39345  23618566.697    23618577.702
       217.000         150.000
  22839264.593   -16606230.67849 -12599071.53145  22839263.877    22839272.192
       217.000         148.000
  24552610.385    19856382.61248  15518429.85245  24552609.192    24552629.073
       192.000         133.000
  21510706.363   -12184140.60149  -9474235.91547  21510705.748    21510714.184
       238.000         202.000
  22456804.833   -16583053.41549 -12212296.97546  22456804.188    22456814.560
       224.000         178.000
  22371648.329     9294785.71849   7257360.71146  22371649.309    22371659.245
       227.000         180.000
  24045897.562    -9291501.67849  -7208561.12345  24045896.412    24045908.013
       212.000         151.000
  22741199.180     9590976.60849   7485585.66146  22741198.676    22741207.799
       228.000         177.000
  20324105.186   -12501835.25049  -9724340.34448  20324104.955    20324111.469
       246.000         213.000
  23184585.393   -12765980.65949  -9512537.60346  23184582.937    23184593.976
       219.000         166.000
 03  4 28 19 11 30.0000000  0 11G21G23G29G 5G17G26G30G15G10G 6G18
  21719987.019   -15849449.33849 -12321894.99847  21719986.246    21719992.848
       237.000         193.000
  23600122.281   -11679139.41049  -9072016.72745  23600122.145    23600135.206
       218.000         152.000
  22833519.850   -16636420.04249 -12622595.61845  22833519.733    22833528.540
       216.000         151.000
  24572283.860    19959765.84849  15598987.75145  24572285.920    24572298.810
       208.000         135.000
  21504692.048   -12215746.23449  -9498863.67547  21504691.252    21504699.382
       238.000         201.000
  22443123.700   -16654946.99049 -12268317.76846  22443123.069    22443133.211
       220.000         176.000
  22389128.055     9386641.12249   7328936.17946  22389128.289    22389138.008
       228.000         180.000
  24032069.171    -9364169.76949  -7265185.50845  24032066.776    24032079.269
       209.000         146.000
  22759197.957     9685560.25249   7559287.12846  22759197.226    22759205.560
       225.000         180.000
  20320636.147   -12520065.11449  -9738545.43848  20320635.847    20320642.860
       244.000         213.000
  23165952.786   -12863892.51149  -9588832.42146  23165951.945    23165962.633
       220.000         165.000
 03  4 28 19 12  0.0000000  0 11G21G23G29G 5G17G26G30G15G10G 6G18
  21711765.732   -15892652.75049 -12355559.97747  21711765.218    21711771.622
       239.000         195.000
  23581720.645   -11775841.11849  -9147368.48345  23581716.777    23581732.890
       213.000         152.000
  22827862.479   -16666150.25749 -12645761.97746  22827862.110    22827870.808
       225.000         170.000
  24591945.275    20063083.32849  15679494.45645  24591946.460    24591963.140
       208.000         137.000
  21498706.521   -12247200.39549  -9523373.41247  21498705.806    21498713.603
       239.000         201.000
  22429511.364   -16726479.70249 -12324057.38946  22429510.573    22429521.405
       223.000         173.000
  22406649.188     9478715.21249   7400682.06046  22406648.430    22406658.779
       229.000         179.000
  24018257.951    -9436747.03049  -7321739.16745  24018256.627    24018267.065
       206.000         143.000
  22777240.365     9780373.22249   7633167.25946  22777239.575    22777248.664
       226.000         179.000
  20317244.109   -12537890.74049  -9752435.55048  20317243.905    20317250.473
       244.000         213.000
  23147364.662   -12961574.43049  -9664948.06346  23147363.913    23147373.986
       223.000         167.000
 03  4 28 19 12 30.0000000  0 11G21G23G29G 5G17G26G30G15G10G 6G18
  21703574.927   -15935696.29149 -12389100.40147  21703574.738    21703580.419
       239.000         195.000
  23563362.004   -11872314.70049  -9222542.45145  23563361.774    23563371.294
       216.000         151.000
  22822292.837   -16695418.85949 -12668568.60646  22822291.906    22822301.016
       221.000         171.000
  24611593.924    20166333.32449  15759948.55245  24611594.917    24611611.507
       211.000         141.000
  21492749.970   -12278502.66749  -9547764.80147  21492749.349    21492757.162
       239.000         202.000
  22415968.706   -16797647.39849 -12379512.63346  22415968.858    22415979.083
       224.000         173.000
  22424211.538     9571005.78849   7472596.61146  22424212.371    22424222.084
       230.000         180.000
  24004464.175    -9509232.96549  -7378221.67845  24004462.876    24004472.854
       205.000         142.000
  22795325.885     9875413.37749   7707224.45846  22795324.975    22795333.642
       222.000         175.000
  20313929.374   -12555309.70749  -9766008.77948  20313929.040    20313935.761
       243.000         213.000
  23128820.552   -13059023.72549  -9740882.48446  23128819.771    23128829.039
       222.000         167.000
 03  4 28 19 13  0.0000000  0 12G16G21G23G29G 5G17G26G30G15G10G 6G18
  24742382.863    -3738827.59059  -2227489.07445  24742382.825    24742392.323
       199.000         132.000
  21695413.545   -15978585.13249 -12422520.27047  21695413.188    21695418.931
       237.000         195.000
  23545046.428   -11968563.19949  -9297541.02845  23545044.695    23545056.057
       213.000         152.000
  22816810.427   -16724228.72549 -12691017.78046  22816809.841    22816818.463
       224.000         171.000
  24631227.603    20269508.35849  15840344.25945  24631227.276    24631246.733
       207.000         143.000
  21486821.199   -12309658.32849  -9572041.93547  21486820.474    21486828.427
       238.000         202.000
  22402495.056   -16868451.55649 -12434684.58246  22402495.045    22402503.541
       224.000         172.000
  22441813.665     9663504.83649   7544673.61646  22441815.135    22441824.302
       231.000         181.000
  23990686.801    -9581632.42449  -7434636.78345  23990685.704    23990696.914
       212.000         144.000
  22813453.149     9970672.86849   7781452.57146  22813452.256    22813461.810
       224.000         174.000
  20310691.411   -12572325.24149  -9779267.65048  20310691.221    20310697.906
       244.000         214.000
  23110320.311   -13156243.30949  -9816637.86246  23110319.549    23110327.346
       223.000         166.000
 03  4 28 19 13 30.0000000  0 12G16G21G23G29G 5G17G26G30G15G10G 6G18
  24728086.456    -3813957.60849  -2286032.00545  24728087.941    24728094.456
       207.000         136.000
  21687282.750   -16021312.92749 -12455814.63747  21687281.617    21687288.044
       236.000         194.000
  23526774.942   -12064577.95849  -9372357.51145  23526773.454    23526787.328
       212.000         154.000
  22811417.011   -16752571.45949 -12713102.95046  22811416.635    22811425.491
       223.000         172.000
  24650847.774    20372612.95449  15920685.01845  24650848.093    24650865.922
       217.000         147.000
  21480921.502   -12340661.29449  -9596200.08447  21480920.708    21480928.558
       239.000         203.000
  22389092.549   -16938882.21649 -12489565.47446  22389092.164    22389102.101
       224.000         173.000
  22459456.333     9756215.92349   7616915.86346  22459457.471    22459465.176
       231.000         181.000
  23976927.471    -9653938.84349  -7490979.40145  23976927.628    23976937.712
       215.000         148.000
  22831623.126    10066155.60849   7855854.63446  22831622.617    22831631.296
       224.000         175.000
  20307531.783   -12588929.22549  -9792205.82948  20307531.558    20307538.106
       244.000         214.000
  23091865.200   -13253224.84549  -9892207.76246  23091862.976    23091872.395
       221.000         166.000
 03  4 28 19 14  0.0000000  0 12G16G21G23G29G 5G17G26G30G15G10G 6G18
  24713861.500    -3888712.37349  -2344282.47045  24713861.799    24713867.306
       205.000         136.000
  21679182.272   -16063880.87949 -12488984.45147  21679181.285    21679188.160
       237.000         194.000
  23508548.316   -12160358.47949  -9446991.45945  23508547.511    23508559.893
       216.000         155.000
  22806112.424   -16780446.72049 -12734823.86046  22806112.107    22806120.295
       223.000         173.000
  24670454.491    20475643.22449  16000967.86445  24670455.449    24670469.725
       218.000         151.000
  21475050.619   -12371512.88449  -9620240.28347  21475049.662    21475057.785
       239.000         202.000
  22375761.352   -17008937.27549 -12544153.73346  22375760.813    22375771.161
       223.000         172.000
  22477138.527     9849134.83549   7689320.02046  22477139.440    22477148.523
       231.000         180.000
  23963185.630    -9726153.57049  -7547250.53345  23963184.902    23963195.469
       217.000         151.000
  22849834.861    10161857.93449   7930427.79646  22849834.469    22849843.661
       224.000         175.000
  20304450.580   -12605121.31249  -9804823.07148  20304450.292    20304456.711
       245.000         214.000
  23073455.157   -13349967.65349  -9967591.64146  23073454.370    23073464.930
       222.000         168.000
 03  4 28 19 14 30.0000000  0 12G16G21G23G29G 5G17G26G30G15G10G 6G18
  24699708.139    -3963089.69349  -2402238.76845  24699708.418    24699715.066
       205.000         133.000
  21671112.173   -16106289.22749 -12522029.90747  21671111.502    21671117.934
       239.000         196.000
  23490366.712   -12255902.64749  -9521441.26345  23490364.139    23490377.303
       215.000         155.000
  22800897.069   -16807852.34449 -12756178.84146  22800896.198    22800906.143
       222.000         174.000
  24690046.049    20578596.78549  16081190.96245  24690046.526    24690064.383
       216.000         152.000
  21469208.331   -12402213.84849  -9644163.11247  21469207.457    21469215.475
       238.000         202.000
  22362502.350   -17078613.36049 -12598446.68646  22362502.642    22362512.010
       225.000         172.000
  22494859.729     9942258.64949   7761883.86146  22494860.202    22494869.145
       230.000         181.000
  23949461.069    -9798276.89649  -7603450.44245  23949460.404    23949471.518
       217.000         154.000
  22868087.624    10257776.92849   8005169.79246  22868086.853    22868096.274
       223.000         173.000
  20301447.983   -12620899.92649  -9817118.11748  20301447.690    20301454.259
       244.000         213.000
  23055091.379   -13446469.75049 -10042787.96646  23055091.212    23055100.692
       224.000         170.000
 03  4 28 19 15  0.0000000  0 12G16G21G23G29G 5G17G26G30G15G10G 6G18
  24685626.648    -4037088.26049  -2459899.96244  24685625.907    24685634.660
       203.000         131.000
  21663072.220   -16148539.19849 -12554951.96247  21663071.278    21663077.957
       239.000         196.000
  23472230.083   -12351209.57249  -9595706.21945  23472229.244    23472240.496
       216.000         155.000
  22795771.322   -16834787.55049 -12777167.28446  22795770.976    22795780.332
       222.000         172.000
  24709622.438    20681470.28549  16161351.66645  24709621.625    24709642.711
       211.000         150.000
  21463394.537   -12432765.09449  -9667969.27347  21463393.912    21463402.090
       239.000         202.000
  22349316.063   -17147907.77349 -12652442.21846  22349314.981    22349325.973
       225.000         174.000
  22512618.800    10035583.41949   7834604.27046  22512617.389    22512628.305
       226.000         179.000
  23935753.631    -9870309.79749  -7659579.89845  23935751.884    23935763.460
       213.000         153.000
  22886380.991    10353908.86749   8080077.72646  22886380.219    22886388.507
       226.000         173.000
  20298524.199   -12636264.56349  -9829090.58547  20298523.814    20298530.520
       243.000         212.000
  23036773.542   -13542730.13349 -10117795.93146  23036771.735    23036781.366
       224.000         168.000
 03  4 28 19 15 30.0000000  0 12G16G21G23G29G 5G17G26G30G15G10G 6G18
  24671617.664    -4110704.85449  -2517263.58345  24671617.115    24671627.099
       198.000         132.000
  21655062.650   -16190629.76349 -12587749.80847  21655062.112    21655068.456
       238.000         196.000
  23454139.458   -12446276.21049  -9669783.90445  23454139.407    23454150.648
       219.000         156.000
  22790735.745   -16861249.51549 -12797786.92546  22790735.632    22790744.675
       223.000         172.000
  24729183.372    20784262.57649  16241449.06345  24729184.192    24729201.964
       213.000         150.000
  21457609.451   -12463165.74349  -9691658.08447  21457608.757    21457616.928
       239.000         203.000
  22336202.867   -17216816.19449 -12706137.01446  22336202.209    22336212.283
       223.000         173.000
  22530415.527    10129107.24549   7907479.77846  22530417.057    22530426.056
       228.000         178.000
  23922063.523    -9942251.13149  -7715638.00345  23922062.461    23922073.445
       212.000         150.000
  22904714.702    10450252.35949   8155150.49446  22904713.307    22904722.757
       224.000         173.000
  20295679.657   -12651212.57549  -9840738.40547  20295679.234    20295686.494
       243.000         212.000
  23018502.220   -13638745.77949 -10192613.20246  23018500.913    23018510.071
       224.000         167.000
 03  4 28 19 16  0.0000000  0 12G16G21G23G29G 5G17G26G30G15G10G 6G18
  24657681.720    -4183938.06449  -2574328.42945  24657681.412    24657688.283
       205.000         135.000
  21647083.233   -16232562.00349 -12620424.27747  21647082.597    21647089.378
       238.000         196.000
  23436094.372   -12541102.52259  -9743674.60045  23436093.730    23436106.089
       216.000         157.000
  22785790.521   -16887237.38149 -12818037.15246  22785790.196    22785798.441
       225.000         172.000
  24748728.680    20886971.44559  16321481.69745  24748730.480    24748747.234
       214.000         143.000
  21451852.721   -12493417.21049  -9715230.64847  21451852.082    21451860.072
       239.000         203.000
  22323163.867   -17285336.21149 -12759529.10646  22323163.905    22323173.531
       227.000         174.000
  22548250.086    10222826.32549   7980507.41246  22548250.991    22548261.222
       227.000         179.000
  23908390.691   -10014101.73249  -7771625.38845  23908389.796    23908399.922
       211.000         147.000
  22923087.700    10546803.45249   8230385.01646  22923087.227    22923096.018
       224.000         174.000
  20292914.594   -12665743.25049  -9852061.03048  20292914.608    20292921.202
       245.000         214.000
  23000277.500   -13734516.58759 -10267239.91346  23000276.980    23000286.967
       224.000         168.000
 03  4 28 19 16 30.0000000  0 12G16G21G23G29G 5G17G26G30G15G10G 6G18
  24643819.405    -4256785.88049  -2631092.96345  24643819.309    24643826.433
       208.000         139.000
  21639133.817   -16274336.39549 -12652975.75047  21639133.180    21639139.650
       238.000         197.000
  23418095.828   -12635684.83949  -9817374.92445  23418095.180    23418108.063
       216.000         158.000
  22780935.791   -16912749.66849 -12837916.79446  22780936.076    22780943.916
       225.000         172.000
  24768257.403    20989592.04449  16401445.19345  24768258.631    24768273.933
       213.000         145.000
  21446124.394   -12523520.04549  -9738687.40547  21446123.438    21446131.472
       239.000         203.000
  22310199.483   -17353464.64149 -12812616.09146  22310198.961    22310209.719
       225.000         174.000
  22566120.457    10316737.09349   8053684.46346  22566120.060    22566132.013
       225.000         177.000
  23894735.034   -10085862.09949  -7827542.46745  23894734.010    23894746.195
       212.000         145.000
  22941499.775    10643559.49749   8305779.24546  22941498.951    22941507.470
       224.000         172.000
  20290229.225   -12679855.32949  -9863057.47448  20290228.827    20290235.768
       244.000         214.000
  22982100.316   -13830038.92049 -10341672.78546  22982099.993    22982109.802
       224.000         170.000
 03  4 28 19 17  0.0000000  0 12G16G21G23G29G 5G17G26G30G15G10G 6G18
  24630030.729    -4329246.89849  -2687556.08645  24630029.216    24630038.649
       208.000         141.000
  21631214.285   -16315953.77749 -12685404.87247  21631213.832    21631219.867
       238.000         197.000
  23400143.806   -12730022.88249  -9890884.91345  23400142.948    23400155.417
       214.000         157.000
  22776171.617   -16937785.11149 -12857424.89246  22776171.265    22776180.431
       223.000         172.000
  24787768.851    21092122.33049  16481338.30845  24787768.885    24787788.153
       208.000         144.000
  21440423.950   -12553475.81249  -9762029.56747  21440423.334    21440431.354
       239.000         203.000
  22297309.926   -17421198.89549 -12865395.96046  22297309.924    22297318.938
       225.000         174.000
  22584027.088    10410836.18549   8127008.20546  22584029.991    22584037.182
       229.000         177.000
  23881096.416   -10157533.00849  -7883389.87745  23881095.791    23881106.465
       215.000         147.000
  22959950.286    10740516.90749   8381330.40946  22959949.738    22959957.760
       225.000         171.000
  20287623.554   -12693548.01949  -9873727.12048  20287623.600    20287630.135
       244.000         215.000
  22963970.287   -13925312.62549 -10415911.90546  22963968.575    22963979.570
       224.000         169.000
 03  4 28 19 17 30.0000000  0 12G16G21G23G29G 5G17G26G30G15G10G 6G18
  24616316.197    -4401317.58149  -2743715.09245  24616314.940    24616324.414
       205.000         141.000
  21623324.814   -16357413.22849 -12717710.93647  21623323.954    21623330.397
       239.000         197.000
  23382238.835   -12824113.44949  -9964202.04345  23382238.353    23382249.586
       218.000         156.000
  22771498.695   -16962340.99749 -12876559.31346  22771499.089    22771507.396
       222.000         173.000
  24807262.071    21194561.58149  16561160.45445  24807261.720    24807280.937
       203.000         140.000
  21434751.915   -12583282.92349  -9785255.88747  21434751.560    21434759.567
       240.000         204.000
  22284496.474   -17488534.23549 -12917864.95046  22284495.924    22284506.022
       227.000         174.000
  22601969.567    10505121.80049   8200477.30346  22601969.752    22601979.995
       225.000         176.000
  23867475.253   -10229113.25649  -7939166.62845  23867474.391    23867485.604
       220.000         149.000
  22978438.831    10837674.57149   8457037.63546  22978437.819    22978447.680
       222.000         170.000
  20285098.324   -12706818.38549  -9884067.68148  20285097.759    20285104.777
       243.000         214.000
  22945887.952   -14020334.58249 -10489954.90346  22945888.182    22945897.144
       224.000         168.000
 03  4 28 19 18  0.0000000  0 11G16G21G23G29G17G26G30G15G10G 6G18
  24602676.039    -4472995.48149  -2799568.03445  24602673.963    24602684.306
       206.000         141.000
  21615465.402   -16398714.44949 -12749893.70547  21615464.655    21615470.685
       239.000         197.000
  23364381.611   -12917954.55049 -10037324.79445  23364380.196    23364393.967
       217.000         158.000
  22766917.326   -16986415.33149 -12895318.51346  22766917.211    22766926.111
       224.000         174.000
  21429108.131   -12612941.99149  -9808366.85147  21429107.817    21429115.594
       240.000         204.000
  22271759.445   -17555467.22149 -12970020.43846  22271759.542    22271768.763
       227.000         174.000
  22619946.174    10599591.08849   8274089.56246  22619946.957    22619957.457
       227.000         175.000
  23853871.275   -10300602.86049  -7994872.77545  23853870.649    23853881.105
       218.000         151.000
  22996964.964    10935029.85849   8532898.81646  22996964.183    22996973.472
       221.000         169.000
  20282653.685   -12719664.89449  -9894077.96948  20282653.521    20282660.248
       243.000         213.000
  22927854.298   -14115102.80549 -10563800.16246  22927854.916    22927862.896
       225.000         170.000
 03  4 28 19 18 30.0000000  0 11G16G21G23G29G17G26G30G15G10G 6G18
  24589111.256    -4544278.55049  -2855113.31645  24589110.453    24589118.835
       211.000         143.000
  21607636.141   -16439857.56149 -12781953.27447  21607635.515    21607641.468
       239.000         197.000
  23346571.851   -13011543.99549 -10110251.49045  23346570.995    23346584.045
       218.000         160.000
  22762428.096   -17010006.32349 -12913701.06346  22762427.999    22762436.632
       225.000         174.000
  21423492.540   -12642452.68749  -9831362.20347  21423491.715    21423499.627
       240.000         204.000
  22259099.820   -17621994.27049 -13021859.63246  22259099.276    22259108.761
       227.000         174.000
  22637957.909    10694241.28849   8347842.75946  22637960.466    22637968.091
       230.000         176.000
  23840284.489   -10372001.64949  -8050508.14945  23840283.815    23840294.098
       216.000         152.000
  23015528.262    11032580.16949   8608911.95146  23015527.302    23015538.028
       220.000         168.000
  20280290.084   -12732085.95049  -9903756.73547  20280289.658    20280296.851
       243.000         212.000
  22909869.208   -14209614.99749 -10637445.92146  22909867.729    22909879.311
       223.000         170.000
 03  4 28 19 19  0.0000000  0 11G16G21G23G29G17G26G30G15G10G 6G18
  24575621.875    -4615166.41649  -2910350.63045  24575622.071    24575630.683
       212.000         145.000
  21599836.566   -16480844.40749 -12813891.07247  21599835.755    21599841.823
       239.000         197.000
  23328810.255   -13104881.96049 -10182982.19945  23328809.341    23328818.972
       219.000         159.000
  22758030.793   -17033114.18249 -12931707.14346  22758030.403    22758039.071
       225.000         173.000
  21417904.603   -12671817.62449  -9854243.98347  21417904.064    21417911.787
       241.000         204.000
  22246517.625   -17688114.11649 -13073381.50846  22246518.156    22246526.714
       227.000         174.000
  22656003.261    10789067.49349   8421733.08046  22656005.214    22656012.951
       227.000         177.000
  23826714.429   -10443311.74649  -8106074.39045  23826713.529    23826724.973
       213.000         152.000
  23034127.693    11130320.98949   8685073.55146  23034127.775    23034135.402
       225.000         168.000
  20278007.294   -12744081.85649  -9913104.21548  20278007.278    20278013.765
       244.000         213.000
  22891932.621   -14303871.59049 -10710892.52146  22891932.765    22891940.379
       226.000         170.000
 03  4 28 19 19 30.0000000  0 11G16G21G23G29G17G26G30G15G10G 6G18
  24562207.856    -4685657.64349  -2965278.84845  24562207.558    24562215.173
       209.000         142.000
  21592066.567   -16521676.19149 -12845708.04447  21592065.944    21592072.409
       240.000         198.000
  23311096.567   -13197967.36349 -10255516.09545  23311094.515    23311107.894
       216.000         158.000
  22753725.498   -17055738.15349 -12949336.20046  22753726.103    22753733.395
       223.000         172.000
  21412344.318   -12701037.50249  -9877012.72647  21412343.663    21412351.722
       240.000         205.000
  22234013.358   -17753824.15449 -13124584.03446  22234012.254    22234022.278
       226.000         174.000
  22674080.492    10884065.89549   8495757.61446  22674080.181    22674091.396
       224.000         175.000
  23813161.085   -10514533.79449  -8161572.04245  23813160.812    23813171.036
       216.000         151.000
  23052763.061    11228249.00749   8761381.05946  23052761.645    23052770.329
       222.000         166.000
  20275805.619   -12755651.93849  -9922119.88948  20275805.542    20275812.127
       244.000         213.000
  22874045.323   -14397871.14749 -10784138.80146  22874044.778    22874051.968
       226.000         171.000
 03  4 28 19 20  0.0000000  0 11G16G21G23G29G17G26G30G15G10G 6G18
  24548870.203    -4755747.64449  -3019894.42445  24548868.562    24548876.683
       208.000         137.000
  21584326.492   -16562350.60949 -12877402.39547  21584325.872    21584332.462
       240.000         199.000
  23293431.887   -13290795.81249 -10327849.79445  23293431.253    23293444.309
       216.000         160.000
  22749513.245   -17077874.21349 -12966585.04946  22749513.120    22749521.650
       224.000         172.000
  21406811.919   -12730110.30049  -9899666.85947  21406811.113    21406818.863
       240.000         205.000
  22221587.975   -17819118.68549 -13175462.81946  22221587.595    22221596.109
       225.000         172.000
  22692190.770    10979235.86449   8569915.83446  22692193.371    22692202.337
       230.000         176.000
  23799625.145   -10585665.42449  -8216999.20945  23799625.032    23799636.054
       212.000         151.000
  23071433.670    11326364.00049   8837834.20246  23071432.839    23071442.671
       220.000         165.000
  20273685.738   -12766792.45249  -9930800.82848  20273685.709    20273692.353
       244.000         214.000
  22856207.198   -14491609.55149 -10857181.60646  22856206.018    22856216.640
       224.000         171.000
 03  4 28 19 20 30.0000000  0 11G16G21G23G29G17G26G30G15G10G 6G18
  24535608.998    -4825435.39849  -3074196.56745  24535608.981    24535617.121
       205.000         132.000
  21576616.060   -16602869.07849 -12908975.22647  21576615.510    21576621.881
       239.000         199.000
  23275816.166   -13383366.71549 -10399982.81745  23275813.739    23275826.465
       214.000         158.000
  22745394.003   -17099521.81449 -12983453.28746  22745393.582    22745402.682
       225.000         174.000
  21401307.259   -12759037.47349  -9922207.52947  21401306.354    21401314.515
       241.000         205.000
  22209242.359   -17883995.54149 -13226016.13246  22209242.471    22209251.828
       226.000         174.000
  22710333.639    11074573.35349   8644204.58746  22710334.712    22710344.053
       228.000         176.000
  23786106.162   -10656708.10049  -8272357.07645  23786106.011    23786116.525
       215.000         151.000
  23090139.106    11424662.06249   8914429.99246  23090138.420    23090147.014
       222.000         167.000
  20271647.551   -12777503.11449  -9939146.81848  20271647.061    20271654.123
       243.000         213.000
  22838419.163   -14585086.05549 -10930020.35146  22838418.522    22838428.571
       226.000         173.000
 03  4 28 19 21  0.0000000  0 11G16G21G23G29G17G26G30G15G10G 6G18
  24522424.603    -4894719.09549  -3128183.89444  24522423.120    24522432.361
       207.000         128.000
  21568935.384   -16643231.41849 -12940426.40347  21568934.737    21568940.694
       240.000         199.000
  23258249.372   -13475678.31149 -10471913.76845  23258248.390    23258258.667
       216.000         156.000
  22741367.843   -17120679.43949 -12999939.71346  22741367.159    22741376.972
       224.000         175.000
  21395830.125   -12787819.59149  -9944635.16247  21395829.206    21395837.444
       240.000         205.000
  22196976.803   -17948451.49949 -13276241.47646  22196975.294    22196986.807
       224.000         174.000
  22728507.277    11170075.37549   8718621.54646  22728507.052    22728517.604
       227.000         174.000
  23772604.164   -10727661.96849  -8327645.74945  23772604.498    23772614.601
       216.000         151.000
  23108879.128    11523140.56149   8991166.39946  23108877.817    23108887.360
       222.000         167.000
  20269691.468   -12787782.49149  -9947156.74348  20269691.245    20269698.018
       244.000         213.000
  22820681.226   -14678298.84249 -11002653.57446  22820680.222    22820688.719
       226.000         172.000
 03  4 28 19 21 30.0000000  0 11G16G21G23G29G17G26G30G15G10G 6G18
  24509317.764    -4963596.38149  -3181854.56344  24509317.483    24509325.812
       212.000         130.000
  21561284.314   -16683437.72449 -12971755.99047  21561283.644    21561290.135
       239.000         198.000
  23240732.629   -13567728.51849 -10543641.03245  23240732.086    23240744.492
       218.000         160.000
  22737435.144   -17141345.47149 -13016043.09946  22737434.931    22737443.587
       223.000         175.000
  21390380.517   -12816456.66249  -9966949.76247  21390379.548    21390387.899
       239.000         205.000
  22184791.642   -18012483.11849 -13326136.17146  22184791.309    22184800.703
       224.000         173.000
  22746711.751    11265739.02449   8793164.45446  22746712.309    22746722.894
       226.000         175.000
  23759119.141   -10798526.82249  -8382865.10845  23759118.934    23759128.213
       217.000         149.000
  23127652.888    11621797.01449   9068041.49046  23127651.930    23127660.795
       218.000         165.000
  20267817.714   -12797629.04849  -9954829.40148  20267817.302    20267824.352
       244.000         214.000
  22802993.916   -14771246.02349 -11075079.83346  22802992.407    22803003.096
       224.000         172.000
 03  4 28 19 22  0.0000000  0 11G16G21G23G29G17G26G30G15G10G 6G18
  24496288.765    -5032065.51549  -3235207.14845  24496289.102    24496298.545
       216.000         132.000
  21553662.832   -16723488.75249 -13002964.58247  21553662.020    21553668.588
       240.000         199.000
  23223265.943   -13659516.04549 -10615163.65345  23223265.248    23223278.816
       219.000         162.000
  22733596.122   -17161518.81849 -13031762.58046  22733596.149    22733604.037
       223.000         175.000
  21384958.461   -12844949.11649  -9989151.68047  21384957.532    21384966.086
       240.000         205.000
  22172688.002   -18076087.78449 -13375698.13646  22172687.818    22172697.252
       224.000         174.000
  22764946.046    11361560.87749   8867830.62546  22764945.686    22764956.262
       223.000         174.000
  23745650.882   -10869303.24049  -8438015.53945  23745649.229    23745659.725
       216.000         148.000
  23146459.768    11720628.63249   9145053.06445  23146459.649    23146468.586
       217.000         161.000
  20266026.568   -12807041.89849  -9962164.12448  20266026.462    20266033.075
       245.000         214.000
  22785357.317   -14863926.16549 -11147298.03546  22785356.156    22785367.095
       224.000         172.000
 03  4 28 19 22 30.0000000  0 11G16G21G23G29G17G26G30G15G10G 6G18
  24483337.833    -5100123.56249  -3288239.45745  24483337.588    24483344.105
       213.000         133.000
  21546070.957   -16763383.65549 -13034051.52247  21546070.406    21546076.661
       240.000         199.000
  23205849.883   -13751038.23749 -10686479.50345  23205849.135    23205861.456
       220.000         162.000
  22729851.402   -17181197.07549 -13047096.29146  22729850.302    22729859.892
       223.000         174.000
  21379564.125   -12873296.54149 -10011240.59047  21379563.276    21379571.391
       239.000         205.000
  22160666.396   -18139261.13449 -13424924.04746  22160665.780    22160675.755
       223.000         174.000
  22783209.812    11457538.83549   8942618.43646  22783210.721    22783220.098
       223.000         171.000
  23732199.536   -10939990.26249  -8493096.30045  23732198.981    23732208.896
       213.000         146.000
  23165299.925    11819633.47849   9222199.63346  23165299.597    23165308.688
       221.000         163.000
  20264318.387   -12816018.65549  -9969159.02848  20264318.065    20264324.923
       244.000         214.000
  22767772.145   -14956336.68949 -11219306.12846  22767771.830    22767780.621
       228.000         173.000
 03  4 28 19 23  0.0000000  0 11G16G21G23G29G17G26G30G15G10G 6G18
  24470465.223    -5167769.75349  -3340950.81845  24470464.350    24470473.484
       212.000         136.000
  21538508.651   -16803123.51649 -13065017.64347  21538508.141    21538514.388
       239.000         199.000
  23188484.414   -13842294.25449 -10757587.93745  23188483.417    23188495.696
       219.000         162.000
  22726201.062   -17200379.65149 -13062043.73746  22726200.749    22726209.250
       225.000         174.000
  21374196.981   -12901500.18449 -10033217.45147  21374196.062    21374204.777
       239.000         205.000
  22148727.224   -18202001.09149 -13473812.26546  22148727.265    22148736.041
       225.000         174.000
  22801503.024    11553668.99949   9017524.84846  22801503.008    22801513.851
       225.000         171.000
  23718764.953   -11010588.80549  -8548108.10845  23718763.272    23718774.835
       212.000         144.000
  23184172.474    11918807.93549   9299478.35946  23184171.742    23184180.779
       220.000         167.000
  20262693.200   -12824558.82249  -9975813.72648  20262693.069    20262699.922
       244.000         213.000
  22750238.594   -15048476.49749 -11291103.26446  22750236.729    22750246.383
       225.000         173.000
 03  4 28 19 23 30.0000000  0 11G16G21G23G29G17G26G30G15G10G 6G18
  24457671.492    -5235001.39149  -3393339.15745  24457671.037    24457678.868
       214.000         139.000
  21530975.947   -16842708.32449 -13095862.95147  21530975.706    21530981.805
       240.000         199.000
  23171170.134   -13933282.12749 -10828487.42345  23171168.694    23171181.242
       219.000         162.000
  22722645.505   -17219064.93349 -13076603.67346  22722645.510    22722654.475
       226.000         175.000
  21368857.371   -12929559.85349 -10055082.13347  21368856.818    21368864.994
       239.000         205.000
  22136871.391   -18264304.10349 -13522359.97246  22136871.343    22136880.281
       225.000         175.000
  22819824.526    11649948.63649   9092547.74246  22819825.813    22819836.610
       226.000         172.000
  23705347.150   -11081099.16549  -8603051.18045  23705345.311    23705356.943
       213.000         147.000
  23203076.511    12018149.81149   9376887.52546  23203075.065    23203085.395
       218.000         164.000
  20261151.471   -12832660.90849  -9982127.06347  20261151.147    20261158.179
       243.000         212.000
  22732756.662   -15140343.67149 -11362687.97146  22732756.160    22732766.308
       226.000         173.000
 03  4 28 19 24  0.0000000  0 11G16G21G23G29G17G26G30G15G10G 6G18
  24444957.080    -5301816.65949  -3445403.04045  24444957.198    24444965.482
       213.000         141.000
  21523472.869   -16882138.11949 -13126587.45947  21523472.410    21523478.843
       240.000         199.000
  23153906.850   -14024000.07149 -10899176.62446  23153906.344    23153919.161
       219.000         163.000
  22719184.786   -17237251.41449 -13090774.94346  22719184.316    22719193.217
       223.000         174.000
  21363544.995   -12957476.42549 -10076835.29647  21363544.106    21363552.599
       239.000         205.000
  22125099.036   -18326167.08249 -13570564.81246  22125098.553    22125109.284
       225.000         176.000
  22838174.040    11746374.71449   9167684.70946  22838174.311    22838184.734
       223.000         172.000
  23691946.230   -11151521.21549  -8657925.44345  23691945.757    23691956.797
       213.000         151.000
  23222011.973    12117656.35649   9454425.01845  23222011.186    23222020.037
       218.000         161.000
  20259693.290   -12840323.51349  -9988097.94148  20259693.166    20259699.827
       244.000         213.000
  22715327.179   -15231936.34349 -11434058.76746  22715325.597    22715336.006
       225.000         173.000
 03  4 28 19 24 30.0000000  0 11G16G21G23G29G17G26G30G15G10G 6G18
  24432322.316    -5368213.10749  -3497140.59245  24432320.796    24432329.139
       211.000         139.000
  21515999.177   -16921412.63549 -13157190.98147  21515998.584    21516005.464
       239.000         199.000
  23136695.579   -14114445.79049 -10969653.67646  23136694.150    23136705.587
       220.000         163.000
  22715819.106   -17254937.20349 -13104556.08546  22715818.366    22715828.023
       221.000         173.000
  21358259.999   -12985249.31649 -10098476.51747  21358259.515    21358267.367
       240.000         205.000
  22113411.409   -18387586.22249 -13618423.80846  22113411.444    22113421.421
       226.000         179.000
  22856550.659    11842944.74549   9242933.85146  22856551.349    22856561.698
       223.000         171.000
  23678562.254   -11221854.71949  -8712730.72945  23678561.463    23678572.517
       215.000         154.000
  23240978.476    12217325.52649   9532089.22745  23240978.066    23240986.965
       221.000         162.000
  20258319.151   -12847544.81849  -9993724.96348  20258318.918    20258325.591
       245.000         213.000
  22697950.127   -15323252.50549 -11505214.10346  22697949.686    22697958.723
       227.000         174.000
 03  4 28 19 25  0.0000000  0 11G16G21G23G29G17G26G30G15G10G 6G18
  24419767.382    -5434189.24149  -3548550.58145  24419766.417    24419773.913
       207.000         134.000
  21508554.880   -16960532.42749 -13187673.92147  21508554.228    21508560.895
       239.000         199.000
  23119536.131   -14204618.06949 -11039917.65645  23119534.629    23119545.776
       216.000         161.000
  22712548.787   -17272121.58849 -13117946.51846  22712548.530    22712557.286
       222.000         173.000
  21353002.207   -13012879.71649 -10120006.70247  21353001.754    21353009.887
       240.000         205.000
  22101808.734   -18448559.16749 -13665935.10246  22101808.816    22101818.278
       227.000         178.000
  22874954.300    11939655.15849   9318292.41146  22874954.678    22874966.007
       224.000         171.000
  23665194.958   -11292100.21549  -8767467.46745  23665194.467    23665205.078
       217.000         156.000
  23259975.311    12317153.92749   9609877.54646  23259975.014    23259983.250
       223.000         165.000
  20257029.125   -12854324.21549  -9999007.63948  20257028.821    20257035.964
       244.000         214.000
  22680626.173   -15414290.96749 -11576153.04946  22680625.640    22680634.790
       226.000         175.000
 03  4 28 19 25 30.0000000  0 11G16G21G23G29G17G26G30G15G10G 6G18
  24407293.095    -5499742.02949  -3599630.66345  24407292.983    24407301.211
       206.000         134.000
  21501140.179   -16999496.92549 -13218035.86447  21501139.431    21501145.661
       239.000         199.000
  23102428.915   -14294514.27949 -11109966.51145  23102428.621    23102441.000
       219.000         162.000
  22709374.565   -17288802.33149 -13130944.50646  22709374.237    22709383.204
       223.000         172.000
  21347771.703   -13040366.77149 -10141425.18947  21347771.335    21347778.943
       241.000         205.000
  22090291.647   -18509081.74449 -13713095.46346  22090291.479    22090300.936
       226.000         177.000
  22893384.180    12036503.90849   9393758.74746  22893384.570    22893393.602
       224.000         170.000
  23651844.542   -11362256.76249  -8822134.87645  23651844.379    23651853.881
       215.000         154.000
  23279002.117    12417140.01749   9687788.68546  23279001.463    23279010.742
       218.000         165.000
  20255823.530   -12860659.45749 -10003944.22548  20255823.415    20255830.063
       244.000         214.000
  22663355.188   -15505049.13049 -11646873.60646  22663354.296    22663362.999
       227.000         174.000
 03  4 28 19 26  0.0000000  0 11G16G21G23G29G17G26G30G15G10G 6G18
  24394899.276    -5564871.78849  -3650381.13745  24394900.432    24394908.278
       208.000         134.000
  21493754.614   -17038308.13049 -13248278.34347  21493754.104    21493760.057
       239.000         198.000
  23085374.912   -14384134.44149 -11179800.26846  23085374.118    23085386.831
       218.000         165.000
  22706296.281   -17304979.64149 -13143550.18845  22706296.868    22706303.734
       218.000         160.000
  21342568.160   -13067712.56349 -10162733.59647  21342567.778    21342575.048
       240.000         205.000
  22078860.624   -18569152.66549 -13759903.87646  22078860.483    22078870.812
       227.000         176.000
  22911839.503    12133486.25749   9469329.20246  22911840.453    22911850.466
       224.000         170.000
  23638510.734   -11432326.36649  -8876734.54045  23638509.910    23638519.000
       216.000         151.000
  23298058.049    12517279.49849   9765819.32046  23298057.410    23298066.654
       221.000         164.000
  20254702.466   -12866550.85949 -10008534.95348  20254702.341    20254709.147
       243.000         213.000
  22646137.798   -15595527.02249 -11717375.71846  22646138.055    22646145.912
       230.000         176.000
 03  4 28 19 26 30.0000000  0 11G16G21G23G29G17G26G30G15G10G 6G18
  24382586.466    -5629575.38949  -3700799.56145  24382584.388    24382593.932
       203.000         133.000
  21486398.453   -17076965.31749 -13278400.82447  21486397.467    21486403.790
       240.000         198.000
  23068373.458   -14473476.39049 -11249417.26446  23068372.228    23068382.608
       218.000         163.000
  22703313.978   -17320651.94649 -13155762.36146  22703313.333    22703322.388
       224.000         171.000
  21337391.541   -13094916.67049 -10183931.60447  21337391.022    21337398.250
       241.000         205.000
  22067516.186   -18628768.21949 -13806357.47946  22067516.246    22067525.611
       226.000         179.000
  22930319.680    12230599.50749   9545001.64546  22930321.129    22930331.677
       223.000         170.000
  23625193.478   -11502308.73349  -8931266.22745  23625191.930    23625202.181
       211.000         147.000
  23317142.851    12617570.34149   9843967.94945  23317141.959    23317151.823
       221.000         162.000
  20253666.119   -12871996.84349 -10012778.59348  20253665.959    20253672.990
       243.000         213.000
  22628974.338   -15685722.20349 -11787657.55446  22628972.209    22628982.547
       228.000         176.000
 03  4 28 19 27  0.0000000  0 11G16G21G23G29G17G26G30G15G10G 6G18
  24370355.299    -5693849.85749  -3750883.60745  24370356.513    24370364.109
       207.000         132.000
  21479071.740   -17115467.49249 -13308402.51647  21479070.989    21479077.273
       239.000         198.000
  23051425.737   -14562537.17049 -11318815.11646  23051424.811    23051435.562
       222.000         163.000
  22700428.087   -17335816.66649 -13167579.03446  22700427.891    22700437.270
       222.000         174.000
  21332241.953   -13121978.38249 -10205018.65047  21332240.917    21332249.186
       241.000         206.000
  22056258.974   -18687924.25549 -13852453.00646  22056258.140    22056267.856
       228.000         178.000
  22948824.574    12327842.13649   9620774.89346  22948825.759    22948834.639
       226.000         170.000
  23611892.934   -11572202.94249  -8985729.20345  23611890.828    23611902.777
       213.000         147.000
  23336256.145    12718011.18049   9922233.49446  23336255.556    23336263.257
       223.000         163.000
  20252715.025   -12876994.98849 -10016673.28648  20252714.867    20252721.934
       244.000         213.000
  22611864.791   -15775631.38949 -11857716.56546  22611863.712    22611873.145
       229.000         175.000
 03  4 28 19 27 30.0000000  0 11G16G21G23G29G17G26G30G15G10G 6G18
  24358206.200    -5757694.70249  -3800632.85045  24358207.304    24358213.067
       213.000         135.000
  21471774.283   -17153816.07649 -13338284.51047  21471773.740    21471779.874
       240.000         198.000
  23034531.574   -14651316.57349 -11387993.73046  23034530.217    23034542.647
       219.000         165.000
  22697638.774   -17350473.93049 -13179000.28946  22697639.011    22697647.938
       222.000         174.000
  21327119.056   -13148899.12049 -10225995.84647  21327118.093    21327126.262
       240.000         205.000
  22045089.759   -18746619.08849 -13898189.12746  22045089.522    22045098.065
       229.000         179.000
  22967353.500    12425209.56849   9696645.39446  22967354.102    22967364.890
       224.000         169.000
  23598609.058   -11642010.28049  -9040124.49445  23598608.433    23598618.398
       217.000         151.000
  23355397.335    12818597.96949  10000612.76146  23355396.106    23355406.069
       217.000         164.000
  20251849.139   -12881545.52249 -10020219.18648  20251849.067    20251855.841
       244.000         213.000
  22594810.233   -15865254.70349 -11927552.79046  22594810.258    22594819.438
       233.000         177.000
 03  4 28 19 28  0.0000000  0 11G16G21G23G29G17G26G30G15G10G 6G18
  24346139.330    -5821107.74249  -3850045.62845  24346139.368    24346146.561
       211.000         139.000
  21464506.072   -17192011.26049 -13368046.98947  21464505.452    21464511.117
       240.000         198.000
  23017690.984   -14739812.34949 -11456951.36146  23017690.215    23017702.387
       220.000         166.000
  22694946.540   -17364621.87649 -13190024.66346  22694946.725    22694956.006
       224.000         175.000
  21322022.942   -13175678.84849 -10246863.17447  21322022.041    21322030.282
       240.000         205.000
  22034008.925   -18804849.16749 -13943563.12246  22034008.263    22034018.339
       227.000         179.000
  22985905.121    12522699.44649   9772611.30746  22985905.499    22985916.799
       222.000         168.000
  23585342.014   -11711730.00949  -9094451.50945  23585340.848    23585351.387
       220.000         155.000
  23374565.535    12919328.74949  10079104.17245  23374564.446    23374574.472
       217.000         162.000
  20251068.793   -12885646.47449 -10023414.76648  20251068.467    20251075.215
       244.000         213.000
  22577810.211   -15954590.05049 -11997164.64346  22577808.698    22577818.854
       227.000         178.000
 03  4 28 19 28 30.0000000  0 11G16G21G23G29G17G26G30G15G10G 6G18
  24334154.849    -5884087.12749  -3899120.47645  24334154.236    24334163.055
       205.000         139.000
  21457266.980   -17230052.71249 -13397689.66847  21457266.214    21457272.451
       239.000         198.000
  23000905.163   -14828023.00049 -11525686.75946  23000903.876    23000915.129
       221.000         165.000
  22692351.531   -17378259.63649 -13200651.47546  22692351.242    22692360.100
       226.000         174.000
  21316953.646   -13202317.82349 -10267620.82247  21316952.701    21316961.451
       240.000         206.000
  22023016.957   -18862611.37049 -13988572.58146  22023016.283    22023026.314
       229.000         179.000
  23004479.660    12620308.69649   9848670.22946  23004480.460    23004490.801
       224.000         169.000
  23572091.366   -11781362.54449  -9148710.58345  23572090.411    23572101.560
       220.000         158.000
  23393760.915    13020200.79949  10157705.67646  23393760.637    23393769.315
       219.000         163.000
  20250374.132   -12889296.86649 -10026259.25548  20250374.118    20250380.907
       244.000         213.000
  22560864.816   -16043635.71149 -12066550.76246  22560863.439    22560873.098
       229.000         177.000
 03  4 28 19 29  0.0000000  0 11G16G21G23G29G17G26G30G15G10G 6G18
  24322252.912    -5946630.92449  -3947855.99245  24322251.006    24322260.616
       203.000         137.000
  21450056.991   -17267940.83649 -13427212.87047  21450055.965    21450063.100
       239.000         198.000
  22984173.461   -14915946.92349 -11594198.77146  22984172.399    22984185.002
       220.000         165.000
  22689853.889   -17391385.84549 -13210879.66746  22689853.461    22689862.171
       228.000         175.000
  21311911.062   -13228816.34549 -10288269.01647  21311910.252    21311918.429
       239.000         205.000
  22012114.710   -18919902.99149 -14033215.30946  22012114.420    22012123.507
       228.000         180.000
  23023076.551    12718034.26249   9924819.79546  23023076.526    23023087.329
       222.000         168.000
  23558857.233   -11850908.02649  -9202901.82245  23558856.883    23558866.917
       219.000         159.000
  23412982.771    13121211.67649  10236415.36346  23412981.950    23412991.651
       221.000         165.000
  20249765.500   -12892495.46749 -10028751.69748  20249765.179    20249772.310
       243.000         213.000
  22543975.428   -16132390.04649 -12135709.84246  22543974.841    22543983.056
       232.000         177.000
 03  4 28 19 29 30.0000000  0 11G16G21G23G29G17G26G30G15G10G 6G18
  24310434.295    -6008737.75649  -3996250.94645  24310434.716    24310443.256
       204.000         136.000
  21442876.190   -17305675.71349 -13456616.65147  21442875.636    21442882.151
       239.000         198.000
  22967496.972   -15003582.51749 -11662486.09546  22967497.133    22967509.124
       222.000         168.000
  22687453.601   -17403999.42149 -13220708.41246  22687453.323    22687462.109
       229.000         176.000
  21306895.128   -13255174.65249 -10308807.96047  21306894.394    21306902.752
       240.000         205.000
  22001302.424   -18976720.90849 -14077488.93646  22001301.566    22001311.409
       227.000         178.000
  23041694.611    12815873.10549  10001057.60446  23041694.657    23041707.335
       222.000         167.000
  23545639.657   -11920366.72349  -9257025.46045  23545638.823    23545649.071
       215.000         157.000
  23432230.449    13222358.60649  10315231.06845  23432228.446    23432240.634
       212.000         150.000
  20249242.924   -12895241.23149 -10030891.27748  20249242.821    20249249.514
       244.000         213.000
  22527141.747   -16220851.84149 -12204641.02546  22527140.565    22527150.944
       230.000         177.000
 03  4 28 19 30  0.0000000  0 11G16G21G23G29G17G26G30G15G10G 6G18
  24298699.531    -6070405.17849  -4044303.49945  24298700.480    24298706.505
       203.000         137.000
  21435724.790   -17343256.72449 -13485900.54847  21435724.147    21435730.323
       240.000         198.000
  22950875.661   -15090927.98149 -11730547.34646  22950874.420    22950886.246
       220.000         166.000
  22685151.008   -17416099.08849 -13230136.69746  22685151.037    22685158.612
       226.000         175.000
  21301905.893   -13281392.95649 -10329237.81247  21301905.188    21301913.569
       240.000         205.000
  21990580.947   -19033061.93049 -14121390.95146  21990581.137    21990590.171
       230.000         180.000
  23060333.672    12913822.47749  10077381.52946  23060335.032    23060346.128
       223.000         167.000
  23532438.526   -11989738.63149  -9311081.46245  23532437.582    23532448.095
       212.000         155.000
  23451503.614    13323639.30349  10394151.01445  23451502.553    23451511.451
       215.000         155.000
  20248806.964   -12897532.65449 -10032676.82648  20248806.773    20248813.754
       244.000         214.000
  22510364.105   -16309018.83449 -12273342.48446  22510364.569    22510370.698
       233.000         178.000
 03  4 28 19 30 30.0000000  0 11G16G21G23G29G17G26G30G15G10G 6G18
  24287048.728    -6131630.75549  -4092011.71645  24287048.416    24287056.397
       199.000         136.000
  21428602.689   -17380683.82949 -13515064.52247  21428602.097    21428608.220
       239.000         198.000
  22934309.918   -15177981.07449 -11798380.76946  22934309.118    22934320.692
       222.000         166.000
  22682946.756   -17427682.81349 -13239162.95446  22682946.483    22682955.516
       226.000         175.000
  21296943.499   -13307470.61049 -10349558.06547  21296943.113    21296951.367
       240.000         205.000
  21979951.051   -19088922.47649 -14164918.59246  21979950.677    21979960.040
       228.000         180.000
  23078993.708    13011880.11149  10153789.81246  23078994.445    23079005.418
       223.000         168.000
  23519254.099   -12059022.95749  -9365069.21945  23519253.100    23519263.352
       213.000         153.000
  23470801.590    13425052.06549  10473173.84245  23470800.463    23470811.542
       213.000         155.000
  20248457.795   -12899367.81149 -10034106.83948  20248457.694    20248464.784
       244.000         213.000
  22493643.282   -16396888.82149 -12341812.47846  22493642.775    22493649.993
       230.000         178.000
 03  4 28 19 31  0.0000000  0 11G16G21G23G29G17G26G30G15G10G 6G18
  24275481.850    -6192414.02049  -4139375.27245  24275479.425    24275488.914
       206.000         135.000
  21421509.456   -17417958.83349 -13544109.97547  21421509.068    21421515.283
       239.000         198.000
  22917800.066   -15264741.66249 -11865986.27246  22917798.438    22917810.246
       220.000         167.000
  22680840.507   -17438751.29149 -13247787.71346  22680839.961    22680848.051
       226.000         175.000
  21292007.508   -13333409.55649 -10369770.23947  21292006.611    21292015.024
       240.000         205.000
  21969412.745   -19144301.00649 -14208070.63546  21969412.972    21969421.426
       228.000         178.000
  23097673.656    13110041.45049  10230278.89746  23097674.812    23097684.891
       223.000         167.000
  23506086.073   -12128221.25749  -9418989.96145  23506084.896    23506095.809
       214.000         155.000
  23490124.052    13526592.67049  10552296.32245  23490123.676    23490133.352
       216.000         159.000
  20248195.336   -12900747.24549 -10035181.75248  20248195.046    20248201.911
       244.000         213.000
  22476978.463   -16484461.73549 -12410051.02246  22476977.492    22476987.395
       230.000         178.000
 03  4 28 19 31 30.0000000  0 11G16G21G23G29G17G26G30G15G10G 6G18
  24263999.865    -6252752.46949  -4186392.27645  24263999.413    24264006.562
       205.000         135.000
  21414445.323   -17455080.99449 -13573036.32847  21414444.608    21414451.107
       239.000         198.000
  22901345.897   -15351207.06149 -11933361.75946  22901344.209    22901355.812
       220.000         165.000
  22678832.629   -17449302.24149 -13256009.20746  22678832.311    22678840.497
       226.000         175.000
  21287098.085   -13359208.77249 -10389873.53647  21287097.479    21287105.466
       240.000         205.000
  21958967.061   -19199193.43149 -14250843.89346  21958967.183    21958976.192
       229.000         180.000
  23116372.777    13208304.58149  10306847.32546  23116373.468    23116384.265
       222.000         166.000
  23492934.524   -12197332.84049  -9472843.13445  23492933.451    23492943.994
       218.000         158.000
  23509470.751    13628259.58949  10631517.23345  23509470.212    23509479.877
       217.000         162.000
  20248020.017   -12901668.75849 -10035899.85148  20248019.788    20248026.589
       244.000         213.000
  22460370.596   -16571734.82649 -12478055.94346  22460369.350    22460379.599
       229.000         180.000
 03  4 28 19 32  0.0000000  0 11G16G21G23G29G17G26G30G15G10G 6G18
  24252602.893    -6312644.58649  -4233061.47145  24252601.933    24252611.912
       206.000         137.000
  21407410.404   -17492050.04249 -13601843.36647  21407410.068    21407415.889
       240.000         198.000
  22884948.321   -15437376.02049 -12000506.27846  22884947.391    22884958.956
       221.000         166.000
  22676923.272   -17459335.12349 -13263827.00346  22676922.633    22676931.909
       226.000         175.000
  21282215.148   -13384869.12649 -10409868.62047  21282214.789    21282222.616
       240.000         205.000
  21948614.348   -19253597.57849 -14293236.68546  21948614.330    21948622.860
       227.000         180.000
  23135090.528    13306666.20449  10383492.48146  23135090.560    23135100.757
       224.000         165.000
  23479799.434   -12266358.23249  -9526629.13645  23479798.584    23479808.686
       220.000         160.000
  23528841.108    13730050.26749  10710834.55445  23528840.493    23528849.805
       214.000         160.000
  20247931.884   -12902131.71249 -10036260.62448  20247931.469    20247938.611
       243.000         213.000
  22443820.233   -16658706.94749 -12545826.32046  22443819.817    22443828.038
       231.000         181.000
 03  4 28 19 32 30.0000000  0 11G16G21G23G29G17G26G30G15G10G 6G18
  24241291.116    -6372088.35849  -4279381.31445  24241290.794    24241298.310
       207.000         139.000
  21400404.599   -17528866.28449 -13630531.33847  21400403.829    21400410.083
       240.000         198.000
  22868607.567   -15523246.90349 -12067418.50346  22868606.393    22868617.990
       222.000         168.000
  22675112.825   -17468848.55849 -13271240.04246  22675111.707    22675121.633
       227.000         175.000
  21277358.735   -13410390.28449 -10429755.24347  21277358.181    21277365.819
       242.000         205.000
  21938355.085   -19307509.99449 -14335246.31646  21938355.253    21938363.847
       229.000         180.000
  23153826.497    13405123.65949  10460212.31946  23153826.270    23153838.798
       220.000         166.000
  23466680.716   -12335297.21049  -9580347.78545  23466679.096    23466689.979
       219.000         159.000
  23548234.296    13831962.18249  10790246.35845  23548233.437    23548243.125
       213.000         158.000
  20247931.344   -12902134.69449 -10036262.97448  20247931.259    20247938.012
       244.000         213.000
  22427327.626   -16745376.11549 -12613360.62846  22427326.705    22427335.469
       230.000         180.000
 03  4 28 19 33  0.0000000  0 11G16G21G23G29G17G26G30G15G10G 6G18
  24230064.893    -6431082.47149  -4325350.78345  24230063.686    24230072.766
       204.000         140.000
  21393427.703   -17565529.96249 -13659100.43547  21393426.789    21393433.443
       239.000         198.000
  22852323.748   -15608818.42449 -12134097.46446  22852321.847    22852334.217
       223.000         167.000
  22673401.554   -17477841.99649 -13278247.88946  22673401.871    22673409.663
       227.000         173.000
  21272528.619   -13435773.11049 -10449534.07247  21272527.865    21272535.540
       241.000         205.000
  21928189.807   -19360928.44649 -14376871.02946  21928189.410    21928198.221
       229.000         180.000
  23172579.485    13503673.50949  10537004.15946  23172579.937    23172593.064
       221.000         166.000
  23453578.404   -12404150.38249  -9633999.55945  23453577.566    23453589.051
       221.000         159.000
  23567649.975    13933992.65949  10869750.53045  23567649.796    23567660.004
       211.000         156.000
  20248018.442   -12901677.01549 -10035906.37348  20248018.169    20248025.221
       244.000         213.000
  22410892.837   -16831741.19249 -12680658.01146  22410892.412    22410901.229
       230.000         180.000
 03  4 28 19 33 30.0000000  0 11G16G21G23G29G17G26G30G15G10G 6G18
  24218924.276    -6489625.28049  -4370968.59045  24218923.578    24218932.771
       204.000         139.000
  21386479.726   -17602041.71849 -13687551.14547  21386478.979    21386485.461
       239.000         198.000
  22836097.069   -15694089.26349 -12200542.13746  22836096.509    22836107.459
       221.000         168.000
  22671789.195   -17486314.71549 -13284849.96246  22671789.047    22671798.258
       224.000         171.000
  21267724.705   -13461017.93249 -10469205.36747  21267723.961    21267731.677
       241.000         204.000
  21918118.973   -19413850.13349 -14418108.66746  21918119.082    21918128.351
       228.000         181.000
  23191350.160    13602312.52149  10613865.45246  23191351.861    23191362.709
       224.000         167.000
  23440492.424   -12472917.93749  -9687584.63045  23440491.356    23440502.617
       220.000         157.000
  23587087.965    14036138.86149  10949344.88945  23587087.829    23587098.047
       219.000         159.000
  20248193.378   -12900757.81449 -10035190.14648  20248193.307    20248200.163
       244.000         214.000
  22394516.245   -16917800.98649 -12747717.50246  22394516.279    22394524.540
       232.000         182.000
 03  4 28 19 34  0.0000000  0 11G16G21G23G29G17G26G30G15G10G 6G18
  24207870.069    -6547714.99849  -4416233.35145  24207869.091    24207878.510
       204.000         141.000
  21379560.733   -17638401.53849 -13715883.47647  21379560.009    21379565.983
       240.000         198.000
  22819928.251   -15779057.62349 -12266751.10046  22819928.372    22819937.822
       225.000         169.000
  22670276.049   -17494265.39049 -13291045.26846  22670276.384    22670284.450
       224.000         170.000
  21262947.076   -13486124.68749 -10488769.08047  21262946.229    21262954.276
       241.000         205.000
  21908143.442   -19466272.04949 -14458956.87046  21908143.938    21908152.470
       228.000         181.000
  23210137.769    13701037.99749  10690794.12246  23210137.096    23210149.737
       221.000         165.000
  23427422.596   -12541599.65049  -9741102.80345  23427422.083    23427432.763
       222.000         156.000
  23606547.564    14138398.51649  11029027.64745  23606546.818    23606556.484
       219.000         161.000
  20248456.388   -12899375.98449 -10034113.42648  20248456.195    20248463.136
       244.000         214.000
  22378198.083   -17003553.78149 -12814537.77346  22378196.477    22378205.583
       230.000         181.000
 03  4 28 19 34 30.0000000  0 11G16G21G23G29G17G26G30G15G10G 6G18
  24196902.653    -6605349.61449  -4461143.49645  24196901.963    24196912.373
       203.000         140.000
  21372670.756   -17674608.74549 -13744096.88147  21372670.268    21372676.331
       239.000         198.000
  22803817.205   -15863721.76949 -12332723.04446  22803815.187    22803828.224
       222.000         169.000
  22668862.574   -17501693.15149 -13296833.10546  22668863.043    22668870.109
       225.000         171.000
  21258195.612   -13511093.58049 -10508225.35547  21258194.578    21258202.778
       241.000         204.000
  21898263.488   -19518191.12549 -14499413.23246  21898263.348    21898272.190
       229.000         181.000
  23228940.671    13799847.11249  10767787.99846  23228941.518    23228954.226
       222.000         165.000
  23414369.319   -12610195.73649  -9794554.26845  23414370.079    23414379.700
       223.000         154.000
  23626028.134    14240769.15949  11108796.88445  23626027.691    23626037.211
       213.000         157.000
  20248807.643   -12897530.26349 -10032675.23248  20248807.492    20248814.585
       244.000         213.000
  22361938.499   -17088997.41849 -12881117.13446  22361937.773    22361945.891
       232.000         181.000
